GFSGL_con_lsi_000.txt.gz
Lid_Strength_Index
9 9 9 10 9 10 10 9 9 8 7 6 5 6 5 5 5 6 7 7 7 7 8 8 8 7 8 8 8 7 8 8 10 9 7 7 7 7 6 6 6 6 5
9 9 9 10 10 10 10 9 8 8 7 7 7 6 6 6 6 7 8 8 9 9 9 9 9 8 9 9 9 9 9 9 9 11 9 9 8 7 7 8 7 6 6
8 9 10 11 11 10 10 9 8 7 7 7 7 7 6 6 7 8 8 9 9 9 9 8 8 8 9 9 9 10 9 8 9 10 11 9 9 8 8 8 8 8 7
8 10 11 11 10 10 9 8 7 7 7 7 6 6 7 7 8 8 9 9 9 9 9 9 9 9 10 10 10 10 10 10 10 10 11 10 10 9 9 10 10 10 10
9 9 9 8 8 8 8 7 6 6 6 7 7 8 8 8 8 9 9 10 10 10 9 9 9 8 6 6 7 8 9 9 10 11 11 11 11 11 11 10 11 11 10
6 6 6 6 6 6 5 5 5 6 7 8 8 9 10 8 7 7 8 10 10 10 10 9 8 7 7 6 6 6 6 9 9 10 10 11 11 11 10 10 10 11 11
5 5 5 4 4 5 5 5 7 8 9 10 10 10 10 9 7 7 7 9 10 9 9 9 9 8 8 9 8 7 7 7 8 9 10 9 9 8 9 10 11 11 10
5 5 5 4 5 6 7 8 9 10 10 11 11 10 10 9 7 8 8 9 9 9 9 9 10 10 9 9 10 10 10 9 9 9 9 8 8 7 7 7 9 10 10
8 8 7 7 8 8 9 10 10 11 11 11 10 10 10 10 8 8 8 11 10 10 9 9 9 10 9 8 9 10 10 10 8 7 7 7 7 6 7 8 9 10 11
7 7 7 7 8 9 10 10 11 12 11 10 10 10 9 11 9 9 8 9 11 11 11 11 9 10 9 9 10 10 11 10 9 9 9 8 7 8 7 7 8 10 11
6 7 7 8 8 9 10 11 12 12 12 15 15 13 12 11 11 8 8 10 11 11 11 11 11 9 9 9 9 10 10 9 9 9 9 9 9 9 9 8 8 8 9
7 8 8 8 9 10 11 11 11 12 14 15 17 16 13 14 10 9 8 9 10 11 11 11 11 9 9 8 8 9 8 8 8 9 10 10 9 9 8 8 8 8 7
9 9 9 9 10 10 11 11 12 12 15 15 13 15 12 11 11 9 9 10 9 10 10 10 10 9 10 10 9 8 9 9 10 10 10 10 9 8 8 8 9 8 8
9 9 9 10 10 11 10 11 11 15 15 12 13 12 11 11 11 11 11 10 9 9 11 12 12 11 12 12 11 11 10 10 9 10 10 9 9 9 8 9 10 8 8
9 9 10 10 11 10 10 10 11 11 12 12 13 10 11 12 11 9 9 9 9 10 11 14 14 14 14 13 13 12 11 10 10 9 9 10 9 9 9 9 8 8 8
9 10 11 12 12 11 10 10 7 7 6 7 7 8 9 9 9 9 9 8 9 9 12 15 16 15 15 14 14 14 12 12 10 12 13 11 11 9 9 8 8 7 8
11 10 11 11 11 11 11 11 13 10 7 7 7 8 8 9 9 9 9 10 10 11 12 14 15 15 15 14 14 14 14 12 11 11 9 9 8 8 6 7 7 7 9
13 12 12 11 11 11 15 14 15 16 17 14 10 9 10 10 10 10 11 11 13 13 13 14 15 15 14 14 14 15 14 14 13 12 12 10 10 8 10 9 9 10 11
9 11 14 12 12 14 14 15 16 17 16 16 15 11 12 11 11 11 12 15 15 15 15 14 15 15 15 14 15 15 16 15 15 14 14 13 12 13 11 11 11 11 12
9 9 10 10 11 12 13 15 15 16 17 17 17 13 13 13 15 15 15 16 16 16 16 16 16 16 16 16 15 15 16 16 16 15 15 14 13 13 12 11 12 13 12
10 9 7 8 12 11 15 16 16 18 19 18 15 14 13 14 15 15 16 16 17 17 17 17 17 17 17 17 16 16 15 16 16 16 16 16 15 14 14 14 14 13 12
12 9 8 12 12 15 16 14 18 18 20 17 15 15 14 15 15 16 16 16 16 16 17 18 18 18 18 18 17 17 17 15 15 17 18 18 18 17 16 15 16 17 15
13 12 12 11 14 16 17 17 18 20 18 18 17 16 16 16 16 16 16 16 17 17 17 18 19 19 18 18 17 17 17 16 15 18 19 19 18 18 19 18 18 17 16
10 12 12 13 17 17 17 18 18 16 16 18 19 18 18 18 17 16 16 16 16 18 18 19 19 20 19 19 18 17 17 17 17 17 18 19 18 18 18 18 18 17 16
8 8 11 15 17 16 17 19 20 17 16 18 19 18 17 18 17 17 16 17 17 19 19 19 20 20 20 20 19 19 19 18 19 18 18 19 20 19 20 18 19 17 15
7 7 10 16 15 15 16 18 20 17 17 18 19 19 17 17 17 17 17 17 18 18 19 19 19 20 20 19 19 19 19 20 19 19 19 19 20 21 21 22 22 22 22

GFSGL_con_lsi_003.txt.gz
Lid_Strength_Index
9 9 8 8 9 9 9 9 8 7 6 6 7 6 5 5 5 6 6 7 7 7 8 8 8 8 8 8 8 7 8 8 10 9 8 7 7 7 6 5 5 6 5
8 8 8 8 9 10 9 8 7 7 6 7 7 6 6 6 6 7 8 8 8 9 9 9 9 8 9 9 9 9 9 9 9 11 10 10 9 7 7 7 6 6 6
8 8 8 10 10 9 8 7 6 7 7 6 6 7 7 7 7 8 8 8 9 9 9 9 9 9 9 9 9 10 10 9 10 11 11 10 10 9 9 8 8 8 7
8 9 11 10 10 9 9 8 6 6 6 6 6 6 6 7 8 8 9 10 11 10 10 10 10 10 10 10 10 10 10 10 10 11 11 11 11 10 10 10 10 9 9
7 9 9 8 7 8 6 5 5 5 5 5 6 7 8 8 8 9 10 10 11 10 10 9 9 9 8 8 9 9 9 10 10 11 11 11 12 12 11 10 11 10 10
7 6 5 5 4 5 4 4 4 4 4 6 8 8 9 8 7 7 8 10 10 10 11 10 10 9 8 7 7 7 7 9 10 10 10 11 12 12 12 12 12 12 12
6 5 4 5 4 4 3 4 4 7 8 9 9 9 9 9 7 7 7 10 10 10 11 11 10 8 8 9 8 8 8 7 8 9 10 10 10 9 8 10 11 11 12
6 8 7 7 6 6 7 8 9 9 10 10 10 10 10 9 7 8 8 10 11 11 10 9 10 10 9 9 10 10 10 9 10 9 10 9 9 8 8 8 9 10 10
8 8 7 7 7 8 9 10 10 10 10 10 10 10 10 10 8 8 9 13 12 11 9 9 10 10 9 9 10 11 11 10 8 8 8 8 7 7 7 8 9 9 11
6 7 7 7 8 9 10 10 10 11 10 10 10 10 10 12 10 9 9 11 11 10 10 10 10 10 9 9 10 11 11 10 10 9 9 9 7 8 7 8 8 10 10
7 7 7 7 8 9 10 10 11 11 11 14 15 14 12 11 12 9 9 10 10 11 11 11 10 10 9 9 9 9 9 9 10 10 9 9 9 9 9 8 8 8 9
8 8 8 9 9 9 11 11 11 11 13 14 17 15 13 14 10 10 9 8 9 11 11 10 11 10 10 10 10 9 9 9 9 10 10 10 10 9 9 8 8 8 8
9 9 9 9 10 10 10 11 11 12 14 14 12 13 12 11 12 10 9 8 9 10 9 11 11 11 11 11 10 10 11 10 10 10 10 10 9 9 8 8 8 8 8
9 9 9 10 10 10 10 10 10 13 13 10 11 11 10 11 11 11 9 9 9 9 10 12 13 12 13 13 12 12 11 11 11 11 10 10 9 9 9 8 9 9 9
9 9 9 10 10 10 9 9 9 9 11 10 12 10 10 11 10 7 8 9 9 9 11 13 14 15 15 14 14 13 13 12 12 11 10 10 10 9 9 9 9 9 9
9 9 11 12 11 9 9 9 6 7 6 6 6 8 8 7 7 8 8 8 9 10 11 14 16 16 17 15 16 16 15 14 13 12 13 12 12 11 11 10 8 8 9
12 10 11 10 10 10 11 11 15 11 8 8 7 7 8 8 8 9 9 10 10 11 13 14 16 17 16 15 15 16 16 15 14 13 12 10 9 10 9 8 7 7 9
14 13 14 13 13 12 14 14 18 17 18 15 11 9 9 9 9 10 11 12 14 14 14 15 16 16 16 16 16 16 17 17 16 15 14 13 12 11 9 8 8 10 11
9 11 15 14 15 15 14 17 18 18 17 17 16 13 12 11 11 12 12 15 16 16 16 16 16 16 17 17 17 17 18 18 18 17 16 15 15 12 12 12 11 12 11
8 11 12 11 14 14 15 17 16 17 18 17 19 16 13 13 15 15 15 16 17 17 17 17 17 17 17 18 18 18 16 17 17 17 17 17 17 17 17 12 13 14 13
11 11 8 11 13 14 16 17 18 19 20 18 19 16 14 15 16 16 16 16 17 17 17 18 18 18 18 18 18 18 18 17 17 19 19 18 19 19 17 18 18 16 15
14 11 10 14 14 17 17 17 19 19 18 18 18 17 15 16 16 16 16 17 17 17 17 18 19 18 18 18 18 18 18 17 17 19 20 20 20 20 19 20 19 19 17
14 14 14 13 16 18 18 18 20 20 18 19 19 18 17 18 18 16 17 16 17 18 18 18 19 19 19 19 18 18 18 18 18 18 22 21 19 20 22 20 20 19 19
13 13 11 14 19 19 21 21 22 19 16 19 21 21 18 19 19 17 17 17 18 18 18 19 19 20 20 20 19 19 19 18 19 19 21 21 20 20 20 19 19 19 18
10 9 10 17 19 19 21 21 22 22 19 20 21 20 18 18 18 18 18 18 18 19 19 19 19 20 20 20 20 20 21 20 20 21 20 21 21 21 23 22 25 21 20
8 9 10 16 16 18 21 22 22 22 20 20 20 20 20 18 18 19 18 18 19 19 19 19 20 20 20 19 19 19 21 21 20 21 21 20 21 22 23 23 24 24 25

GFSGL_con_lsi_006.txt.gz
Lid_Strength_Index
9 9 9 8 8 8 9 9 8 7 6 7 6 6 6 5 5 5 5 6 6 6 7 7 8 8 8 8 8 8 8 8 10 9 8 7 7 6 6 5 4 5 4
8 8 8 9 10 10 10 9 8 7 7 7 6 6 5 6 6 6 7 7 7 8 8 9 9 8 8 8 8 9 9 9 9 10 9 9 8 7 6 6 6 5 5
8 8 10 11 11 11 10 8 7 7 6 6 6 5 5 5 6 7 7 8 8 9 9 9 9 9 10 10 10 10 10 9 9 10 10 9 9 8 7 7 7 6 6
7 9 10 10 11 10 8 7 6 6 5 4 4 5 5 6 7 7 7 9 9 9 9 10 10 11 11 11 10 10 10 10 10 10 10 10 9 9 8 9 9 7 8
7 7 8 7 7 7 7 6 5 4 4 3 4 5 7 7 7 8 9 9 10 10 10 10 10 9 8 8 9 10 10 10 10 10 10 10 11 11 10 9 10 9 9
8 8 6 5 5 5 4 4 3 4 4 4 6 8 9 8 6 7 7 9 10 10 10 10 10 9 9 8 8 8 9 10 10 10 10 10 10 10 10 11 11 11 12
7 7 7 6 5 5 4 4 5 6 8 9 9 9 9 9 7 7 7 9 10 10 10 10 10 9 9 10 9 8 8 8 9 9 10 10 10 9 9 10 10 10 11
9 8 7 7 7 7 8 8 9 9 9 10 10 9 10 10 8 8 9 10 11 10 10 10 10 10 9 9 9 9 9 9 9 10 10 10 9 9 9 8 8 8 8
8 7 7 8 8 8 9 10 10 10 10 10 9 10 10 10 9 8 9 11 12 12 10 10 10 10 9 8 10 10 11 10 8 8 8 8 8 8 8 9 10 10 10
8 8 8 8 9 10 10 10 10 10 9 9 10 10 10 12 9 9 9 11 12 11 11 10 9 9 9 9 10 11 11 10 9 9 9 9 8 8 8 8 9 10 10
8 8 8 9 9 10 11 10 11 10 11 13 14 13 11 10 11 9 8 10 10 10 10 10 9 9 10 10 10 11 11 9 9 8 9 9 9 9 8 8 8 9 10
8 9 9 9 9 10 10 10 10 11 12 13 15 13 11 12 8 8 8 8 8 9 10 9 10 10 10 10 10 10 9 10 10 10 10 10 10 9 8 8 8 8 8
9 9 9 9 9 9 10 11 10 11 12 12 10 11 10 9 10 8 8 8 7 9 9 9 10 11 11 12 11 11 11 11 12 11 10 10 9 8 7 8 7 7 7
9 9 9 9 10 10 10 9 9 12 12 10 11 11 10 10 10 9 8 8 8 8 9 11 12 12 13 13 13 12 13 12 12 12 11 9 8 8 8 7 8 8 9
9 8 9 9 10 9 9 9 9 9 11 10 12 12 11 11 9 7 8 9 9 9 10 11 13 14 15 14 14 14 14 13 13 12 11 11 10 9 9 8 8 8 9
9 9 11 12 11 9 9 9 7 7 7 7 7 9 9 8 7 7 8 8 9 10 11 13 15 16 16 15 16 16 15 15 14 13 12 10 10 10 9 9 8 8 9
12 11 13 11 12 12 12 12 14 11 8 8 8 9 8 8 8 9 9 10 10 12 14 14 15 16 16 16 16 16 17 16 15 15 14 13 12 9 9 9 8 7 7
14 14 13 13 14 14 17 15 17 18 18 16 12 10 9 9 9 10 11 12 14 14 15 15 16 16 16 16 17 17 17 16 16 16 15 15 14 12 12 10 9 9 9
10 12 17 17 17 17 17 17 19 19 19 17 15 14 14 11 11 12 12 15 16 16 16 16 16 16 17 16 17 18 18 17 17 18 17 17 16 14 12 13 12 13 12
10 12 15 14 15 15 16 17 16 18 17 15 17 17 14 14 16 16 16 16 16 17 17 17 17 17 17 17 17 18 17 17 17 18 19 19 18 17 17 15 16 15 13
13 13 13 13 14 15 17 18 19 18 16 16 19 19 15 16 17 16 17 17 17 17 18 18 18 18 18 18 18 19 18 18 17 17 19 19 20 19 17 17 17 16 15
12 15 14 16 15 18 18 18 20 19 17 18 18 17 16 17 17 17 17 18 17 17 17 18 19 18 18 19 19 19 19 19 19 18 19 20 19 19 18 18 18 18 17
10 14 16 15 17 18 20 20 22 23 20 21 20 18 18 18 18 17 17 18 18 18 18 18 19 19 19 19 19 19 20 20 20 21 20 21 20 20 20 18 18 17 17
14 14 12 16 21 20 22 22 24 22 20 21 22 21 19 18 18 18 18 19 18 18 19 19 19 20 19 20 20 20 20 20 20 21 23 22 21 21 20 19 18 19 18
10 9 14 18 20 19 21 22 24 25 24 23 23 21 19 19 17 18 18 18 18 19 19 19 20 20 19 20 20 21 22 22 21 22 21 22 22 22 23 21 22 20 20
8 9 10 16 19 19 18 20 22 24 24 22 23 21 20 20 18 18 17 17 18 18 18 19 19 20 20 19 19 20 22 23 22 22 22 20 22 23 23 23 22 21 22

GFSGL_con_lsi_009.txt.gz
Lid_Strength_Index
5 5 5 5 6 7 6 6 5 4 4 5 5 5 5 5 4 3 3 3 3 3 3 4 5 5 5 5 5 6 6 6 8 7 6 5 5 5 4 3 3 3 3
5 5 5 7 7 7 6 6 5 6 5 4 4 4 3 3 2 3 4 4 4 5 5 5 5 6 5 5 6 6 6 6 7 8 7 6 6 5 4 4 4 4 3
4 5 6 6 7 6 5 5 5 4 4 3 3 2 3 3 4 4 5 5 5 5 5 5 6 6 7 7 7 7 7 7 7 8 8 7 7 6 6 6 6 5 5
5 5 6 6 5 5 5 4 4 4 3 3 3 2 3 3 4 4 4 5 5 6 6 6 7 7 8 8 8 8 8 8 8 9 9 8 8 7 7 7 7 6 6
5 5 5 5 5 5 5 4 3 3 2 2 2 3 5 5 5 5 5 6 6 6 6 7 7 7 8 8 8 8 8 8 8 9 9 9 9 9 9 7 8 7 6
5 6 6 6 5 4 4 3 3 3 4 5 6 6 6 6 6 6 6 6 7 7 8 8 8 8 8 8 8 8 8 9 9 10 10 10 9 8 8 8 8 9 10
6 6 5 4 5 5 5 5 5 6 6 6 6 6 6 6 7 7 8 7 8 8 9 9 9 8 8 8 8 8 9 9 9 9 9 9 9 8 8 8 8 7 8
5 5 5 5 6 5 5 6 6 6 6 7 6 6 7 7 8 8 8 7 8 8 8 8 8 8 8 9 9 9 8 8 8 8 8 8 8 7 8 8 8 8 6
5 5 5 5 6 6 7 7 7 7 6 6 7 7 7 7 8 8 8 8 8 8 8 8 8 8 8 8 9 9 8 8 8 8 8 8 7 8 8 8 9 9 9
5 5 5 6 6 7 7 7 7 7 7 7 7 7 7 7 7 7 7 7 8 8 8 8 8 8 8 8 8 9 10 9 9 8 8 7 7 7 7 7 7 9 10
5 5 6 6 7 7 7 7 7 7 7 7 7 6 6 6 6 7 7 7 7 8 8 8 7 8 9 9 10 10 10 9 9 9 8 8 7 7 7 6 6 7 8
5 6 6 6 7 7 7 7 6 6 6 7 7 6 6 6 7 7 7 6 6 7 7 7 7 9 10 11 11 10 10 10 9 10 9 9 8 8 7 6 6 6 5
5 6 6 6 6 6 7 6 6 6 6 7 7 8 8 7 7 7 7 6 6 6 6 8 9 10 11 11 11 11 11 10 10 10 10 9 8 7 6 6 6 5 6
6 6 6 6 6 6 6 6 6 6 6 7 8 8 8 8 7 6 6 6 7 7 8 8 10 11 12 11 11 11 11 11 11 11 10 8 7 7 7 6 7 7 7
6 6 6 6 6 7 6 6 6 6 7 8 8 8 9 9 8 6 7 8 8 9 9 10 11 12 12 12 12 12 11 11 12 11 10 9 8 7 7 6 7 7 7
7 6 6 7 7 7 7 6 6 7 7 8 8 8 8 8 7 8 8 9 9 10 10 12 13 13 13 13 13 13 12 13 12 11 11 10 9 8 7 6 6 6 7
7 7 7 8 7 7 7 7 8 7 8 9 9 9 9 9 8 9 10 10 10 11 12 13 14 14 14 13 13 13 13 13 12 12 12 11 10 8 8 7 6 6 6
8 11 7 7 7 7 7 7 8 9 10 10 10 10 10 10 10 10 11 12 13 13 14 14 14 14 14 14 14 14 13 13 13 13 12 12 11 10 9 9 7 7 5
7 7 7 8 8 9 8 7 8 9 10 10 11 11 11 11 11 12 12 14 15 15 15 15 15 15 15 14 14 14 14 13 13 13 13 13 12 11 11 10 9 10 8
6 8 10 8 8 8 8 8 8 9 10 11 12 12 12 12 13 13 14 14 15 15 15 15 15 15 15 15 14 15 14 13 13 13 13 13 12 11 11 11 10 10 9
7 7 10 7 8 8 8 8 9 9 10 11 12 12 14 14 14 14 14 15 15 15 16 16 15 15 15 15 15 15 15 14 14 14 13 13 12 12 11 10 10 10 10
7 8 7 8 8 8 8 9 9 9 10 11 11 12 14 13 14 14 15 15 15 15 15 15 16 16 16 16 16 15 15 15 15 15 14 13 12 12 11 11 11 10 10
7 7 7 8 9 10 8 9 9 9 10 10 11 12 13 13 14 14 14 15 15 15 15 15 16 16 16 16 15 16 16 16 16 15 15 13 12 12 12 12 12 11 12
7 8 8 8 9 9 9 9 9 11 11 10 11 12 12 13 14 14 14 14 15 15 15 16 16 16 16 16 16 16 16 16 16 15 15 14 13 13 13 12 12 13 12
7 7 7 7 8 9 9 9 9 9 10 10 10 10 12 12 13 13 13 14 15 15 15 16 16 16 16 17 17 17 19 19 18 18 14 14 15 15 15 14 14 13 14
7 7 7 7 8 8 9 9 9 9 10 10 9 10 11 12 13 13 13 13 14 14 15 15 16 16 16 16 17 17 19 19 18 19 15 14 15 15 14 15 15 14 14

GFSGL_con_lsi_015.txt.gz
Lid_Strength_Index
3 3 3 3 3 4 4 4 4 4 2 2 2 2 2 2 1 1 1 1 1 1 1 2 2 2 3 3 3 3 4 4 6 5 4 3 3 3 3 3 2 3 3
3 3 4 3 4 4 4 5 3 3 2 2 1 2 1 1 1 1 1 2 2 2 2 2 3 3 3 3 3 4 4 3 4 5 4 4 4 3 3 3 4 4 3
4 4 4 4 4 5 4 3 3 3 2 1 1 1 1 1 2 3 3 3 3 3 3 3 4 4 4 4 4 4 4 4 4 5 5 4 4 3 4 3 3 3 3
4 4 4 4 4 4 3 3 3 2 2 2 2 2 2 3 3 3 3 4 4 4 3 4 4 4 4 5 5 5 5 6 6 6 6 5 5 4 4 5 5 4 4
3 3 3 3 3 3 3 3 2 2 2 2 3 3 3 3 4 4 4 4 4 4 4 4 3 4 5 5 6 6 7 7 7 7 7 6 6 6 6 5 5 5 4
4 3 3 3 3 2 2 3 3 3 3 3 3 3 3 3 6 6 6 5 5 5 5 4 4 4 4 5 5 6 7 8 8 8 8 8 8 7 6 7 7 7 8
3 3 2 2 2 2 3 3 3 3 3 3 3 3 3 3 6 6 6 5 5 5 4 4 4 4 4 5 5 6 6 7 8 8 9 9 8 7 7 7 7 7 8
3 2 2 2 2 2 2 3 3 3 3 3 3 3 4 3 5 5 5 5 4 4 4 4 4 4 4 6 6 7 7 7 6 7 7 7 6 6 6 7 7 7 6
2 2 2 2 2 3 3 3 3 4 3 4 3 4 4 4 4 5 5 5 5 5 5 4 4 5 4 5 6 7 8 7 6 6 6 6 6 6 6 7 8 8 8
1 2 1 2 2 2 2 3 3 3 4 4 4 4 4 4 4 5 5 6 7 6 5 5 4 4 4 5 6 7 8 8 8 8 7 7 6 6 6 6 7 9 9
1 1 1 1 1 2 2 3 3 3 3 4 4 3 4 4 4 5 6 6 6 6 5 5 4 5 6 6 7 8 9 8 9 9 9 8 7 7 6 5 5 6 8
0 1 1 1 1 2 3 3 3 4 4 4 4 4 4 4 5 6 6 6 6 6 6 4 4 5 6 7 8 8 9 10 9 9 9 8 7 7 6 5 5 4 4
1 2 1 1 2 2 3 3 4 4 5 6 6 6 6 5 5 5 6 6 6 5 5 6 6 6 7 8 8 10 10 9 9 9 9 8 7 7 6 6 5 4 4
3 2 2 3 3 3 3 4 4 5 6 6 6 7 7 7 6 6 6 6 7 7 7 7 6 7 8 8 8 8 8 8 9 9 9 8 7 7 7 6 6 6 6
3 3 3 3 3 3 4 4 4 5 6 7 7 8 8 9 8 7 8 8 8 9 9 7 8 9 10 9 9 9 9 9 9 9 9 8 8 8 7 6 7 7 7
4 4 4 3 3 4 4 5 7 7 7 7 8 8 8 9 8 8 9 9 9 9 9 10 10 11 11 11 11 11 10 10 10 10 9 9 9 9 8 6 7 7 7
6 6 5 5 5 5 5 6 7 6 7 7 8 9 9 9 9 9 9 9 9 10 11 11 11 12 11 11 11 11 11 10 10 10 10 10 9 9 8 8 7 7 7
6 6 5 5 5 5 6 7 6 7 7 6 7 8 9 9 9 10 10 9 10 10 11 12 12 12 12 12 12 12 11 11 10 10 10 10 10 9 9 9 8 8 8
7 6 5 5 5 6 6 6 6 7 6 6 6 6 8 9 9 10 10 11 12 12 12 12 12 12 12 12 11 11 11 11 11 11 11 10 10 9 9 9 9 8 8
5 6 6 6 5 6 6 7 7 7 6 7 7 7 8 9 10 10 10 11 12 12 12 12 12 12 12 12 12 11 11 11 11 12 11 10 9 9 10 9 9 9 9
6 6 6 6 6 6 7 6 6 7 7 7 7 8 10 10 10 10 11 11 12 12 12 12 12 12 12 12 12 12 12 12 12 12 12 11 10 10 9 9 9 9 9
7 6 6 6 6 6 6 6 7 7 7 7 7 7 9 8 9 10 11 11 11 11 12 12 12 12 13 13 13 13 13 13 13 12 12 11 10 10 10 10 10 9 10
6 6 6 6 5 6 6 6 6 6 6 6 7 7 7 8 8 9 10 10 11 11 12 12 13 13 13 13 12 13 14 15 14 13 13 12 11 11 10 10 10 11 11
6 6 6 6 5 6 6 6 6 6 6 6 6 7 7 7 8 8 9 9 10 10 11 12 13 13 14 14 13 13 14 15 15 14 14 12 12 12 11 11 11 11 11
5 6 6 6 5 5 5 6 6 6 5 6 6 6 6 7 7 8 8 8 9 10 11 12 12 13 13 14 14 15 16 16 16 15 13 12 12 13 12 12 12 11 11
5 5 5 5 5 5 5 6 6 6 6 5 6 6 6 7 7 8 8 8 9 9 10 11 12 13 13 13 14 15 16 16 16 16 13 13 13 13 14 13 13 12 12

GFSGL_con_lsi_018.txt.gz
Lid_Strength_Index
4 4 4 4 4 4 4 4 4 4 3 3 2 2 2 2 2 2 1 2 2 2 2 2 3 2 3 3 3 3 3 4 6 5 4 4 4 4 4 4 3 3 4
4 5 5 4 4 4 4 4 3 3 3 3 3 2 2 2 2 2 3 3 3 3 3 3 3 3 4 4 4 5 5 5 6 7 6 5 5 5 5 5 4 3 4
5 5 5 4 4 4 4 3 3 3 3 3 3 3 3 3 4 4 4 4 5 5 5 5 4 4 5 5 5 5 5 5 6 7 7 6 6 6 6 6 5 5 4
5 5 4 4 4 3 3 3 2 2 3 3 3 3 3 4 4 4 4 5 5 5 5 5 5 5 5 5 5 6 6 7 8 8 8 8 7 6 6 7 7 6 6
5 5 5 4 4 3 3 2 2 2 3 3 3 3 4 4 5 5 5 6 6 6 6 5 5 4 2 4 6 7 8 9 9 9 9 9 8 9 8 7 7 7 6
4 4 3 3 3 2 2 2 2 3 3 3 3 4 4 4 5 5 6 7 6 6 6 5 4 3 3 3 3 4 6 8 9 10 10 11 10 9 8 9 10 10 11
3 2 2 1 2 2 2 2 3 3 3 4 4 4 4 4 5 5 5 6 7 7 6 6 5 4 4 4 5 5 5 5 7 9 10 10 10 9 9 10 10 11 11
3 2 2 1 1 1 2 2 2 3 4 4 4 4 5 5 4 4 5 7 7 7 7 7 7 6 5 5 6 6 7 7 7 7 8 8 8 8 8 7 8 8 9
4 3 2 1 2 1 2 2 3 3 4 4 4 5 6 5 4 3 5 7 7 8 7 6 6 7 5 4 5 6 7 7 6 6 6 6 6 6 6 8 9 10 11
3 2 1 1 1 2 2 2 3 3 4 4 5 5 4 5 3 4 5 7 9 8 7 6 5 5 5 5 6 6 8 8 9 9 9 8 7 7 6 7 8 10 11
2 2 2 1 2 1 2 3 3 4 5 6 6 6 5 5 5 5 5 7 7 8 7 7 6 4 4 5 5 7 8 8 9 10 10 10 9 8 7 7 7 8 9
3 3 2 1 1 1 3 3 4 5 6 7 8 7 6 6 5 6 6 6 6 8 8 7 6 6 5 6 6 6 7 8 10 11 11 10 9 8 7 7 6 6 6
4 3 2 2 2 3 3 5 6 6 7 8 7 8 7 7 8 7 7 7 7 9 8 8 7 6 7 7 7 7 8 10 10 10 10 10 9 8 8 8 8 7 7
4 4 4 4 4 4 4 5 6 7 8 8 8 9 9 9 9 9 9 9 8 9 9 9 8 8 8 8 8 8 9 9 10 10 10 9 8 9 10 8 8 9 9
4 4 5 5 5 5 5 6 6 7 8 9 9 9 11 12 11 9 9 10 9 9 10 9 9 10 10 10 10 10 10 10 11 11 10 10 10 9 10 8 9 10 10
6 6 6 6 6 6 6 6 6 7 7 7 8 10 10 9 8 8 9 9 8 9 10 11 12 12 12 11 12 12 11 11 11 11 11 10 10 10 10 8 8 11 11
6 7 7 6 6 6 6 7 7 6 6 6 7 7 7 8 8 9 9 9 8 9 12 12 12 12 12 12 12 12 12 11 11 11 11 11 11 10 10 10 9 9 9
6 7 6 6 6 6 7 7 7 7 9 8 7 7 8 7 8 9 9 10 12 11 12 12 13 13 13 13 13 13 12 12 12 12 11 11 12 11 10 11 10 10 10
6 7 6 7 6 6 6 6 7 7 7 7 8 8 10 8 8 8 9 12 13 13 13 13 13 13 13 13 13 13 13 12 13 13 13 12 11 11 11 11 10 11 11
6 7 7 7 7 6 7 7 7 7 7 7 8 10 11 12 12 12 12 13 15 14 14 13 13 13 13 13 13 13 13 13 13 14 14 13 12 11 11 11 11 11 10
6 6 7 7 7 7 7 7 7 7 7 8 8 10 14 13 12 13 13 12 15 16 16 14 13 14 14 14 13 14 14 15 15 15 15 14 13 12 11 11 11 10 11
7 7 6 6 6 7 6 7 7 7 7 7 7 9 12 12 12 13 10 13 12 15 15 15 14 14 14 14 14 15 15 17 17 16 16 15 13 13 12 12 13 15 12
7 6 7 7 6 6 7 6 6 6 6 7 8 8 8 8 12 12 13 11 11 12 15 15 16 15 15 15 15 15 16 17 17 16 17 17 14 14 14 15 14 16 17
6 6 6 6 6 6 6 6 6 6 6 6 6 7 8 8 11 12 13 11 13 12 13 16 15 15 15 16 16 16 16 17 17 17 17 16 15 15 14 15 16 15 18
6 6 6 6 6 6 6 6 6 6 6 6 6 6 7 7 10 11 12 13 13 14 13 16 15 15 15 15 16 16 17 17 18 18 17 15 16 17 17 16 18 16 19
6 5 6 6 6 6 6 6 6 6 6 6 5 6 6 8 10 10 12 13 13 14 14 15 15 15 15 14 15 15 17 17 17 17 17 15 16 17 18 18 18 17 18

GFSGL_con_lsi_024.txt.gz
Lid_Strength_Index
7 8 8 8 8 7 8 7 7 6 6 6 5 6 6 5 5 5 4 4 5 6 6 6 7 6 7 6 6 5 4 4 6 7 5 5 6 6 4 3 1 1 2
7 8 8 8 8 7 7 7 7 7 6 5 5 5 4 5 5 5 6 5 6 7 7 7 7 6 7 7 7 7 6 6 7 9 8 7 7 6 6 6 5 4 3
8 8 9 8 8 8 8 7 6 6 5 3 5 4 4 5 5 6 6 6 7 7 7 8 7 7 8 8 8 7 7 5 7 8 9 8 7 7 7 6 6 6 4
8 8 8 8 8 8 8 6 5 3 3 3 4 4 4 5 6 6 6 8 8 7 7 7 8 8 8 8 7 7 6 7 7 8 9 9 9 7 8 9 9 8 7
8 8 8 7 7 7 6 5 4 3 3 3 3 3 4 6 6 7 7 7 8 8 7 7 7 6 5 6 6 7 7 8 8 8 9 9 9 10 10 10 10 10 9
9 8 7 7 6 6 5 4 4 3 3 4 4 4 6 5 5 5 6 8 7 8 8 8 8 6 6 5 5 5 5 7 8 7 8 9 10 10 10 11 11 11 12
9 8 7 7 6 6 5 4 3 5 4 4 5 6 7 7 5 4 4 6 7 8 8 8 7 6 6 6 5 5 5 5 6 6 7 8 8 9 10 11 11 11 12
8 8 7 6 6 6 5 4 4 4 5 5 6 7 7 6 5 5 5 7 8 8 7 8 8 8 7 6 6 6 6 6 6 6 7 7 7 7 9 9 9 10 9
9 8 7 7 6 5 4 4 5 6 7 6 6 7 8 8 5 6 7 9 8 9 8 8 8 8 7 5 6 6 7 6 5 5 5 4 4 5 6 7 9 9 12
8 8 7 6 5 5 5 5 6 6 6 7 7 8 7 9 7 6 7 9 12 10 9 8 8 7 6 6 6 7 7 7 7 7 7 7 7 8 8 9 10 11 12
8 8 7 6 5 5 4 5 6 7 8 9 9 9 8 8 9 8 7 9 10 10 10 10 9 7 6 6 6 7 7 6 6 6 7 8 8 9 9 8 8 10 11
8 8 8 7 6 6 7 8 8 9 9 10 16 13 11 10 8 8 8 8 8 11 10 9 9 7 7 7 7 6 6 6 7 8 8 9 9 9 8 8 7 7 7
9 9 8 7 6 7 8 9 9 9 11 11 10 14 12 10 11 8 8 8 8 10 9 9 8 8 8 8 8 8 8 8 9 10 9 9 9 8 7 8 8 8 7
9 8 8 8 7 7 8 8 9 12 13 10 12 13 14 12 13 11 10 12 9 9 10 10 10 10 10 9 9 9 10 10 10 11 11 10 9 9 9 8 10 8 9
8 8 8 8 8 8 8 9 9 10 10 12 12 13 19 19 13 8 8 9 10 11 14 13 12 12 12 12 12 11 11 11 11 11 11 11 10 10 10 10 9 10 11
8 8 9 9 10 8 9 9 7 7 6 5 6 13 15 10 8 7 8 8 9 10 14 16 14 14 14 13 14 13 13 12 12 12 12 12 12 11 10 11 11 12 12
8 7 9 9 9 10 9 8 10 9 6 6 6 6 7 8 7 8 8 9 9 11 18 18 16 14 14 14 14 14 14 14 13 13 13 13 13 12 12 12 12 12 12
7 9 10 9 10 10 9 9 9 12 15 13 9 6 7 8 8 8 8 10 16 15 17 19 17 15 15 14 15 15 15 15 16 16 15 15 14 13 13 13 12 13 12
7 10 12 8 8 8 8 9 10 11 12 10 13 11 12 8 8 9 9 18 19 18 17 17 20 16 16 15 16 16 18 18 18 18 17 17 16 14 14 13 14 15 15
6 10 12 9 8 9 9 9 9 11 9 10 13 15 15 15 19 21 23 24 23 20 20 18 18 18 19 17 18 18 17 18 19 19 19 19 18 16 16 15 15 15 16
7 9 9 7 8 8 9 9 9 10 10 13 10 12 15 16 19 19 19 21 21 20 22 19 21 22 21 19 16 18 19 22 19 19 20 19 19 18 16 16 18 17 17
9 10 11 11 11 13 11 10 8 10 12 13 13 14 16 20 19 16 16 18 19 19 19 20 20 19 19 19 19 21 20 22 21 20 20 19 19 18 18 19 20 22 20
13 14 13 11 11 10 15 13 9 9 11 9 10 14 16 13 14 14 15 17 19 20 21 21 22 20 21 21 21 19 19 19 20 20 21 20 19 18 20 21 20 21 22
12 14 12 11 10 11 15 14 9 10 8 12 14 15 14 13 16 17 16 19 22 21 23 21 20 19 19 22 21 19 17 19 19 18 19 20 19 18 20 20 19 20 23
9 9 10 11 9 9 13 13 12 9 9 8 13 17 15 13 13 16 15 19 18 21 20 20 22 19 20 20 19 18 19 17 18 18 18 18 20 20 19 20 21 19 21
6 7 8 9 9 8 8 12 13 10 10 8 11 14 14 14 14 17 17 20 18 19 21 22 21 19 20 19 18 17 18 18 17 16 17 17 19 20 20 21 21 21 20

GFSGL_con_lsi_027.txt.gz
Lid_Strength_Index
8 8 8 8 8 8 8 8 8 8 8 7 6 6 6 6 5 5 5 5 6 7 7 7 7 7 7 8 7 7 8 8 9 7 6 5 6 7 5 6 5 4 3
8 9 9 9 9 9 8 8 8 8 7 7 6 5 4 5 4 5 5 6 7 7 7 8 7 6 8 8 8 8 8 7 8 9 8 8 7 7 7 7 5 4 5
9 9 9 9 9 9 9 8 8 7 7 6 6 4 5 4 4 5 5 6 7 7 7 8 8 8 9 9 8 8 8 6 7 8 8 8 8 8 8 7 6 7 6
10 9 9 9 9 9 9 9 8 7 6 6 4 5 4 4 5 6 7 7 7 7 7 7 8 8 8 8 8 8 6 7 7 7 8 8 8 7 8 9 9 8 9
9 9 9 9 8 8 8 7 7 6 5 4 4 5 4 5 6 7 7 7 8 8 7 7 7 7 5 5 7 7 7 7 7 7 8 8 8 9 9 9 10 10 9
10 10 9 9 8 8 8 7 7 5 5 4 4 5 7 6 4 4 5 7 7 7 8 7 7 6 6 6 6 5 6 7 7 7 8 9 9 9 9 9 10 11 12
10 9 9 9 9 8 8 7 6 6 5 5 6 7 7 7 5 5 5 7 8 8 8 8 8 7 7 8 7 6 6 4 5 6 7 7 8 8 9 9 10 11 11
10 10 9 9 9 8 8 7 5 5 7 7 8 7 8 7 6 6 6 9 9 9 9 9 9 9 8 7 7 6 7 5 5 5 6 6 7 7 8 7 8 8 9
11 11 10 9 9 8 7 7 6 7 8 7 7 8 9 9 7 7 7 10 9 10 9 9 9 9 7 6 7 7 7 6 4 4 4 5 5 5 5 6 7 9 12
11 10 10 9 9 8 8 7 5 6 7 7 8 8 8 10 8 7 8 11 14 10 9 9 8 8 7 6 7 8 8 7 6 6 7 7 6 7 6 7 9 11 11
10 10 10 10 9 8 8 7 7 8 8 10 9 9 9 9 10 8 8 11 11 10 10 10 9 8 7 7 7 7 7 6 6 6 6 6 7 7 7 8 9 10 11
10 10 10 9 8 8 9 8 8 9 9 10 17 14 11 11 9 8 8 8 8 11 10 10 9 8 8 8 8 7 7 7 8 8 8 8 7 7 7 7 7 7 8
10 10 9 9 8 8 9 9 9 9 12 12 11 15 12 10 11 9 8 8 8 11 10 9 9 9 9 9 9 8 9 9 10 10 10 9 8 7 7 7 7 7 7
9 8 8 9 8 8 8 8 9 12 13 11 12 13 14 13 13 12 10 12 10 10 12 12 12 10 11 11 11 10 11 10 11 11 11 10 9 9 9 8 9 8 9
8 8 8 8 9 8 8 9 8 9 10 12 12 13 20 20 13 8 9 11 14 12 16 17 16 13 13 13 13 12 12 12 12 12 12 12 11 10 10 9 9 9 11
7 7 8 9 10 9 8 8 6 7 6 6 6 13 15 10 8 7 8 9 9 10 16 19 21 19 16 14 15 14 14 14 14 13 13 13 13 12 11 10 11 11 11
7 7 7 8 9 10 9 8 9 9 6 6 6 6 6 7 7 8 8 9 10 12 19 20 23 21 20 15 15 15 16 16 15 15 15 15 14 13 12 12 12 12 12
7 7 7 8 7 8 8 8 9 10 14 13 9 7 6 7 7 8 9 11 16 16 18 20 22 21 19 16 15 16 16 17 18 18 17 17 16 15 14 13 13 14 14
6 7 8 9 8 10 8 10 9 9 13 12 14 12 12 7 8 8 9 18 19 19 18 18 21 19 20 19 21 19 20 19 20 20 19 19 19 16 15 14 15 15 15
6 7 8 10 9 9 9 10 9 9 10 10 14 15 14 15 19 21 22 24 24 20 20 18 18 19 22 21 24 24 21 21 19 19 20 21 20 19 17 17 16 17 17
6 7 7 8 10 10 10 10 9 9 9 12 14 16 15 15 16 17 15 20 19 19 20 19 21 23 22 23 20 23 24 25 20 20 20 20 21 20 18 18 18 18 17
7 8 9 11 12 15 13 12 12 12 12 11 13 14 16 18 14 15 16 16 17 17 18 19 19 19 19 19 20 25 24 25 23 21 21 20 19 19 19 20 20 22 19
8 11 12 12 12 13 16 14 13 12 10 10 9 13 17 16 15 15 15 15 18 19 18 20 21 20 21 23 24 21 22 22 21 21 21 21 19 19 20 22 21 21 22
7 10 11 12 15 12 13 14 15 13 12 10 10 13 13 15 15 16 15 16 21 20 23 20 19 18 19 23 24 22 19 22 21 19 20 20 19 18 19 19 20 21 22
6 7 9 9 10 10 9 10 13 13 12 11 12 11 12 14 15 15 16 17 18 21 19 19 19 19 18 19 20 19 21 19 21 20 19 18 19 21 20 19 21 19 21
5 6 6 7 9 9 9 9 10 11 12 11 9 11 11 11 11 12 14 17 18 18 18 21 20 18 19 19 19 19 20 20 22 20 21 17 18 19 20 20 20 20 19

GFSGL_con_lsi_030.txt.gz
Lid_Strength_Index
9 9 9 10 10 10 9 9 9 9 9 9 8 8 8 7 6 7 6 6 6 6 6 6 7 7 7 7 7 8 8 7 10 8 6 5 5 5 5 5 4 4 3
9 10 10 10 10 10 10 10 9 9 9 8 8 8 7 5 6 6 6 6 6 7 7 7 7 6 8 8 8 8 8 7 8 9 7 6 6 6 6 6 5 4 5
11 11 10 10 10 11 10 10 9 9 9 8 8 6 5 6 6 5 6 7 7 7 7 7 7 8 9 9 8 8 7 7 6 6 7 6 6 6 6 6 6 6 5
11 11 11 11 10 10 10 10 9 9 9 8 6 5 5 5 5 6 7 7 7 7 7 7 8 8 8 8 7 8 8 8 8 8 7 6 6 6 6 7 7 7 7
11 11 10 10 10 10 10 10 9 9 8 6 6 6 6 6 7 7 7 7 7 7 7 7 7 6 5 6 7 8 8 8 8 8 8 7 6 6 7 7 8 8 8
12 11 10 10 10 10 10 10 9 8 7 6 7 7 8 6 5 5 6 8 8 8 8 8 8 7 7 7 7 6 7 8 8 8 8 8 7 6 6 7 8 9 9
11 10 10 10 10 10 10 10 9 8 9 8 8 8 8 7 5 6 6 8 9 9 10 10 9 8 8 8 8 7 7 6 6 6 7 7 6 5 6 7 8 9 9
11 11 11 11 11 10 10 8 8 7 6 8 8 8 8 8 7 7 7 9 10 9 9 10 9 9 8 8 8 7 7 6 6 6 5 5 5 4 5 6 7 7 7
12 11 11 11 11 10 10 9 8 7 7 8 8 8 9 10 7 7 8 10 10 10 9 9 9 9 8 6 8 8 8 7 5 4 3 3 3 4 4 5 7 8 9
12 11 11 11 11 11 10 9 8 7 8 7 7 8 8 10 9 8 8 11 14 11 9 9 8 8 7 7 8 9 9 8 7 6 5 5 4 5 5 6 7 9 8
11 11 11 11 11 10 10 8 8 8 8 9 9 9 9 9 10 8 7 10 11 10 10 10 9 8 8 8 8 9 9 8 7 7 6 6 5 5 6 6 7 8 9
11 11 11 10 9 9 9 9 9 9 9 9 16 14 11 10 9 9 7 8 8 12 11 10 10 8 8 9 9 8 9 9 9 9 8 8 7 7 6 5 5 6 7
11 11 9 8 9 8 9 9 9 10 12 11 11 14 12 10 11 9 8 8 9 13 11 10 9 10 10 10 10 10 10 11 11 11 11 10 8 7 6 6 6 5 6
11 10 8 8 8 8 8 8 9 12 13 11 12 12 13 13 13 12 10 12 11 11 13 13 13 11 13 13 12 11 12 12 12 12 12 11 9 9 8 7 8 7 7
10 9 8 8 8 8 8 9 8 8 9 10 11 12 18 19 13 10 9 12 15 13 17 17 16 16 15 14 13 13 13 13 14 13 13 12 12 11 10 9 9 9 10
9 8 7 8 9 9 8 8 6 6 6 5 5 11 15 10 8 7 7 8 9 11 16 20 22 23 20 15 15 15 15 16 15 14 14 14 13 12 11 10 10 10 10
9 7 7 8 8 9 9 9 9 7 6 6 6 6 5 9 7 7 8 8 10 12 18 20 24 25 22 16 16 16 16 16 16 16 16 16 15 14 13 12 12 12 12
7 8 8 8 8 7 9 9 9 10 12 13 9 7 6 5 6 7 7 10 15 15 17 19 21 21 19 17 16 17 17 17 18 18 18 18 18 16 14 14 14 14 14
7 7 7 8 8 8 8 9 11 11 10 11 13 12 12 6 6 7 8 16 17 18 17 17 19 18 18 18 22 22 24 20 19 20 19 19 20 18 16 15 15 17 16
6 6 7 8 8 10 11 9 9 10 9 9 11 13 15 14 17 20 21 23 22 18 18 17 16 17 19 19 23 25 22 23 21 19 19 20 20 19 18 18 17 16 16
6 5 7 8 8 11 11 12 11 11 10 9 10 13 16 12 14 16 17 20 18 17 18 17 17 19 20 21 18 21 21 24 22 21 19 19 19 19 18 18 18 17 16
6 6 7 8 9 14 12 12 13 13 13 12 12 13 15 12 11 14 15 16 16 16 16 17 17 17 17 16 18 23 22 23 23 22 21 19 18 18 18 19 18 19 18
6 6 8 9 10 12 14 12 14 15 14 13 13 12 15 14 15 14 14 15 16 17 17 18 19 18 18 20 20 18 19 19 19 22 22 21 18 18 18 18 18 18 19
6 6 7 8 10 11 11 10 10 12 12 12 12 11 12 12 13 13 14 14 16 18 21 19 17 17 17 21 21 20 17 20 20 19 21 21 19 17 18 18 18 18 19
5 5 7 8 8 9 9 9 9 9 10 10 10 12 11 11 12 13 13 13 14 16 17 19 18 17 17 17 18 18 20 18 21 21 19 19 20 20 18 17 18 17 18
5 5 5 6 7 8 8 8 8 8 9 9 9 9 10 10 10 10 11 13 13 13 14 16 17 17 17 17 17 18 20 20 21 21 21 17 19 19 18 17 17 17 17

GFSGL_con_lsi_033.txt.gz
Lid_Strength_Index
6 6 6 6 6 6 7 6 6 6 6 6 6 5 5 6 5 4 3 3 3 3 3 4 4 3 4 4 4 4 5 5 8 6 5 4 4 4 3 2 2 1 1
6 7 7 7 7 7 7 7 7 7 7 7 6 6 6 5 4 4 4 3 3 4 4 4 4 4 4 4 5 5 5 5 6 7 5 5 4 3 3 2 2 2 2
7 7 7 7 7 8 8 8 7 7 7 6 5 5 6 6 4 3 3 4 4 4 4 4 5 4 5 5 5 5 5 6 6 7 7 5 5 4 4 3 2 2 2
8 8 8 7 8 8 8 8 7 7 6 6 6 6 5 4 4 4 4 4 4 4 4 5 5 5 6 6 6 6 6 6 7 7 7 7 6 5 4 5 4 2 3
9 8 8 8 8 8 8 8 7 7 7 6 6 5 5 5 5 4 4 4 5 6 6 6 6 6 7 6 6 7 7 8 8 8 8 7 7 6 6 5 5 4 3
9 9 8 8 8 8 8 7 7 7 7 6 5 5 5 5 5 5 5 5 6 7 7 7 7 7 7 7 7 7 7 8 8 8 7 7 6 5 4 5 5 6 6
9 8 9 9 9 8 8 7 7 7 6 5 5 5 5 4 6 6 6 6 7 7 8 8 8 7 7 7 7 6 6 6 6 6 7 6 6 5 4 5 4 5 5
9 9 9 9 9 8 8 8 7 6 5 4 5 5 5 6 7 7 7 7 7 7 7 7 8 8 7 7 6 7 7 7 6 5 4 4 4 3 3 4 4 4 4
10 9 9 9 9 9 9 8 7 5 4 5 5 5 6 6 7 7 7 7 7 7 7 7 8 8 8 7 7 8 8 8 6 5 4 4 3 3 3 3 5 5 6
10 9 8 8 9 9 8 8 6 4 4 5 6 6 7 6 8 8 7 6 7 7 7 8 8 8 8 8 8 8 9 8 8 7 6 4 3 3 4 4 5 6 7
9 9 8 8 9 8 8 7 6 5 5 6 6 6 6 6 7 8 8 7 7 8 8 9 8 8 8 8 8 8 9 8 8 8 7 5 5 4 4 3 4 5 6
9 9 8 8 8 8 7 6 6 6 6 6 7 6 6 6 7 7 8 7 7 8 9 9 9 9 9 9 9 9 9 9 9 9 8 8 7 6 5 4 4 3 4
9 9 8 8 8 7 7 6 7 6 6 6 6 6 6 6 6 8 8 7 8 8 8 9 10 10 10 10 10 10 10 10 10 10 10 9 8 6 5 4 4 3 3
9 9 8 8 7 6 6 6 7 6 6 6 6 6 6 6 6 6 6 6 8 8 9 9 11 11 11 11 10 10 10 11 11 11 10 9 8 7 7 6 5 5 5
9 8 8 7 7 6 6 6 6 5 5 6 6 6 6 6 6 7 7 6 7 8 10 10 10 11 11 11 10 11 11 12 12 11 11 10 9 8 8 7 7 6 7
9 8 7 6 6 6 6 6 6 6 6 6 5 5 4 6 7 7 6 7 8 10 9 10 11 12 12 12 11 12 12 13 13 12 12 11 11 10 9 8 7 8 8
9 8 6 6 6 6 6 6 6 5 5 5 5 5 5 5 7 6 6 7 8 9 9 10 11 11 12 12 12 12 12 13 14 13 13 12 12 11 10 9 9 9 9
8 7 6 6 5 6 5 5 5 6 6 6 5 6 5 5 5 5 6 7 8 9 9 9 10 10 10 11 11 12 12 12 13 14 13 13 13 12 11 11 11 11 10
6 6 6 6 5 5 5 5 6 6 6 6 6 7 6 7 6 5 6 7 7 8 8 9 9 9 10 10 11 11 12 13 14 14 14 14 14 14 12 12 12 13 12
5 6 6 5 6 5 5 6 6 6 6 6 6 6 5 9 7 6 7 7 8 8 7 8 8 9 9 9 10 11 11 11 13 13 13 14 14 14 14 13 12 12 12
5 6 6 5 6 5 5 6 6 6 6 7 6 5 7 7 6 6 6 7 8 7 7 7 8 8 8 9 10 10 11 11 12 13 13 13 14 14 14 13 13 13 13
5 6 6 6 5 5 5 5 6 6 7 7 6 6 9 8 7 7 6 6 6 7 6 7 7 7 8 8 9 9 11 11 11 12 13 13 13 13 13 14 14 13 14
5 5 6 6 5 6 6 6 6 6 7 7 7 7 6 7 7 7 6 6 6 7 7 7 8 8 8 9 9 9 10 10 10 12 13 12 12 12 13 14 14 14 14
6 6 7 6 6 6 6 6 6 7 7 6 6 6 6 6 6 6 6 6 6 7 7 9 9 8 8 9 9 10 10 10 10 11 14 13 12 12 12 13 13 14 14
6 6 6 5 5 5 5 6 6 6 5 6 6 6 6 6 6 6 5 6 7 7 8 9 9 9 10 10 10 10 11 12 12 14 12 12 12 13 13 12 13 13 14
6 6 6 6 5 5 5 5 5 5 6 5 5 5 6 6 5 5 5 6 7 7 7 7 9 10 10 10 10 11 14 14 13 15 12 11 12 11 11 12 13 12 13

GFSGL_con_lsi_036.txt.gz
Lid_Strength_Index
4 4 4 4 4 4 5 6 6 5 6 6 6 6 5 5 4 4 5 4 3 3 2 2 2 2 2 2 2 3 3 4 6 4 3 3 2 3 2 1 1 1 1
4 4 5 5 5 5 6 6 6 6 6 6 6 5 5 5 5 5 4 3 3 2 2 2 2 2 2 2 3 3 4 4 6 6 4 4 4 3 3 3 2 2 1
5 6 5 5 5 6 6 6 6 6 6 6 5 6 6 5 5 4 3 3 2 2 2 2 3 3 3 3 3 4 5 5 5 5 6 5 5 4 4 3 3 2 1
6 6 5 5 6 6 6 6 6 6 6 6 5 5 5 5 4 3 3 2 2 2 2 3 4 4 5 5 5 5 5 5 5 6 6 7 6 4 4 4 4 3 3
6 6 6 6 6 6 6 7 6 6 6 5 5 5 5 4 4 3 3 2 2 3 4 4 4 5 6 6 6 6 6 7 6 7 8 7 6 6 5 4 4 4 3
7 7 7 7 7 7 7 7 6 6 5 5 5 5 4 4 6 6 5 3 3 4 5 5 5 5 5 6 7 6 6 7 7 7 7 7 6 5 4 4 4 4 5
7 7 7 7 7 7 7 7 6 6 5 6 5 4 4 3 7 7 6 4 4 5 5 5 5 5 6 6 6 6 6 6 6 6 7 7 5 4 4 4 4 4 4
8 8 8 8 8 7 7 7 6 6 5 6 5 3 3 4 7 7 7 4 4 5 5 5 5 5 6 7 7 7 6 6 6 6 6 5 4 3 3 3 3 3 2
9 8 8 8 8 7 7 7 6 6 5 5 4 3 3 3 7 7 6 4 5 5 5 5 5 6 7 7 8 8 7 7 6 6 6 6 4 4 3 3 4 4 5
8 8 8 8 8 7 7 6 6 6 5 5 4 3 5 4 7 7 6 4 5 5 5 5 6 7 9 8 8 8 8 8 8 7 7 5 4 3 4 3 3 5 5
8 8 8 8 7 7 6 6 6 6 5 4 5 4 3 3 4 7 7 6 5 6 6 6 6 8 9 8 9 8 8 8 8 8 7 6 5 4 3 3 3 3 4
8 8 8 8 7 7 6 6 6 5 5 5 5 4 4 3 5 6 7 7 7 6 6 6 6 9 9 9 9 9 9 9 8 8 8 7 6 6 4 3 3 3 3
9 8 8 8 7 7 6 6 6 5 5 6 6 5 5 4 4 6 7 7 7 6 6 7 9 9 9 9 9 9 9 8 9 9 9 8 7 6 5 4 3 2 2
9 9 8 7 7 6 6 6 6 5 6 6 6 6 5 5 4 4 5 5 6 6 6 6 8 9 9 9 8 8 8 9 10 10 9 8 7 6 6 5 5 4 3
9 8 7 7 7 6 6 6 5 5 5 5 5 5 6 6 5 5 5 5 5 6 8 6 6 7 8 8 8 8 8 9 10 9 9 9 9 8 7 5 6 5 5
9 8 7 7 6 6 5 5 6 6 6 5 5 5 4 4 5 6 6 6 7 8 7 7 7 7 8 8 8 8 8 9 10 10 10 10 10 9 8 7 6 6 7
8 8 8 8 7 6 5 5 6 5 5 5 5 5 5 4 4 5 5 6 6 8 7 6 7 7 7 7 8 8 9 9 10 10 10 10 10 10 9 9 8 8 8
8 9 7 6 6 5 5 5 5 5 5 5 5 5 5 5 5 5 5 6 7 8 7 7 7 7 7 7 7 8 8 9 9 10 10 10 10 10 10 10 9 9 9
7 5 5 5 5 5 5 5 5 5 5 5 4 5 5 5 5 5 5 5 7 7 6 6 6 6 6 7 7 7 8 8 9 10 9 10 10 11 11 10 10 10 10
4 5 5 5 5 5 5 5 5 5 5 5 5 5 4 5 5 5 5 5 6 6 6 6 5 5 6 6 6 7 7 7 8 9 9 9 9 10 11 11 11 10 10
3 3 5 4 5 5 5 5 4 4 5 5 4 3 5 5 5 5 5 4 5 5 5 5 5 5 6 6 6 7 7 7 8 9 9 9 10 10 10 11 11 11 11
3 4 4 5 4 4 5 5 4 4 4 4 4 4 5 5 5 5 4 4 4 4 4 4 5 5 5 5 6 6 7 8 8 8 8 9 9 9 9 10 11 12 12
4 4 5 5 5 5 5 5 5 4 4 4 4 4 4 4 4 5 4 4 3 3 4 4 5 5 5 5 5 6 7 7 7 8 9 9 9 9 9 9 10 11 12
4 5 5 5 5 5 5 5 4 4 4 4 4 4 4 4 4 4 4 4 4 4 4 4 5 5 5 5 6 6 6 7 7 8 10 9 9 9 9 9 9 10 11
4 5 5 5 5 5 5 5 5 4 4 4 4 4 4 4 4 4 4 4 4 4 4 4 4 5 5 6 6 6 7 9 9 10 9 10 10 10 10 10 10 9 10
4 5 5 4 5 5 5 5 4 4 4 4 4 4 4 4 4 4 4 4 4 4 4 4 5 5 5 6 6 7 8 10 11 12 10 9 9 9 8 9 11 9 10

GFSGL_con_lsi_039.txt.gz
Lid_Strength_Index
3 4 3 4 4 4 4 4 5 5 5 6 6 6 5 5 4 4 4 4 4 4 3 3 2 1 1 1 1 2 2 3 5 4 3 3 3 3 2 1 1 1 1
5 4 4 5 4 5 5 5 5 6 6 6 6 6 5 5 5 5 5 5 5 4 3 3 2 2 2 2 2 3 3 3 4 6 5 4 4 3 3 3 3 3 2
5 5 5 5 5 5 5 5 6 6 6 6 6 6 6 6 6 5 5 5 4 4 3 3 2 3 3 3 4 4 4 4 4 6 6 4 4 3 4 4 3 3 3
5 5 5 5 5 5 6 6 6 6 6 6 6 6 6 5 5 5 5 4 4 3 2 3 3 3 4 5 5 5 5 6 6 6 6 6 5 4 5 5 5 3 4
5 5 5 5 5 6 6 6 6 6 6 6 6 6 5 5 5 5 4 4 4 3 3 3 3 4 5 6 6 6 7 7 7 7 7 7 6 6 6 5 5 4 3
6 6 6 6 6 6 6 6 6 7 6 6 6 6 6 6 9 8 7 5 4 4 4 3 4 4 4 5 5 6 6 8 8 7 7 7 7 7 5 5 4 5 5
6 6 7 7 7 7 7 7 7 7 6 6 6 6 5 5 8 8 8 5 4 3 3 4 4 4 4 5 5 6 6 6 6 6 7 7 7 6 6 5 5 4 4
7 7 7 7 7 7 7 7 7 6 6 6 6 6 6 6 8 8 8 5 3 3 3 4 4 5 5 7 7 7 7 6 6 6 6 7 6 6 5 4 4 3 2
8 8 8 7 7 7 8 8 7 7 6 6 5 6 5 4 7 7 7 4 4 4 4 4 4 5 6 7 8 8 7 7 5 5 6 6 5 5 4 4 5 5 5
9 8 8 7 8 8 8 7 7 6 6 6 6 5 5 4 7 6 7 4 5 4 4 4 6 7 8 8 8 8 9 8 8 8 7 6 5 5 4 4 4 5 5
8 8 8 8 8 8 8 7 6 6 6 6 6 5 4 4 4 6 6 5 5 5 6 5 5 7 8 8 8 8 8 8 8 7 7 7 6 5 5 3 3 3 4
8 8 8 8 8 8 8 7 6 6 6 6 6 5 4 4 4 5 6 6 6 6 6 5 5 7 8 8 8 8 9 8 7 7 8 8 7 7 5 4 3 2 2
9 9 8 8 7 7 7 6 6 6 6 6 6 5 5 4 3 4 5 6 6 6 5 5 7 7 7 7 7 8 8 7 8 9 9 9 8 6 5 4 3 2 2
9 9 8 7 7 6 6 6 6 6 6 6 6 6 5 4 4 3 4 5 6 5 5 5 6 6 7 7 6 6 6 7 8 8 9 8 7 7 7 5 5 4 4
8 8 8 7 7 6 5 5 5 4 5 5 5 5 4 5 4 4 4 4 4 5 6 6 6 6 6 6 6 6 6 7 8 8 8 9 9 8 8 6 6 5 6
9 8 8 7 7 6 5 5 5 6 6 5 5 5 3 4 4 5 5 5 6 6 7 7 6 6 6 7 7 7 6 7 8 8 8 9 9 9 9 8 7 7 7
9 8 7 8 6 6 6 5 6 4 5 5 5 5 4 4 4 4 4 5 5 6 8 7 6 6 6 6 6 6 7 7 7 8 8 8 9 10 9 9 8 8 8
7 8 6 4 4 5 5 4 5 4 5 4 5 4 4 4 4 4 5 5 6 6 7 7 6 6 6 6 6 6 6 7 7 8 8 8 8 9 10 10 9 9 9
5 4 3 3 3 4 4 4 5 5 5 4 4 4 4 4 4 4 5 5 6 6 6 6 5 5 6 6 5 6 6 7 7 7 7 8 8 9 9 10 10 10 9
3 5 5 3 3 4 4 4 4 4 4 4 4 4 3 4 4 4 4 4 5 5 5 5 5 5 5 5 5 6 6 7 7 7 7 7 7 8 9 9 10 11 10
2 2 4 3 3 3 4 4 4 4 4 4 4 3 4 4 4 4 4 3 4 4 4 5 4 4 4 5 6 6 6 6 7 7 7 7 8 9 8 8 9 10 10
2 2 2 3 3 3 4 4 3 4 4 4 4 3 4 4 4 4 4 4 3 3 3 4 4 4 4 5 5 5 6 7 7 7 7 8 8 8 8 8 9 9 10
3 3 4 4 4 4 4 4 5 4 4 4 4 3 3 3 3 3 4 4 3 3 3 3 3 4 3 4 4 5 6 6 6 6 8 8 8 8 8 8 8 9 10
3 4 4 4 4 4 4 4 4 4 4 4 4 4 3 3 3 3 3 3 3 3 4 3 3 4 4 4 4 5 5 5 6 7 8 9 8 8 8 8 8 9 9
4 4 4 4 4 4 4 4 4 4 5 4 4 4 3 3 3 3 3 3 3 4 4 4 4 4 4 4 4 5 5 6 7 7 8 9 9 9 10 9 9 9 9
4 4 4 4 4 5 5 5 5 5 5 4 4 3 3 3 3 3 3 3 3 3 3 4 4 4 5 4 4 5 5 7 8 9 8 8 9 8 8 8 9 9 9

GFSGL_con_lsi_042.txt.gz
Lid_Strength_Index
3 3 4 5 5 5 5 6 7 6 6 7 7 7 7 7 7 8 8 7 7 6 6 6 6 5 5 4 4 4 5 5 7 6 5 5 6 6 5 4 4 4 4
4 5 5 5 5 5 6 7 7 6 6 7 7 7 7 7 7 7 7 7 7 7 7 7 5 5 5 5 5 6 6 6 7 8 7 7 7 6 6 5 4 3 4
5 5 5 5 6 6 6 7 6 6 7 7 7 7 7 7 8 7 7 6 6 7 7 6 6 6 6 6 7 7 7 6 7 8 9 7 7 6 6 6 5 5 4
5 5 6 5 5 6 6 6 6 7 7 7 7 7 7 7 7 6 6 7 8 7 7 6 6 6 7 7 7 8 7 8 8 9 9 9 8 7 6 7 7 6 6
5 6 6 6 5 6 6 6 6 7 7 7 7 7 7 7 7 8 8 8 8 8 7 5 5 5 4 5 7 8 8 9 9 10 10 9 8 8 9 7 8 7 7
5 6 6 6 6 6 7 7 7 7 7 7 7 7 8 7 9 9 9 10 8 7 8 6 6 4 4 4 4 5 6 9 9 9 9 9 9 8 7 9 9 9 9
6 6 6 6 6 7 7 7 8 8 7 8 8 8 7 7 9 9 9 9 8 8 7 7 6 5 6 7 6 6 7 6 7 8 9 8 8 8 9 9 9 9 8
6 7 6 7 8 7 8 8 7 7 7 8 8 8 8 7 8 8 8 10 8 7 6 6 6 6 8 8 8 9 8 8 8 7 7 8 8 8 8 8 8 7 6
7 7 8 8 8 8 8 8 8 8 8 8 7 7 8 8 8 8 9 9 8 7 6 6 6 7 7 7 9 9 9 9 6 6 6 6 5 5 5 6 8 8 8
8 8 8 8 8 8 8 8 8 7 7 8 8 8 7 7 7 7 8 9 8 7 6 6 6 7 7 7 10 10 11 10 9 9 8 7 7 6 5 5 6 7 7
8 8 8 8 8 8 8 8 8 8 8 9 9 7 7 6 6 6 6 8 8 7 7 7 7 6 7 7 8 10 10 9 9 9 8 8 7 7 7 6 6 6 6
8 8 8 8 9 9 9 8 8 8 9 8 8 8 8 6 5 6 6 6 6 9 7 7 7 6 6 7 8 7 7 8 10 11 10 9 9 8 7 7 5 5 4
8 9 9 9 8 8 8 8 8 8 8 8 8 8 6 6 6 5 5 5 6 8 7 6 5 6 6 7 6 6 8 9 11 13 11 10 9 8 7 7 6 5 4
9 9 8 8 8 8 8 8 8 8 8 7 7 7 6 7 7 7 7 6 5 6 7 6 7 8 9 9 9 7 8 9 11 12 12 10 9 9 9 8 8 7 7
9 8 8 8 8 8 7 6 7 6 6 6 6 6 6 6 6 6 6 5 5 5 9 9 9 8 8 9 9 8 9 9 10 11 12 11 10 9 10 9 8 8 8
8 8 9 9 8 7 6 6 5 5 5 5 5 6 6 5 5 5 4 5 5 6 9 11 11 10 9 10 10 10 10 10 10 10 11 10 10 11 10 9 8 8 9
9 9 8 8 7 7 7 6 7 5 4 4 5 4 4 5 4 4 4 4 4 6 9 10 10 8 9 9 10 10 11 10 10 10 11 11 11 10 11 10 10 9 10
7 7 6 6 5 5 5 6 5 6 6 6 4 5 4 4 4 4 4 4 7 6 7 9 9 8 7 8 9 9 10 11 11 11 13 12 13 12 10 12 11 11 11
5 5 5 5 5 6 5 5 5 5 5 6 5 6 6 4 4 4 4 6 8 8 7 7 7 7 6 8 10 9 12 13 13 14 13 12 14 12 13 11 13 12 12
4 5 6 5 5 5 5 4 5 5 5 5 5 5 5 7 6 6 6 6 7 7 7 7 7 7 6 6 9 9 10 10 11 11 13 14 13 13 13 14 13 15 12
4 4 5 5 5 4 4 4 4 4 5 5 5 5 5 5 5 5 5 5 6 6 6 6 7 7 6 6 8 9 8 9 10 11 12 13 15 15 11 12 13 13 12
5 5 5 5 4 4 4 4 5 5 6 6 5 5 4 4 5 5 5 5 4 4 4 4 5 6 6 6 7 8 8 9 10 12 12 13 14 13 12 13 12 14 13
6 6 5 5 4 5 5 5 5 5 6 5 5 5 5 5 5 5 4 4 4 4 4 4 4 5 5 6 6 6 7 8 9 11 12 14 14 13 14 14 14 13 15
7 7 6 6 5 5 5 5 5 6 6 5 5 4 4 5 4 4 3 3 3 4 4 4 4 4 5 5 5 6 7 8 8 10 12 14 14 13 13 14 14 14 15
7 7 6 6 5 5 5 6 6 6 5 5 5 5 4 4 4 4 4 3 3 3 3 3 3 4 4 5 5 6 7 7 9 11 10 13 15 15 15 15 16 14 14
7 7 6 6 5 5 6 7 7 7 8 8 7 7 7 6 5 4 4 4 4 4 4 3 3 3 4 4 5 6 7 8 9 11 10 11 12 14 15 13 15 15 13

GFSGL_con_lsi_045.txt.gz
Lid_Strength_Index
5 6 6 7 6 5 6 6 7 8 8 8 8 8 8 9 9 9 9 9 10 10 9 9 9 8 9 9 8 8 8 8 10 8 7 7 7 7 6 6 5 6 5
5 6 6 6 5 6 6 7 7 8 7 8 8 8 8 9 9 9 9 9 9 9 9 9 9 8 9 9 9 9 9 8 9 10 9 8 8 7 7 7 6 5 5
6 6 5 5 5 7 6 6 7 8 8 8 8 8 8 9 9 9 9 9 9 10 10 10 10 10 10 10 9 9 9 7 9 10 10 8 9 8 8 7 7 6 5
6 6 6 6 6 6 7 7 8 8 9 8 8 8 8 8 8 8 9 10 10 10 10 10 9 10 10 9 9 9 8 9 9 10 10 10 9 8 8 9 8 7 7
6 6 6 5 6 6 7 7 7 8 8 8 8 8 8 8 8 9 10 10 11 11 10 9 8 7 4 6 8 9 9 10 10 10 10 10 9 9 9 7 9 9 9
6 6 7 6 7 7 7 7 8 8 8 8 8 8 8 8 9 9 10 12 10 10 10 9 8 6 6 5 5 6 7 10 11 12 11 11 10 9 9 10 10 11 11
7 7 7 6 7 8 8 8 9 9 9 9 9 8 8 9 9 9 10 11 10 10 9 9 8 6 7 8 7 7 8 7 8 10 10 10 10 9 9 10 10 10 10
8 7 8 8 8 8 8 8 9 8 8 9 9 8 8 8 9 9 9 10 9 9 8 8 8 8 8 8 9 9 9 9 9 9 10 10 9 8 8 8 8 8 8
8 9 9 9 9 9 9 9 8 9 8 9 8 8 8 9 8 8 8 9 9 9 7 7 7 9 7 7 9 9 10 9 8 7 7 6 6 5 6 6 8 9 10
9 9 9 8 8 9 9 9 8 8 9 8 9 8 8 9 7 6 7 9 9 9 8 7 7 8 7 7 10 11 12 10 9 10 9 8 7 7 6 7 8 9 9
9 8 8 8 8 8 9 9 9 9 9 10 10 9 8 7 7 5 5 8 9 9 8 8 8 6 6 6 6 10 11 9 9 9 10 9 8 8 7 7 7 8 8
9 9 8 8 8 8 8 8 8 9 10 9 10 9 8 6 5 4 4 5 7 9 8 8 8 5 5 5 6 7 6 7 12 11 11 11 10 9 9 8 7 7 6
9 9 9 8 7 7 9 9 9 9 9 8 8 9 8 7 7 4 4 5 5 7 8 8 6 5 5 6 6 6 8 10 12 14 13 12 11 9 8 8 8 7 6
9 9 9 8 8 8 8 8 8 10 10 9 9 8 9 8 8 9 7 6 5 6 7 8 9 8 10 9 9 8 8 10 11 12 13 12 10 10 10 9 10 9 8
9 8 8 8 8 8 7 7 8 8 9 9 9 8 9 10 7 6 7 7 8 7 8 8 9 11 10 9 9 9 10 10 11 13 13 12 11 10 10 10 9 9 11
9 9 10 10 9 8 8 8 6 6 5 5 4 7 6 4 4 4 4 4 4 5 9 12 16 16 13 10 9 11 12 12 11 11 13 12 12 12 11 10 9 10 11
10 9 9 8 8 8 8 8 8 7 5 4 4 4 4 4 4 4 4 4 4 5 11 12 15 13 12 9 8 10 11 11 11 12 13 14 13 11 11 11 11 11 11
9 8 8 8 8 7 7 7 7 8 8 7 6 4 4 4 4 4 4 5 8 6 7 9 11 11 10 9 8 10 11 13 13 13 15 17 18 15 14 12 11 15 12
8 8 7 7 7 7 6 6 6 7 8 7 6 7 7 4 4 3 4 6 7 8 8 7 8 9 9 8 9 10 13 15 16 18 17 17 18 15 16 13 13 14 15
5 6 6 6 6 6 6 6 6 6 5 5 6 7 7 9 8 6 5 5 6 7 7 8 8 8 8 7 7 10 12 15 15 17 17 16 20 18 17 16 16 16 13
7 7 8 7 7 6 7 6 5 5 5 5 7 7 8 6 5 7 7 6 6 6 6 6 6 7 7 7 8 9 9 11 11 12 14 17 21 17 16 15 17 13 13
9 9 9 9 8 8 7 6 5 7 9 9 8 7 7 5 5 5 5 5 5 5 5 5 6 6 6 6 7 9 10 11 11 13 15 17 16 17 17 16 17 16 15
11 11 10 9 9 8 7 6 6 7 7 9 9 8 8 6 5 5 5 5 4 4 4 4 4 5 5 5 5 6 8 9 9 10 13 15 16 17 18 17 17 17 17
11 10 10 8 8 7 7 8 6 6 8 8 7 7 6 5 5 5 5 4 3 3 3 3 4 4 4 5 5 6 6 7 8 9 12 14 14 15 18 17 17 18 18
12 12 11 11 10 10 9 9 8 8 9 11 11 11 9 8 8 7 6 5 4 3 3 3 3 3 4 4 4 5 6 7 9 10 12 14 15 17 18 18 19 17 18
14 13 14 13 12 11 11 10 10 10 11 11 11 12 11 10 10 9 9 9 10 9 5 4 3 3 3 3 4 5 6 6 9 10 10 12 13 15 18 18 18 18 16

GFSGL_con_lsi_048.txt.gz
Lid_Strength_Index
6 6 6 6 6 5 6 6 8 7 7 7 8 8 9 9 9 10 10 10 10 11 10 11 10 10 11 11 11 11 11 11 12 11 9 9 9 8 7 7 6 6 6
7 7 7 6 5 6 7 7 7 7 7 8 8 8 8 9 10 10 10 10 10 10 10 10 10 9 12 11 11 11 11 10 10 11 10 9 9 8 8 9 7 5 6
6 6 6 5 6 6 6 7 7 7 8 9 8 9 9 9 9 10 9 10 10 10 10 10 11 11 12 11 11 11 11 9 10 10 10 9 10 9 9 8 8 8 6
6 6 6 5 6 6 7 8 8 8 9 9 9 8 8 9 9 8 8 9 10 10 9 10 10 11 11 11 10 11 10 10 9 10 10 10 10 9 9 10 9 8 8
6 6 6 6 7 7 8 8 8 8 9 9 8 8 8 8 8 9 9 10 10 10 10 10 9 8 6 7 9 10 9 10 10 10 10 10 10 10 11 9 10 10 9
6 7 7 7 7 7 8 9 8 9 9 8 8 8 8 8 8 8 9 10 10 11 11 9 9 7 6 5 6 6 7 10 11 12 11 12 11 10 10 10 11 11 11
8 8 8 7 7 8 8 9 9 9 9 9 9 9 9 8 8 7 8 10 10 10 9 9 8 7 7 8 7 7 7 7 8 10 11 11 12 11 10 10 10 10 10
9 9 8 8 9 9 9 9 9 9 9 9 9 9 9 7 7 7 8 9 9 9 8 7 9 9 8 8 9 9 9 9 9 8 9 10 10 9 8 8 7 7 8
9 9 9 9 9 9 9 9 9 9 9 9 8 8 8 8 7 6 7 9 9 8 7 7 8 8 7 6 8 9 9 9 7 6 6 6 7 7 6 7 9 10 11
10 9 9 9 8 9 9 9 9 9 9 8 8 8 8 7 5 5 6 9 9 8 7 8 6 7 6 7 9 10 11 10 9 9 9 9 8 8 7 8 9 10 10
8 8 8 8 9 9 9 9 9 9 9 9 9 8 7 7 7 5 5 8 8 8 8 8 8 6 6 6 5 9 10 8 8 8 9 9 9 9 8 8 8 9 10
8 9 9 9 8 8 9 9 9 9 10 9 11 9 9 7 6 5 4 4 6 8 8 7 8 6 5 5 6 6 5 7 10 11 11 11 11 10 9 9 8 8 8
10 10 10 9 9 9 10 10 10 9 10 9 9 9 9 8 7 5 4 4 4 7 7 7 6 6 5 6 5 5 7 9 12 14 12 12 11 10 8 8 8 8 8
11 10 10 10 10 9 9 9 9 11 12 9 9 9 9 9 8 8 7 6 4 5 7 7 8 7 10 9 9 8 8 10 11 12 13 13 11 10 10 10 11 9 9
10 10 10 10 10 10 9 8 8 8 8 9 9 9 10 10 8 6 6 7 7 6 8 9 8 9 9 9 9 9 9 10 11 12 13 13 12 11 11 9 10 10 11
10 10 11 11 11 10 9 8 6 6 6 6 6 8 7 6 5 4 4 4 4 5 7 10 9 11 10 10 10 10 10 11 10 11 13 12 13 13 12 10 10 12 12
11 11 11 10 10 9 9 8 8 6 6 5 5 5 4 4 4 4 3 3 4 5 8 10 11 12 12 11 10 10 10 10 11 11 11 13 14 13 13 12 12 12 12
10 10 10 10 9 9 8 8 7 8 7 7 6 5 4 4 4 3 3 4 5 5 7 7 9 10 10 10 10 10 9 12 12 12 13 16 19 16 15 14 12 17 14
11 10 9 9 8 8 7 7 6 6 6 6 5 7 6 5 4 4 3 5 6 8 7 7 7 8 9 9 9 10 11 12 12 15 15 16 20 16 17 15 15 15 15
11 11 11 10 9 9 9 9 8 7 7 6 6 7 10 11 11 8 6 5 5 6 7 7 7 7 7 8 9 9 12 12 12 13 17 19 21 18 18 18 18 17 14
14 13 12 11 10 10 10 10 9 9 8 7 6 7 10 11 7 6 5 6 5 5 6 7 7 7 6 7 8 8 9 10 10 11 13 15 20 18 17 18 18 15 14
13 13 11 10 10 10 10 8 8 7 7 7 6 7 10 12 7 6 6 5 4 5 5 5 6 6 6 6 6 7 8 9 10 11 13 15 15 16 18 18 19 19 17
13 13 13 12 12 12 11 9 9 9 8 6 7 8 9 8 8 7 6 4 4 4 4 4 5 5 5 5 5 5 7 8 8 10 12 15 16 16 20 18 18 19 19
15 14 16 15 15 15 13 12 11 10 11 10 11 10 11 11 11 9 9 9 8 9 5 3 4 4 3 4 4 5 5 5 7 9 9 12 14 16 18 18 18 20 20
17 17 18 18 17 16 16 14 14 14 13 13 12 12 11 11 12 13 12 11 11 11 10 10 5 3 3 3 4 5 5 5 7 7 9 10 12 14 15 16 19 18 20
18 18 19 19 18 18 18 17 17 17 16 15 14 14 14 13 14 14 13 13 13 12 11 10 9 6 2 3 3 4 5 5 6 8 9 10 12 14 14 14 17 19 17

GFSGL_con_lsi_051.txt.gz
Lid_Strength_Index
6 8 8 7 7 7 7 7 8 8 7 7 8 8 8 9 9 10 10 10 10 11 11 11 11 11 12 11 11 12 13 13 14 13 11 11 10 10 9 8 7 8 7
7 7 8 7 7 8 8 8 7 7 7 8 7 8 8 9 9 10 10 10 11 11 11 11 11 10 11 11 12 12 12 12 12 13 11 11 10 9 9 9 7 6 8
7 8 8 8 7 8 7 7 7 8 8 8 8 9 9 9 9 10 11 10 10 10 10 11 10 10 10 11 11 11 12 10 11 11 11 10 10 9 9 9 9 8 7
8 7 7 7 7 7 7 8 8 9 9 9 9 9 9 9 9 9 9 9 9 10 10 10 9 10 10 10 10 11 10 11 11 11 10 10 10 9 9 10 10 9 9
7 6 6 6 7 7 8 9 9 8 8 9 9 9 9 9 9 9 9 10 11 10 9 9 9 8 6 7 9 10 10 11 11 11 11 11 10 10 11 10 11 11 9
6 6 7 8 8 8 8 8 8 8 9 9 9 9 9 9 9 8 9 10 9 9 9 9 8 6 6 4 4 6 8 10 11 12 11 11 11 11 11 12 12 11 11
8 8 8 8 8 8 8 9 9 9 8 9 9 8 9 9 7 7 7 9 9 9 9 9 8 7 6 7 6 6 7 7 8 10 12 11 12 10 10 10 10 10 10
9 9 9 9 9 9 9 9 8 8 9 10 9 9 9 8 7 6 6 8 9 9 9 8 7 7 7 8 9 9 9 9 9 9 10 10 9 9 9 8 8 8 9
10 10 9 8 9 9 8 9 9 9 10 9 9 9 9 9 6 6 6 8 9 9 8 8 7 8 6 5 8 9 9 9 7 6 6 6 6 6 7 9 11 10 11
10 9 9 9 8 8 9 9 9 10 9 9 9 9 8 9 6 5 5 9 9 9 8 8 5 6 6 6 9 10 11 9 9 9 9 8 7 8 7 9 10 11 11
8 8 7 8 9 9 10 10 10 10 10 11 10 10 9 8 7 5 4 8 8 8 8 8 7 6 5 6 6 9 10 8 8 9 8 9 9 9 8 8 9 10 11
9 9 10 10 10 10 10 10 10 11 11 11 13 10 9 8 6 6 5 5 6 8 8 7 7 5 5 5 6 6 5 7 9 10 11 11 11 10 9 9 8 8 8
11 11 11 11 10 10 10 11 11 11 12 11 10 10 9 8 9 6 5 5 5 7 7 6 6 5 5 6 5 5 7 9 10 14 12 12 12 10 9 8 8 8 8
13 13 12 12 11 10 10 10 11 12 12 10 10 9 9 9 9 9 8 8 5 5 6 5 6 6 7 8 8 7 9 9 10 11 12 13 12 11 11 10 11 10 10
13 12 12 11 11 11 10 10 10 9 9 8 8 8 8 9 8 7 8 9 8 7 7 6 7 8 8 8 9 9 9 10 11 13 13 13 12 11 12 11 10 10 13
12 12 12 12 12 11 11 10 8 8 7 6 6 6 6 6 5 5 5 4 4 4 7 8 8 8 8 9 9 9 10 11 10 11 13 12 12 13 13 12 11 13 13
12 11 11 11 11 11 10 10 11 9 6 5 5 5 5 5 4 4 4 4 4 4 6 8 8 8 9 9 9 9 10 10 10 11 12 13 12 13 14 13 13 13 13
13 12 13 13 12 12 12 11 10 10 10 9 6 5 5 4 4 4 4 4 5 5 5 7 9 9 9 9 9 9 9 10 12 12 13 12 15 15 15 14 14 17 15
14 14 14 14 14 14 13 12 11 11 10 10 9 8 6 4 4 4 4 5 6 6 5 6 7 7 8 8 8 9 9 10 14 15 13 13 16 15 17 15 16 16 17
14 15 15 14 14 13 12 12 10 11 10 10 10 9 8 7 6 7 10 10 7 5 5 7 6 6 7 8 8 9 10 11 13 13 13 13 15 17 17 18 20 19 15
15 15 16 14 14 13 13 13 12 12 13 12 11 9 8 7 6 7 6 5 5 5 5 6 6 6 6 7 7 8 8 10 10 11 11 13 16 18 17 18 19 17 15
16 16 16 16 15 15 15 14 13 13 13 13 13 12 11 11 10 8 7 7 7 5 4 4 5 5 6 6 6 6 7 8 9 9 11 11 13 15 17 19 20 20 18
18 18 18 17 17 18 17 17 16 16 15 15 14 14 13 13 13 13 12 11 11 11 10 9 6 4 5 5 5 5 6 7 7 8 9 11 13 15 19 19 19 20 20
19 20 19 20 20 19 20 19 18 18 18 17 17 16 16 14 14 14 14 14 14 13 11 11 10 10 5 4 4 4 4 4 5 7 8 10 12 14 16 19 19 21 21
22 23 24 22 22 21 21 20 20 20 20 20 19 18 17 16 15 15 15 15 15 14 13 12 11 11 10 10 4 4 4 4 5 6 7 9 11 12 13 15 18 18 20
21 22 23 24 24 23 23 22 22 21 21 21 20 20 18 17 16 16 15 16 16 15 14 13 12 12 11 9 7 3 4 4 5 6 7 8 10 11 13 14 15 17 15

GFSGL_con_lsi_054.txt.gz
Lid_Strength_Index
4 5 6 7 8 8 7 8 8 8 8 8 8 8 9 9 9 9 10 11 11 11 10 11 11 11 11 11 10 10 10 10 12 10 10 9 9 9 8 8 7 7 6
6 7 8 8 8 7 8 8 8 7 7 7 8 9 9 9 9 10 10 10 11 11 10 10 10 9 10 10 10 10 10 10 11 11 10 9 9 9 9 9 7 6 6
7 8 7 7 8 8 8 8 7 7 8 9 8 8 9 9 9 9 10 10 10 10 9 9 10 10 10 10 9 10 10 9 10 11 10 9 9 9 8 7 7 7 6
7 7 7 7 8 8 8 7 7 9 9 9 9 8 8 9 9 9 10 10 10 9 9 9 10 10 9 9 9 9 10 10 10 10 10 10 10 9 8 9 9 8 8
8 8 8 7 7 7 7 8 8 8 10 8 8 8 8 9 9 9 10 10 9 9 9 9 9 8 6 7 9 9 10 10 10 10 10 10 10 10 10 9 10 9 9
8 8 8 8 8 8 8 9 9 8 8 8 9 9 9 9 8 8 8 9 9 10 10 9 9 7 6 5 4 4 8 10 10 11 11 11 11 10 9 10 10 10 11
9 9 8 9 9 9 9 9 9 8 8 9 9 9 10 9 8 7 7 9 9 10 9 9 9 7 6 7 6 5 5 6 8 9 10 10 11 9 9 10 9 9 10
10 10 10 9 9 9 8 8 8 8 8 9 10 10 10 9 7 7 7 8 10 9 9 9 9 8 8 7 8 8 8 8 8 8 9 9 9 8 8 8 8 8 8
10 10 9 9 9 8 8 8 8 9 10 11 10 10 10 10 8 7 7 9 9 9 8 8 8 8 6 5 8 9 9 8 7 6 6 6 6 5 6 8 10 10 11
9 9 8 7 7 8 8 9 10 11 11 11 10 10 9 10 8 7 7 9 9 8 8 8 6 7 6 6 8 9 10 9 8 9 9 8 6 7 6 7 8 11 11
8 7 7 8 9 10 11 12 12 12 12 11 11 11 10 10 9 7 5 7 7 8 8 8 8 6 5 5 5 8 9 8 8 9 9 8 8 8 8 7 7 9 10
9 10 10 11 11 12 13 13 12 12 12 11 13 11 10 9 8 7 5 5 6 7 8 8 7 6 5 5 5 5 6 7 8 9 9 10 9 9 8 8 7 7 7
12 12 13 13 13 13 13 13 12 12 12 11 11 11 10 9 9 6 6 5 5 6 7 7 6 5 5 5 4 5 6 7 8 9 10 10 9 8 8 8 7 8 8
13 14 13 13 13 13 13 12 12 13 12 11 11 11 10 9 9 9 8 8 6 5 6 5 6 6 6 5 6 5 5 7 7 8 9 9 10 10 10 9 10 9 9
14 14 14 14 14 14 13 12 11 11 11 11 10 10 9 9 8 6 6 7 7 6 6 6 6 7 7 7 7 7 7 7 8 9 10 10 11 11 10 10 10 10 11
14 14 15 15 15 14 13 12 10 9 9 8 8 9 8 6 5 5 5 4 4 4 6 6 6 7 7 7 7 7 7 8 8 9 10 10 11 11 11 11 10 11 12
16 16 16 16 15 14 14 14 15 13 11 10 9 8 7 7 7 6 5 5 5 4 5 6 6 6 7 7 7 8 8 8 8 9 9 10 11 11 11 11 11 11 12
17 17 17 16 16 15 16 14 14 14 14 13 11 10 9 9 7 6 5 5 6 5 5 5 5 6 6 7 7 7 8 8 9 9 10 11 12 12 12 12 12 14 13
17 17 17 17 16 15 14 14 15 14 13 14 13 12 12 10 9 6 6 7 7 7 6 6 5 5 6 6 7 7 8 8 9 12 11 12 14 12 13 13 13 15 15
17 17 17 16 16 17 17 16 15 14 14 15 15 15 14 13 13 13 11 8 8 9 6 6 5 4 5 6 7 7 8 9 10 11 11 12 13 13 13 14 15 14 12
18 17 18 17 18 18 18 17 16 16 17 16 16 15 15 14 14 15 15 14 13 12 11 9 6 5 5 5 6 7 7 8 9 9 10 11 12 12 13 13 14 14 13
18 19 19 19 19 20 19 18 17 19 18 18 18 17 16 16 15 16 16 16 15 14 12 11 10 10 6 5 5 6 7 7 8 8 9 11 11 11 12 15 15 15 14
20 22 22 20 21 21 21 21 19 21 20 20 20 19 18 18 17 17 17 16 15 15 14 13 12 11 10 10 6 5 6 6 6 6 8 10 10 11 13 14 14 16 15
22 25 22 23 24 23 26 26 24 24 22 21 21 20 20 19 19 18 18 17 16 15 15 15 14 13 12 11 10 8 4 4 4 5 6 8 9 11 12 13 14 15 16
27 28 28 26 28 28 29 27 28 27 24 23 22 21 20 20 19 19 19 18 17 15 15 15 15 14 13 13 11 9 8 4 3 4 6 7 9 10 11 12 14 14 16
23 25 27 28 30 31 32 30 29 30 26 24 23 22 21 21 19 19 19 18 18 16 15 14 15 15 14 13 11 10 9 7 3 4 6 7 9 10 11 11 13 13 13

GFSGL_con_lsi_057.txt.gz
Lid_Strength_Index
1 1 1 2 2 4 5 5 6 8 8 8 7 7 7 8 8 8 9 8 7 7 7 7 7 6 6 6 5 6 6 6 7 5 4 4 4 4 4 4 4 4 4
1 2 2 3 4 5 6 7 8 8 8 7 6 8 8 9 9 9 8 7 7 7 7 7 6 6 5 5 5 6 6 5 5 6 5 5 5 4 4 5 5 5 4
3 3 4 5 5 6 7 8 7 7 7 7 8 8 7 8 7 7 7 7 7 7 6 6 5 5 5 5 5 6 4 4 5 6 6 4 5 4 5 5 5 4 4
5 6 6 6 6 7 7 7 7 6 8 8 8 8 8 8 7 6 7 7 7 6 5 5 5 5 5 5 5 5 4 5 5 6 6 5 5 4 5 6 6 4 5
7 7 7 6 7 7 7 7 8 7 7 8 7 7 7 7 7 7 7 6 6 5 5 5 4 4 5 5 5 4 5 5 6 6 6 5 6 6 6 6 7 6 5
6 7 7 7 7 8 8 8 8 8 8 8 8 8 8 8 9 9 8 6 5 5 5 4 5 6 5 5 4 4 5 5 5 6 6 6 6 6 6 7 7 7 8
6 6 7 8 8 8 9 9 9 8 7 7 8 8 8 7 9 9 9 6 5 5 5 5 5 5 5 4 5 5 5 5 7 5 6 5 6 6 6 7 6 6 7
9 9 9 9 9 8 7 7 7 7 7 7 8 7 7 8 10 9 8 5 5 5 5 5 4 4 3 4 4 5 5 5 5 5 5 5 5 5 6 6 6 6 5
9 8 8 8 8 7 8 8 7 7 7 8 8 8 8 7 9 8 7 5 5 5 5 4 4 3 4 5 5 5 5 5 5 6 5 5 6 6 5 5 6 7 8
8 7 7 7 7 8 8 8 7 8 9 9 9 8 9 8 8 8 7 5 6 6 5 4 5 4 5 5 5 5 6 5 5 5 5 5 6 5 6 5 5 7 7
7 8 9 9 9 9 9 9 9 9 9 9 10 9 8 7 6 7 7 6 6 6 5 4 3 5 5 5 4 4 5 4 5 5 5 5 5 5 5 4 5 6 7
10 10 10 10 10 10 10 10 10 10 10 10 10 9 7 7 7 7 7 7 6 6 5 3 3 4 4 4 4 4 5 5 5 5 5 6 5 5 4 4 5 5 5
11 11 11 11 11 11 11 10 10 10 11 11 11 10 10 8 7 7 8 7 7 6 4 4 4 4 4 4 4 3 4 4 4 6 5 5 5 4 4 5 5 5 5
12 12 12 12 12 12 12 12 12 13 13 13 12 12 11 10 9 8 7 6 6 5 5 4 4 5 5 3 3 3 3 2 4 5 5 4 4 5 6 5 6 6 7
13 14 14 14 14 14 13 13 14 13 13 13 12 11 11 11 10 10 9 8 7 6 6 5 5 4 5 4 3 3 3 3 4 4 5 5 6 5 5 5 6 7 8
15 15 15 15 15 14 15 15 14 14 13 12 11 11 11 11 11 10 9 8 7 6 6 6 5 5 5 4 4 4 4 4 4 4 5 5 6 6 6 6 6 7 8
16 16 16 16 15 15 15 16 16 14 12 11 12 12 12 12 11 10 9 9 7 6 6 5 5 5 5 5 4 4 4 4 4 5 5 5 5 5 6 6 7 7 8
16 17 16 16 16 16 16 16 16 15 14 14 13 13 13 13 11 11 10 10 10 7 6 6 5 4 4 4 4 4 4 4 5 5 5 5 5 6 6 7 7 8 8
17 17 17 16 17 17 17 17 15 15 15 15 14 14 14 13 12 12 12 12 13 12 11 11 7 4 4 4 4 4 4 4 4 5 5 5 5 5 6 6 7 9 9
17 18 18 17 18 18 17 16 16 16 16 16 15 15 15 15 15 14 13 13 13 13 13 12 11 9 7 3 3 3 4 4 5 5 5 5 5 5 6 6 7 7 8
18 18 20 19 19 18 18 18 17 17 17 16 16 16 18 17 16 15 14 14 14 14 14 14 13 11 9 7 5 3 4 4 4 5 5 5 5 6 6 6 6 8 8
19 20 20 20 19 19 19 18 18 18 17 17 17 16 18 16 16 16 15 15 15 14 14 14 14 12 11 9 9 8 4 4 4 5 5 5 5 6 6 6 7 8 8
21 22 21 20 20 21 20 19 19 18 18 18 18 18 17 17 17 17 15 15 15 15 14 14 14 13 11 11 9 9 8 6 3 3 4 5 5 6 6 7 7 8 8
21 21 21 21 21 21 20 20 20 20 20 19 19 19 18 18 18 17 16 15 16 15 15 14 14 13 12 12 11 9 8 8 7 3 3 4 5 6 6 6 7 8 8
20 21 21 21 21 21 21 21 21 21 20 20 20 20 19 18 18 17 16 16 17 16 16 15 14 13 12 12 12 11 10 11 10 8 2 3 4 5 6 7 7 8 9
20 20 20 20 21 21 21 22 22 21 22 21 21 20 20 19 19 18 18 17 17 18 17 15 15 14 13 12 11 11 12 12 10 9 4 3 4 6 6 7 8 8 9

GFSGL_con_lsi_060.txt.gz
Lid_Strength_Index
1 1 1 1 1 1 1 2 3 4 4 4 7 6 7 7 8 8 8 9 8 7 6 6 5 5 6 6 5 4 5 5 6 5 4 2 3 3 2 2 2 2 2
1 1 1 1 1 1 2 3 4 6 7 7 8 7 7 8 9 9 9 8 6 6 6 6 6 6 6 5 4 4 4 4 5 6 3 3 2 2 2 2 3 3 3
1 1 2 2 3 4 5 7 8 8 8 8 6 8 10 8 8 8 7 5 5 6 5 6 6 6 6 5 4 4 4 4 4 4 4 3 2 3 3 3 3 3 3
3 4 6 6 7 7 7 7 8 7 7 6 7 7 8 7 7 6 6 5 5 5 5 6 6 6 6 4 4 4 4 4 4 4 4 4 3 3 3 4 4 3 4
6 6 6 6 7 7 7 7 7 7 7 6 7 7 7 7 7 6 6 6 5 5 5 5 5 4 4 4 4 4 4 4 4 4 4 4 4 4 4 4 4 4 3
6 7 7 7 7 7 7 6 5 5 6 7 7 7 7 7 8 9 8 6 6 6 5 4 4 4 5 6 6 6 5 3 4 4 5 5 5 4 4 4 5 6 6
5 6 6 4 5 5 5 6 8 7 8 8 7 7 7 6 8 8 9 6 6 5 5 5 4 4 4 3 6 6 5 5 5 3 4 4 4 3 4 4 5 5 5
5 5 5 5 6 6 6 7 7 7 7 7 6 7 6 5 9 9 10 7 6 6 5 4 4 4 3 3 3 3 2 2 3 3 3 2 3 2 3 4 4 4 4
6 5 5 5 6 7 7 8 7 7 7 7 6 6 6 6 9 9 9 7 7 6 5 4 4 4 4 4 3 3 3 3 2 3 3 4 4 5 5 4 5 5 6
5 6 5 5 6 7 8 8 6 6 7 7 7 7 8 7 9 9 9 7 7 6 5 4 6 5 5 5 3 3 4 3 3 3 3 3 4 3 4 4 4 6 6
5 6 7 8 8 7 8 8 7 7 8 8 8 7 7 7 7 9 9 8 7 7 6 5 4 5 6 5 5 3 3 1 3 2 2 2 3 2 3 3 4 4 5
7 9 9 9 9 9 9 8 8 8 8 9 8 9 8 8 10 10 9 8 8 7 8 6 5 5 5 5 5 4 4 3 1 1 3 3 3 3 3 3 3 3 3
9 9 9 9 10 10 9 10 10 10 11 11 11 11 10 10 10 10 10 10 9 8 7 6 6 6 5 5 5 5 4 2 2 2 3 3 2 2 2 3 3 3 3
10 10 10 12 11 11 11 11 11 11 12 12 12 12 11 11 11 11 11 10 10 9 8 6 6 6 6 5 4 3 3 3 3 2 2 2 1 2 3 3 4 4 5
12 12 13 13 13 12 12 13 13 12 13 13 12 12 13 13 13 13 13 11 10 10 9 7 6 5 5 4 3 4 3 3 3 2 2 2 2 3 3 3 4 5 6
14 14 14 13 13 13 13 12 15 15 14 14 14 14 14 14 14 13 12 12 11 10 7 7 6 5 5 4 4 3 3 4 3 2 2 2 3 4 4 4 4 5 6
15 15 14 14 14 14 13 13 14 13 14 14 15 15 15 15 14 13 12 12 10 9 9 9 8 7 4 3 4 3 4 3 3 3 3 3 3 4 4 4 4 5 6
15 17 14 14 14 14 14 14 14 14 14 14 14 15 14 14 14 13 12 11 11 10 10 10 10 8 8 6 3 3 3 2 2 3 3 3 3 4 4 5 5 5 6
15 15 15 14 15 15 15 14 14 15 15 15 14 13 13 15 13 12 11 11 12 12 11 11 10 10 9 8 6 3 3 2 2 3 3 3 3 4 4 5 5 5 6
16 18 17 15 15 15 15 16 16 16 16 15 14 14 14 14 13 12 11 11 12 12 12 12 11 10 10 9 8 5 4 2 2 3 3 3 3 3 4 4 5 5 6
16 17 19 16 16 17 16 17 17 16 16 15 14 14 17 16 13 13 12 12 13 13 12 12 12 11 10 10 9 8 6 5 2 2 2 3 3 4 4 4 4 5 6
18 18 17 17 17 17 18 17 16 16 16 16 15 14 16 13 13 13 13 13 13 12 12 12 12 11 11 11 11 9 8 7 5 4 2 3 3 3 3 4 4 5 6
18 18 18 18 18 19 17 17 17 16 16 15 15 15 14 14 14 14 14 13 13 12 12 12 12 12 11 11 11 9 9 7 6 7 7 2 2 3 3 4 5 5 6
19 19 19 18 18 18 17 18 17 17 17 16 15 15 15 15 14 15 14 14 13 13 13 13 13 13 12 11 11 10 8 7 8 8 8 7 2 3 3 4 4 5 5
18 18 18 18 18 18 18 17 17 16 16 16 16 15 15 15 15 15 14 14 14 14 13 14 13 13 13 13 12 10 9 9 10 10 9 7 4 2 3 3 4 5 5
18 18 18 18 17 17 17 17 17 17 17 17 16 16 16 16 16 15 15 14 14 15 15 13 13 13 13 13 12 10 10 11 10 10 9 8 6 2 3 3 4 4 6

GFSGL_con_lsi_063.txt.gz
Lid_Strength_Index
1 1 1 1 1 1 1 1 0 1 1 3 3 6 7 8 7 7 8 9 10 9 9 7 6 5 5 5 5 6 6 7 8 7 5 3 3 3 3 2 2 2 1
1 1 1 1 1 1 1 1 1 3 5 5 6 7 7 7 8 9 9 9 10 10 8 6 5 6 5 5 5 6 6 5 6 6 5 4 3 2 2 2 2 2 2
1 1 1 2 2 4 5 6 7 7 7 8 7 7 7 8 8 8 7 7 6 6 5 5 5 6 6 5 5 5 5 5 4 5 5 4 3 2 2 1 1 1 2
2 3 4 5 6 7 7 8 8 8 8 7 7 8 8 8 7 7 7 6 5 5 5 5 5 5 6 5 5 4 4 4 4 4 5 4 3 2 2 3 3 1 2
5 6 6 6 7 7 7 7 7 7 7 8 8 8 7 7 7 6 6 6 6 6 5 5 4 4 6 5 5 4 4 4 4 4 5 4 4 3 3 2 3 3 2
6 7 6 7 7 7 7 8 8 8 8 7 7 7 8 7 8 9 8 7 6 6 5 5 4 5 5 7 7 6 5 4 4 4 4 4 3 3 2 3 3 4 5
6 6 6 6 6 6 4 5 5 6 6 8 8 8 8 7 8 8 9 6 6 6 6 5 5 5 6 4 5 6 7 6 7 4 4 4 3 3 2 3 3 4 4
3 3 3 4 4 4 5 5 6 7 8 7 7 7 6 5 8 8 9 7 7 6 6 6 5 5 4 4 4 3 3 3 3 3 4 3 2 2 1 2 3 3 3
4 4 4 4 4 5 6 6 6 7 7 6 6 6 6 6 9 9 10 8 8 7 7 6 6 6 6 5 4 4 4 3 2 2 2 2 4 4 4 3 3 4 5
4 4 4 4 5 5 6 6 6 5 6 7 7 7 9 8 10 10 9 8 9 8 8 7 8 7 8 7 6 5 5 3 2 2 2 3 3 2 3 3 3 5 5
4 4 4 5 6 6 6 7 7 8 8 8 8 7 7 8 8 10 10 10 10 11 10 10 8 9 8 7 7 6 5 3 3 2 2 1 2 2 2 2 2 3 4
5 6 6 7 8 7 8 8 8 8 9 9 10 10 9 9 10 11 12 12 12 12 12 10 9 9 9 8 7 6 6 5 3 3 3 2 2 2 1 1 1 2 2
6 7 8 8 9 9 9 10 10 10 10 11 11 11 11 10 10 12 12 13 12 12 11 10 10 9 8 7 7 6 6 5 5 5 4 3 2 1 1 1 1 1 1
8 9 9 10 11 11 11 11 11 11 11 12 12 12 12 12 11 12 13 13 13 12 12 10 10 10 8 8 7 5 4 4 4 4 3 2 1 1 2 1 2 3 3
10 10 11 11 12 12 12 12 12 13 14 13 12 13 14 14 14 15 15 14 14 13 12 10 8 7 7 6 5 4 4 3 4 4 4 3 2 2 2 2 3 3 5
12 12 12 12 12 12 12 13 15 15 15 15 16 15 14 15 15 15 15 14 14 12 12 10 10 9 8 8 7 6 4 4 4 3 3 2 2 2 2 3 3 4 5
13 14 14 13 13 13 13 13 13 15 15 14 15 16 16 16 16 16 15 14 13 11 11 11 10 10 9 9 8 7 5 3 3 3 3 2 2 2 2 3 3 4 5
15 16 13 13 13 13 13 14 14 14 14 13 14 15 16 16 16 15 14 13 11 11 11 11 10 10 10 10 9 8 7 5 2 2 2 1 1 2 3 4 4 4 5
15 15 14 14 14 15 14 14 14 14 14 14 14 14 14 16 15 14 13 12 12 12 11 11 10 10 11 10 9 9 8 6 4 2 2 2 2 2 3 3 4 5 4
17 18 16 15 15 15 15 15 15 15 15 15 15 14 14 16 15 13 12 12 12 12 12 12 11 11 11 10 9 9 9 8 6 4 1 2 2 2 3 3 4 4 5
15 17 19 16 16 16 16 16 16 16 16 15 15 14 18 16 15 13 12 12 12 12 12 12 12 12 11 10 10 9 10 9 7 5 4 2 2 3 2 3 3 4 4
17 17 17 17 17 16 17 16 16 16 16 15 15 14 15 14 13 13 12 12 12 12 11 12 12 12 11 11 10 10 10 10 8 6 6 7 6 2 2 3 3 3 4
18 18 17 17 17 18 17 16 16 16 16 15 15 14 13 13 13 13 13 13 12 12 12 12 12 12 11 10 10 10 11 11 9 7 9 8 7 7 2 3 3 4 4
18 18 18 17 17 18 17 17 16 17 16 15 14 14 13 13 13 13 13 13 13 13 13 12 12 12 12 11 10 10 10 10 9 9 9 9 9 7 5 2 3 4 4
17 17 18 18 17 17 17 17 16 16 15 15 14 14 14 14 14 14 13 13 14 14 13 13 12 12 12 12 12 12 11 11 10 10 10 9 9 9 8 3 3 3 4
17 18 18 17 17 17 17 17 16 15 15 15 15 15 15 15 14 14 14 14 14 14 14 12 12 13 12 12 11 11 12 12 11 11 10 9 10 9 7 4 3 3 4

GFSGL_con_lsi_066.txt.gz
Lid_Strength_Index
1 1 1 1 1 2 2 2 2 2 2 3 4 5 7 8 6 7 8 9 10 9 9 8 9 8 8 7 6 7 8 8 10 10 8 8 8 7 6 6 5 6 5
1 2 2 2 2 2 3 3 3 4 4 5 6 7 7 7 7 8 9 9 9 8 8 7 7 5 6 6 7 7 8 8 10 10 9 9 8 7 6 6 5 4 5
2 2 2 3 3 5 6 6 6 6 7 7 7 8 7 8 8 8 8 7 8 8 7 6 6 6 7 7 7 8 8 7 8 9 9 9 8 8 7 6 6 5 3
4 5 7 7 7 8 7 7 8 8 7 8 8 9 9 8 8 8 7 7 7 6 6 6 6 6 7 7 7 8 7 8 8 8 8 8 9 8 7 7 7 5 6
6 7 8 7 8 7 8 8 8 8 7 8 8 9 8 8 7 7 7 7 7 7 7 6 6 6 6 7 6 8 8 9 9 9 9 9 9 8 8 8 7 6 6
8 8 8 7 8 8 8 8 8 8 9 8 8 8 8 7 9 9 8 8 8 8 8 7 6 7 7 7 7 7 7 8 8 8 9 9 8 8 7 7 7 7 7
7 7 7 7 7 7 7 8 8 7 6 7 8 8 8 8 9 9 9 8 8 8 9 9 8 7 7 7 7 8 8 8 8 6 7 7 7 6 6 6 6 6 6
6 6 6 6 5 6 6 5 6 6 8 8 8 8 7 6 9 9 10 9 10 9 9 9 9 9 8 9 10 10 9 8 7 7 7 6 5 4 5 5 5 6 6
4 4 5 5 5 5 6 6 7 7 7 7 7 7 7 9 10 11 11 10 10 10 9 9 10 10 9 9 10 11 10 9 6 5 4 4 4 3 3 5 7 7 8
5 5 4 4 5 6 6 6 6 6 6 6 8 8 10 12 12 12 12 13 13 14 13 12 11 11 10 10 12 12 12 10 9 8 7 5 3 4 4 4 5 6 7
4 4 4 5 5 5 6 6 6 8 8 10 10 10 10 11 12 12 12 14 15 15 14 14 13 11 11 11 11 12 12 10 9 8 7 6 4 4 4 5 5 5 6
5 5 5 5 6 7 8 8 9 9 10 12 13 13 13 12 13 13 13 14 14 15 15 14 14 12 11 11 11 10 9 9 8 8 7 7 5 4 4 4 4 4 4
6 7 8 8 8 8 9 10 11 11 13 14 14 14 14 13 14 14 14 14 14 15 15 14 13 13 12 11 9 8 8 8 8 8 7 7 5 3 3 3 3 3 4
8 8 9 10 10 11 11 12 12 14 14 14 14 15 15 15 16 16 16 16 15 15 15 15 15 13 12 12 10 9 8 8 6 6 6 5 4 3 4 3 4 6 6
9 10 11 11 12 12 14 14 15 16 16 16 15 15 17 18 17 17 17 17 17 16 16 15 14 14 14 13 12 10 10 9 9 6 6 5 5 4 4 3 3 4 5
11 12 12 13 14 13 14 15 15 16 15 15 16 16 16 16 17 16 16 15 15 14 16 16 17 16 15 13 12 12 11 10 9 8 5 4 4 4 4 3 3 4 7
13 13 14 14 14 15 15 15 17 16 15 15 16 16 16 17 17 16 16 15 14 14 17 16 17 16 14 13 12 12 12 10 9 9 5 4 3 4 5 4 4 4 5
15 14 14 15 15 15 15 15 15 16 17 16 15 16 16 16 16 16 15 15 16 15 15 15 15 14 14 13 13 12 12 11 11 9 7 4 5 3 4 5 4 5 5
15 16 15 16 17 16 16 16 16 16 16 16 16 15 17 16 16 15 14 16 18 17 15 15 15 14 14 13 13 12 12 12 11 10 9 7 4 5 5 4 4 5 5
18 17 16 16 16 16 16 17 16 16 16 16 16 16 17 18 19 19 17 19 18 16 15 14 14 14 14 13 13 13 13 12 12 11 10 8 7 5 5 5 3 4 5
17 19 19 17 17 17 17 18 17 17 17 17 17 18 20 19 20 18 17 17 15 15 16 14 14 14 14 13 13 13 13 13 12 11 11 9 9 9 7 3 3 4 4
18 18 18 18 18 18 19 18 18 18 17 17 17 17 18 19 17 17 17 16 17 16 15 15 15 14 14 13 14 14 13 13 12 12 12 11 10 10 9 8 3 3 5
19 19 19 19 19 19 19 18 18 18 18 18 18 18 17 17 17 17 17 17 16 17 16 15 15 15 14 14 14 13 13 13 13 12 12 12 11 11 10 9 7 3 4
19 19 19 19 18 19 19 18 19 18 18 18 18 17 17 17 17 18 17 17 17 17 17 15 15 16 15 14 13 12 12 13 13 12 12 13 12 12 10 10 9 5 4
18 19 19 19 19 19 19 18 19 19 18 18 17 17 17 17 16 16 17 16 17 16 15 16 15 14 14 14 14 14 13 12 12 13 13 13 13 12 11 11 10 9 4
18 19 19 19 19 18 19 19 19 18 18 17 17 18 17 17 17 17 16 17 16 16 17 16 15 15 15 14 13 12 13 13 14 14 13 13 12 12 12 11 10 9 4

GFSGL_con_lsi_069.txt.gz
Lid_Strength_Index
2 2 2 2 2 2 2 2 2 3 3 4 4 5 6 7 7 7 8 8 8 8 7 7 7 7 8 7 8 8 8 9 11 11 10 10 10 9 8 8 8 7 7
2 2 2 2 3 3 2 2 2 3 4 4 5 7 7 7 8 8 8 8 7 8 8 8 8 7 7 8 7 8 9 9 10 12 11 11 10 9 9 9 8 7 8
2 3 3 4 3 3 4 5 5 6 6 6 6 7 7 7 9 8 8 8 7 8 8 8 7 7 8 8 7 9 9 8 10 11 9 10 10 10 9 9 8 8 7
3 4 6 7 7 7 7 7 7 7 7 7 7 8 8 8 8 8 7 7 7 7 7 6 7 8 7 9 9 9 9 10 10 11 9 10 11 10 10 10 11 9 9
6 8 9 9 8 7 8 8 7 8 8 8 8 9 9 9 8 7 7 7 7 7 7 7 7 7 7 8 7 9 10 10 11 10 10 12 13 12 11 10 10 9 8
8 9 8 9 8 8 8 8 8 8 8 8 9 8 9 7 9 8 7 7 7 8 9 9 9 8 8 9 9 9 9 10 10 10 10 10 9 12 11 9 8 8 9
8 8 8 8 8 8 8 8 9 9 8 8 8 7 8 7 9 8 9 9 9 10 10 11 10 9 10 11 11 11 11 9 11 11 11 10 9 9 9 8 7 6 7
9 8 8 7 8 8 8 8 8 8 9 9 8 7 7 7 9 9 10 10 11 12 12 12 12 13 12 12 13 13 13 12 11 10 11 9 9 7 6 5 5 5 5
7 7 7 7 7 6 7 8 8 9 8 7 7 8 9 11 11 11 11 13 13 14 13 13 13 14 12 12 14 15 15 14 12 10 9 8 7 7 6 5 6 7 7
5 5 6 6 7 8 8 9 8 7 7 7 8 10 11 13 12 12 13 15 16 16 15 14 13 13 13 12 14 15 15 14 14 13 12 10 8 8 6 4 4 6 7
6 5 5 6 7 7 7 7 8 8 10 12 12 12 13 13 14 13 14 16 17 16 16 16 16 14 14 13 12 14 14 12 12 12 11 9 8 7 6 5 4 5 6
6 6 7 7 6 7 8 10 9 10 12 13 14 14 15 15 14 15 15 15 15 17 16 16 16 14 14 13 13 12 11 12 12 11 10 9 9 8 7 5 4 4 3
7 8 9 9 9 9 10 11 12 12 14 15 15 15 16 16 17 16 16 16 16 17 16 16 15 14 14 14 13 13 13 14 14 12 12 9 7 6 5 5 4 4 4
10 10 11 12 12 13 12 12 14 16 16 15 16 17 17 18 19 19 18 19 17 17 17 17 17 15 15 15 15 14 14 14 13 12 11 10 8 6 6 5 4 4 5
12 12 13 13 14 15 15 15 16 17 16 17 18 17 20 21 18 18 18 17 19 17 18 18 17 17 17 16 16 15 15 13 13 12 12 10 9 5 5 4 4 4 5
14 14 15 16 16 16 16 16 15 16 15 15 16 17 17 17 17 17 16 16 16 15 18 20 22 23 20 18 17 16 15 14 13 12 12 11 10 6 4 4 3 4 5
16 15 15 15 15 16 16 17 18 16 15 15 16 16 16 17 17 17 16 16 16 16 19 20 23 24 23 17 16 16 16 14 13 13 13 11 10 10 4 3 3 4 5
15 16 16 17 17 17 17 17 17 17 18 17 16 16 16 17 17 16 16 16 18 17 18 20 22 23 20 17 16 16 15 15 14 14 13 12 10 10 10 4 3 4 6
16 17 17 18 18 17 17 17 16 17 17 17 16 17 17 17 17 17 17 19 21 20 19 19 22 20 18 17 20 19 19 16 15 15 14 13 11 11 10 9 5 5 6
18 18 17 17 17 17 17 17 17 18 18 18 18 18 19 20 24 25 23 23 24 21 21 19 18 17 18 18 22 21 17 17 15 15 14 13 12 11 11 11 9 4 4
19 19 18 18 18 18 18 18 18 18 19 19 19 21 21 21 22 22 19 22 22 21 23 21 20 22 21 20 16 17 18 18 15 15 14 14 13 13 11 10 10 10 4
19 19 19 19 19 19 20 19 19 19 19 19 20 19 21 23 22 20 21 24 25 23 21 21 22 21 20 17 18 18 18 16 16 15 15 15 14 12 12 12 12 10 8
19 19 19 19 19 20 20 19 20 21 21 21 21 21 20 23 23 20 22 25 23 23 23 22 25 20 20 21 20 16 15 15 15 15 16 15 14 14 13 13 12 11 11
19 20 20 20 20 21 22 22 22 21 21 22 23 23 22 22 23 22 23 24 25 26 26 25 21 20 18 17 16 16 15 15 14 13 14 16 15 14 14 13 12 11 11
20 20 21 21 21 23 23 23 23 24 24 24 24 23 21 23 21 23 25 26 24 27 22 22 22 20 19 18 17 17 16 14 13 14 14 15 15 15 14 13 12 12 11
20 21 21 21 22 23 24 25 25 25 25 24 24 25 24 22 24 28 25 24 21 21 23 20 19 19 18 17 15 14 14 14 14 14 14 14 15 15 13 12 12 12 12

GFSGL_con_lsi_072.txt.gz
Lid_Strength_Index
2 1 2 2 2 2 2 2 2 2 2 2 2 3 4 5 5 7 7 8 7 8 8 7 7 7 7 8 7 7 8 10 11 11 11 10 11 10 9 9 8 8 7
2 1 2 2 2 2 2 2 1 2 2 3 4 4 5 6 7 7 7 8 8 8 8 7 7 7 8 8 8 9 10 10 11 11 12 11 11 10 10 10 8 8 8
2 2 2 2 2 2 2 3 4 3 2 4 5 6 7 7 8 8 8 8 8 7 7 7 7 7 7 8 9 9 8 8 9 10 10 11 11 11 10 10 9 9 8
4 3 3 5 4 4 4 4 5 4 6 6 6 7 8 8 8 8 8 8 7 7 7 7 7 7 7 8 8 9 9 11 11 11 11 11 12 10 10 10 10 11 9
7 6 6 6 6 8 8 8 8 7 7 7 9 8 8 8 8 8 8 8 7 7 6 6 7 7 7 8 9 11 12 11 12 13 12 11 12 14 13 11 12 11 12
8 8 7 7 8 9 8 9 8 8 9 8 9 9 9 8 10 9 7 7 7 7 8 9 9 10 11 11 11 11 12 14 15 15 14 14 13 12 12 11 12 11 11
8 8 8 8 9 9 9 8 9 9 9 9 9 9 9 8 8 8 8 7 8 9 11 12 12 12 13 13 13 13 13 12 13 14 15 14 13 12 11 11 10 10 9
8 8 8 8 9 9 9 9 9 9 9 8 8 8 7 7 9 9 10 10 12 13 14 14 15 15 14 14 15 16 16 15 15 14 15 14 13 12 11 11 11 10 8
8 8 8 9 9 8 9 9 9 9 9 8 7 7 9 9 9 10 11 13 14 15 15 15 15 16 14 14 16 16 16 15 13 12 11 11 10 10 10 11 12 11 11
7 7 7 8 8 8 8 8 9 9 8 8 8 10 11 12 11 11 13 15 16 17 16 16 15 16 15 15 16 16 16 15 14 13 13 12 11 11 10 10 9 10 9
6 7 7 7 9 9 8 9 9 10 10 12 13 13 13 13 13 13 14 16 17 17 17 17 17 16 15 14 14 15 15 15 15 15 14 14 13 12 11 9 7 8 7
7 8 8 9 8 8 9 10 10 11 13 14 14 16 16 15 14 14 15 16 16 17 17 17 17 15 15 14 15 15 15 15 16 17 16 15 15 14 11 8 6 6 5
8 9 9 9 9 10 11 12 12 13 14 14 15 16 17 17 17 16 16 17 17 18 17 16 16 15 15 15 15 15 16 17 18 18 17 16 15 13 10 8 6 5 4
11 11 12 14 14 14 14 14 15 16 16 15 16 17 18 18 19 19 18 18 17 17 17 17 17 16 17 17 17 16 17 17 18 18 17 16 14 12 11 8 6 5 5
13 14 15 16 16 17 17 17 17 16 16 16 17 17 19 20 18 18 17 17 18 17 18 18 18 18 19 18 18 18 18 18 18 17 16 16 14 13 12 10 9 5 5
14 15 16 16 17 17 17 17 15 16 15 16 16 17 17 17 17 17 17 17 16 16 17 19 21 23 21 19 20 19 19 19 17 16 16 16 15 14 12 11 9 4 5
15 16 16 15 16 16 16 17 18 17 16 16 16 16 16 17 17 17 17 16 16 17 20 21 24 24 23 19 20 20 20 18 16 17 17 17 16 14 13 12 11 5 5
16 16 16 16 17 17 17 16 17 17 18 17 16 16 16 17 17 17 17 17 18 18 18 20 21 21 21 20 19 19 18 19 19 18 17 18 16 15 14 12 11 11 6
16 16 16 16 17 17 17 17 17 17 17 17 17 17 17 17 18 18 18 19 20 20 19 20 21 20 20 20 23 23 24 24 22 21 20 19 17 16 15 13 12 12 11
16 16 16 17 17 18 18 18 18 18 18 18 18 18 19 19 21 22 21 22 21 20 21 21 20 20 23 22 24 25 22 23 21 20 21 18 19 16 16 13 13 13 12
17 17 18 18 19 19 19 19 19 19 19 19 20 20 20 20 21 21 20 22 22 22 23 20 22 24 23 23 20 23 22 24 20 18 17 16 18 17 15 13 13 12 11
19 19 19 19 20 20 20 19 19 19 19 20 20 19 20 22 21 21 21 23 24 21 21 22 23 23 22 21 21 26 22 21 19 18 17 16 16 16 15 15 14 13 12
20 20 20 20 20 20 21 20 21 21 21 22 21 21 22 23 23 22 22 23 22 23 22 22 26 23 22 24 24 21 19 18 18 16 16 16 16 16 17 16 14 14 13
20 21 20 20 21 21 21 22 22 22 22 23 24 23 23 24 26 25 25 25 24 25 27 27 25 23 21 23 24 20 18 17 16 15 15 15 16 16 16 16 15 14 13
21 21 22 23 23 23 24 24 25 26 25 25 25 25 24 25 25 28 27 28 27 28 26 26 25 23 22 22 20 19 18 17 16 15 15 15 15 16 16 16 15 14 13
22 23 23 23 24 24 24 25 25 26 26 26 27 28 28 28 27 32 29 27 27 27 26 25 23 22 21 19 17 16 16 16 16 16 15 15 15 16 16 16 15 13 13

GFSGL_con_lsi_075.txt.gz
Lid_Strength_Index
3 2 2 2 2 2 2 3 3 2 2 2 3 3 4 4 5 5 6 7 7 8 7 7 7 7 8 7 7 7 8 8 10 9 11 11 11 11 10 10 9 9 8
2 2 2 2 2 2 1 2 2 2 1 2 2 1 3 4 4 5 7 7 7 8 8 8 8 7 7 7 7 8 8 9 10 13 12 12 12 11 11 11 9 9 10
2 2 2 2 2 2 2 2 2 1 1 1 2 3 4 5 6 7 7 8 8 7 8 8 8 7 8 7 8 8 8 8 9 11 10 11 12 12 12 11 11 10 9
3 3 3 2 2 2 2 2 2 1 2 3 4 4 5 7 7 8 8 8 8 8 8 7 7 7 7 7 8 8 9 10 11 13 14 13 13 12 13 13 12 12 11
3 3 4 5 5 5 4 4 5 5 5 6 7 7 8 8 8 8 8 8 8 8 7 7 6 7 8 9 8 12 13 15 15 16 16 15 15 15 14 13 13 12 11
6 6 7 6 7 8 8 8 9 8 9 9 9 9 9 9 10 10 9 8 8 8 8 8 10 10 11 11 11 12 13 16 17 17 17 17 17 16 15 15 14 14 15
7 8 8 8 7 8 8 9 9 9 9 9 10 9 10 9 11 10 10 8 8 9 10 11 12 12 13 14 14 14 15 14 15 16 18 17 17 16 15 15 15 14 15
8 8 8 8 8 9 9 9 10 9 10 9 9 9 9 9 10 10 10 9 11 12 12 13 14 15 14 15 16 17 16 16 16 15 17 17 16 15 15 14 14 14 13
8 8 8 8 9 9 9 10 10 10 10 9 8 8 8 9 10 11 11 12 13 14 14 15 15 16 15 15 16 17 17 16 13 13 13 12 12 11 12 12 13 14 14
9 9 9 8 9 9 10 10 9 8 8 8 10 10 10 11 11 11 12 14 15 16 15 15 15 16 15 15 16 17 17 17 16 16 15 15 13 13 12 12 12 14 13
9 8 7 7 8 8 9 9 9 9 10 13 14 14 13 13 13 12 13 15 16 16 17 17 17 16 15 15 15 16 17 17 16 17 17 16 15 14 14 13 13 13 12
7 7 8 8 8 9 9 10 11 12 13 15 15 16 16 15 14 14 14 15 15 16 17 17 17 16 15 15 16 16 16 17 18 18 19 18 18 17 16 15 13 12 10
8 9 9 9 10 11 11 13 14 14 15 16 16 17 18 17 17 16 16 16 17 17 17 17 16 16 16 16 17 17 17 18 19 20 19 19 18 17 16 15 13 11 10
10 12 12 13 14 14 14 14 14 15 15 16 17 18 19 19 19 18 18 18 17 17 17 17 17 17 17 17 17 17 18 18 19 19 20 19 18 18 17 15 14 13 13
13 14 15 15 16 17 16 15 16 16 14 15 16 17 19 19 18 17 17 17 18 17 18 18 19 19 19 19 19 19 19 19 19 19 19 20 19 19 17 15 14 13 13
15 15 16 16 17 16 17 17 15 15 15 15 16 17 17 17 17 17 17 17 17 17 18 20 22 22 21 20 20 20 19 20 19 20 20 19 19 19 18 16 14 14 14
16 16 16 16 16 17 17 17 18 16 15 15 15 15 16 17 17 17 17 17 17 17 20 21 24 24 22 20 20 20 21 20 19 20 21 19 19 18 18 17 16 15 13
16 16 15 15 15 15 17 17 17 16 17 17 16 16 16 17 17 17 17 18 19 19 19 21 21 21 21 21 21 21 21 21 21 21 20 20 22 19 19 19 17 16 14
15 16 16 16 16 16 16 16 16 17 18 18 17 17 17 17 18 18 18 19 20 20 20 20 21 21 21 21 22 23 25 24 24 27 25 23 23 20 20 19 18 15 14
16 16 16 16 17 18 18 19 19 19 19 19 19 19 20 20 22 22 21 22 21 21 21 21 20 21 22 22 24 24 24 27 26 25 24 26 24 23 20 19 18 16 14
17 18 18 19 19 20 20 20 20 20 20 21 21 21 20 21 22 21 21 22 22 22 22 22 22 22 22 22 20 22 24 27 23 23 20 20 22 21 19 17 16 17 15
19 19 20 20 21 21 20 20 21 21 21 21 21 21 22 23 23 22 22 24 24 22 21 22 23 22 21 21 22 27 25 26 24 23 22 19 18 18 17 17 18 17 15
20 20 20 21 21 21 21 21 22 22 23 24 23 23 23 25 25 24 24 25 23 24 24 24 27 23 22 23 25 24 23 21 21 20 19 18 17 17 17 17 17 17 16
21 22 22 22 23 23 24 24 24 24 24 26 26 25 25 26 27 27 28 29 29 31 30 29 26 25 23 25 26 25 21 21 19 18 17 17 17 16 17 16 17 17 16
23 23 24 25 25 26 27 27 28 28 28 29 30 31 27 30 29 33 34 33 30 31 28 27 27 25 25 25 24 22 21 19 17 16 16 16 17 17 17 17 17 17 16
24 25 26 26 28 28 30 32 33 34 33 32 31 31 30 30 29 35 31 29 29 28 27 26 25 25 24 22 21 19 19 19 18 18 17 17 18 18 17 17 17 17 16

GFSGL_con_lsi_078.txt.gz
Lid_Strength_Index
4 4 3 3 2 2 1 2 2 2 2 2 2 2 2 3 3 3 4 5 5 5 6 6 6 7 8 8 7 8 7 7 9 8 9 9 9 9 9 9 9 9 9
4 4 3 3 2 2 2 2 1 2 2 2 2 2 2 3 4 4 4 6 6 6 6 7 8 7 8 8 7 8 8 8 9 10 10 10 11 10 10 11 9 9 9
4 3 3 3 3 3 2 1 2 2 2 2 2 2 2 4 4 4 5 5 6 6 7 7 7 8 9 8 8 8 8 7 9 10 9 10 10 11 11 11 11 10 9
4 4 4 3 2 2 3 3 3 2 2 2 2 3 4 5 5 5 6 7 6 7 7 7 8 8 8 8 8 8 8 9 10 11 11 12 12 12 12 13 13 12 12
3 4 4 3 3 3 4 3 4 3 3 3 5 6 6 7 7 7 7 8 8 8 8 8 8 9 9 8 8 11 11 12 13 14 15 15 15 15 15 14 14 14 13
4 3 3 4 4 4 5 5 5 6 6 6 7 8 8 8 11 10 8 8 8 9 10 11 11 12 11 12 11 12 12 14 15 16 16 17 17 16 15 15 15 15 16
4 4 5 6 7 7 7 8 8 9 9 9 9 9 10 10 10 10 10 9 9 10 12 13 13 12 12 13 13 13 14 14 15 16 17 17 17 16 16 16 15 15 15
6 6 7 7 8 8 8 9 10 9 9 10 10 10 10 10 11 11 12 12 13 13 13 14 13 13 13 14 15 15 15 15 15 15 16 16 15 15 15 14 14 14 13
7 8 8 8 9 9 10 10 10 10 10 10 10 9 10 11 12 12 12 13 14 14 14 14 14 14 14 14 15 15 16 15 14 14 14 14 14 13 13 13 15 15 15
8 8 8 8 9 9 10 10 10 10 10 11 12 11 12 12 12 12 13 14 15 16 15 15 15 15 15 15 16 16 17 17 17 17 17 16 15 14 14 13 14 15 15
8 9 9 9 9 9 9 10 10 12 13 14 15 14 14 14 13 13 14 15 16 16 17 18 17 16 15 15 15 16 17 17 18 18 18 17 16 16 15 15 14 15 16
9 10 10 9 8 9 10 11 11 13 14 15 16 16 16 16 15 15 15 16 16 17 18 18 17 16 15 16 16 16 17 18 18 19 19 18 18 18 17 16 15 14 13
9 9 9 10 10 10 11 12 13 14 15 15 16 17 18 17 16 16 16 17 17 17 17 17 17 16 16 17 17 17 18 19 19 20 20 19 18 18 17 16 15 14 14
11 11 11 12 13 13 13 13 13 14 15 16 16 17 18 18 18 18 18 17 17 17 17 17 17 17 18 18 18 18 19 19 20 20 20 19 18 18 19 18 18 17 16
12 13 14 14 15 16 16 15 15 15 14 16 17 17 19 19 18 17 17 18 17 17 18 18 19 19 20 19 19 20 19 19 20 20 20 20 20 20 20 18 18 17 17
15 16 16 16 16 17 17 17 15 15 15 15 15 17 17 17 16 17 16 16 16 17 19 20 22 22 21 21 20 21 20 20 20 20 20 21 21 20 20 19 18 18 17
16 16 16 16 17 17 17 17 18 16 15 15 15 15 15 16 16 16 16 16 17 18 20 21 23 23 22 21 21 21 21 20 20 20 21 21 21 20 20 19 19 19 18
16 16 16 16 17 17 17 17 16 16 17 17 15 16 15 16 16 17 18 18 19 19 19 21 21 21 21 21 21 21 21 21 22 21 22 22 21 20 20 20 19 20 19
17 17 17 17 16 17 17 17 17 17 17 17 18 18 18 17 18 18 18 20 20 20 20 20 20 20 21 21 21 22 23 23 22 23 23 23 23 21 21 20 20 20 19
17 17 17 17 17 18 18 18 19 19 20 20 21 20 20 20 22 22 22 22 21 21 21 21 21 21 22 22 23 24 24 22 22 22 22 24 23 22 21 21 20 20 18
18 18 18 19 19 20 20 20 20 21 21 21 22 21 21 22 22 22 22 23 23 23 23 23 23 22 22 22 22 21 23 24 23 22 22 21 23 22 20 19 19 18 17
19 20 20 21 20 21 22 22 22 22 22 23 23 23 24 26 26 26 25 26 26 24 24 24 26 24 23 22 23 25 25 25 24 23 22 22 20 19 19 18 18 18 17
21 21 21 21 22 23 24 24 24 25 27 28 27 27 27 30 30 28 30 33 30 31 30 28 30 26 24 25 25 25 25 23 22 21 21 20 19 19 18 17 17 17 17
22 23 23 25 25 26 27 29 29 28 28 30 33 31 30 31 35 35 36 36 33 33 32 31 28 26 25 25 26 24 23 23 21 19 19 18 18 17 16 16 16 17 17
24 25 26 27 28 31 32 32 33 35 34 35 34 34 30 34 32 36 36 33 31 32 28 28 28 26 26 26 25 24 23 21 20 18 18 17 18 18 18 17 17 17 17
26 27 28 29 31 33 34 36 38 37 36 36 36 36 35 33 31 36 32 30 29 28 28 26 26 26 25 23 22 20 20 20 20 19 18 18 18 18 18 18 17 17 17

GFSGL_con_lsi_081.txt.gz
Lid_Strength_Index
1 1 1 1 0 0 0 0 0 -0 -0 0 0 0 0 0 -0 0 1 2 2 2 3 4 4 3 5 6 6 7 6 7 6 6 5 7 6 5 4 4 5 5 5
2 2 2 1 1 1 2 1 -0 0 -0 0 0 0 0 0 1 2 2 3 4 4 4 5 5 6 7 7 8 8 8 7 8 8 8 8 8 6 6 6 6 6 6
3 3 3 3 3 2 2 2 0 0 0 0 0 1 1 0 0 2 2 3 3 4 4 4 5 7 8 8 8 7 8 8 8 9 8 7 8 7 7 7 7 7 8
4 3 3 3 2 2 2 1 0 0 0 0 0 1 0 0 1 2 3 4 4 4 5 6 6 7 8 8 9 8 7 9 8 8 9 9 9 7 8 10 10 11 11
3 3 3 2 3 2 1 1 0 1 0 0 1 1 1 2 3 4 5 6 6 7 7 7 7 8 8 9 8 9 9 10 11 11 12 10 10 10 11 11 13 12 12
3 3 2 2 2 2 2 2 2 2 2 1 2 3 5 6 10 9 7 7 8 9 11 11 12 12 12 12 12 11 11 12 12 12 11 12 12 12 12 12 13 14 14
3 3 2 2 3 2 2 3 3 3 5 6 7 7 8 9 11 11 11 8 9 11 12 13 13 13 12 14 13 13 13 13 14 13 13 13 13 12 13 13 13 14 13
2 2 2 2 4 6 6 6 8 8 9 9 9 9 9 10 12 12 12 12 13 13 13 13 14 14 14 14 14 15 14 14 14 14 13 12 12 12 12 13 13 13 12
3 4 5 5 7 7 8 9 10 10 10 10 9 10 11 13 13 13 13 14 15 15 15 14 14 14 14 14 15 15 15 15 14 15 15 15 15 15 14 13 14 14 14
6 6 6 6 7 9 10 10 10 10 11 11 12 12 13 13 13 13 13 14 16 16 16 16 15 15 15 15 15 15 16 15 15 16 15 15 15 15 15 14 14 15 15
7 7 8 8 10 10 10 10 12 12 13 15 15 15 14 13 13 13 14 15 16 17 17 17 16 15 15 15 15 15 16 16 17 17 17 16 16 16 16 15 15 15 15
8 9 10 10 10 10 10 11 12 13 14 15 16 16 16 15 15 15 15 15 15 16 17 16 15 15 15 16 16 16 17 17 16 17 18 18 18 17 17 16 15 15 14
10 11 11 11 11 10 11 12 13 13 14 15 16 17 17 16 16 16 16 16 16 16 16 16 16 15 16 17 17 18 18 17 18 18 19 18 18 17 17 16 16 15 15
11 11 11 13 13 13 13 13 13 14 14 15 16 17 18 18 18 17 16 15 16 16 16 16 16 16 17 17 17 17 17 17 19 19 19 18 18 18 18 17 17 16 16
12 13 14 14 15 16 15 15 15 14 14 15 16 17 17 17 16 16 16 15 15 16 16 16 16 16 17 17 18 18 18 18 19 19 19 19 19 19 18 17 17 17 17
15 15 15 15 16 16 16 17 15 15 15 15 15 15 16 16 16 16 15 15 16 16 16 17 18 18 19 19 19 19 18 19 19 19 19 19 19 19 19 18 17 17 17
16 16 16 16 16 17 17 17 18 17 15 15 15 16 16 16 15 15 15 16 16 17 18 18 18 19 19 19 19 19 19 19 19 20 20 19 20 19 19 18 17 16 16
16 16 16 17 17 17 17 16 16 16 16 16 15 15 15 15 16 16 17 17 18 18 18 19 19 19 19 19 19 19 20 20 20 20 19 19 19 18 18 17 16 16 16
17 18 18 18 18 17 16 16 15 15 16 17 17 18 17 18 18 19 19 19 19 19 19 19 19 19 19 20 20 20 20 20 20 20 19 19 18 18 18 17 17 17 17
19 19 18 18 17 17 17 17 17 17 18 19 19 19 19 19 20 20 20 20 20 20 20 21 20 20 21 21 20 20 20 19 19 19 18 18 17 17 18 17 17 16 16
18 18 17 17 18 18 18 18 19 19 20 21 21 22 22 20 21 21 22 22 22 22 22 22 22 22 21 21 21 20 20 20 19 19 19 18 18 18 17 16 16 15 15
18 18 19 19 20 20 20 20 20 20 21 21 22 23 23 22 22 22 23 24 23 23 23 23 22 22 21 21 21 20 20 20 20 19 19 19 18 17 16 15 15 14 14
19 20 20 21 21 22 22 21 22 22 23 23 23 23 23 24 24 24 24 24 24 23 23 23 23 22 21 21 20 20 21 20 19 19 19 18 17 16 15 15 14 13 13
21 21 22 23 23 23 24 24 24 25 25 25 24 25 25 25 25 25 25 24 24 23 23 23 22 22 22 22 20 20 19 18 18 17 17 16 16 15 14 14 13 13 13
23 24 24 24 25 25 25 26 26 26 26 26 26 26 25 25 24 24 24 24 24 23 23 23 22 22 22 22 22 21 19 19 18 17 16 16 16 15 15 14 14 14 14
24 25 25 25 26 26 26 27 27 27 27 27 26 26 26 26 25 24 24 24 24 24 23 22 22 23 22 21 19 18 19 19 18 18 17 16 16 15 15 15 14 14 14

GFSGL_con_lsi_084.txt.gz
Lid_Strength_Index
1 1 1 1 0 0 0 0 0 -0 -0 -0 -0 -0 -0 -0 -0 -0 -0 -0 0 0 0 1 1 1 3 4 3 5 5 5 6 6 5 5 4 4 4 5 3 3 3
1 1 1 1 0 1 0 0 -0 0 -0 -0 -0 -0 -0 -0 -0 0 0 0 1 1 1 2 2 3 3 4 4 5 6 5 6 8 8 8 7 6 6 5 5 4 3
1 1 1 1 1 1 1 0 -0 -0 -0 -0 -0 0 0 0 0 0 0 1 1 1 1 2 3 4 4 4 5 5 6 6 8 8 10 8 8 8 8 5 5 4 4
1 1 1 1 1 1 0 0 0 -0 0 0 -0 0 0 -0 0 0 0 1 1 1 1 2 3 5 5 6 7 7 8 8 9 9 9 10 10 7 7 8 6 5 7
1 2 2 1 1 1 1 0 0 0 0 0 0 0 -0 0 0 0 0 1 1 2 4 5 6 6 8 8 7 8 9 10 11 11 13 12 11 10 9 7 8 8 9
2 2 2 1 1 1 1 0 1 0 0 0 1 1 1 1 6 9 5 3 5 7 10 11 11 11 12 13 13 12 11 11 12 13 11 12 10 9 9 9 10 11 12
2 2 1 1 1 1 1 1 1 1 1 1 1 1 1 4 11 11 10 7 9 11 13 13 13 14 14 14 15 14 14 14 13 12 12 11 11 10 10 11 11 11 12
2 2 1 1 1 1 1 1 1 1 2 4 7 8 9 11 13 12 12 12 13 13 14 14 14 15 15 15 15 14 14 14 15 15 13 13 11 11 11 11 11 11 11
2 2 2 1 2 2 2 3 5 7 8 9 9 10 12 13 13 13 13 14 15 15 15 15 15 15 15 14 15 15 16 15 15 15 15 16 16 15 15 13 14 13 13
2 2 2 2 3 3 6 9 9 10 11 12 13 13 14 14 14 13 13 15 16 16 16 16 15 15 15 15 14 15 15 14 13 13 13 15 15 14 15 14 13 15 15
2 3 4 4 6 8 10 11 12 14 14 15 16 15 15 14 14 14 14 15 15 16 16 17 16 15 15 15 14 14 15 14 16 15 15 14 14 14 14 14 14 15 16
6 8 9 9 10 11 12 13 13 14 15 16 16 16 16 16 15 14 14 14 15 16 17 16 15 14 15 15 15 17 17 16 14 15 15 15 15 15 15 15 15 14 14
10 10 11 11 11 12 13 13 14 14 15 15 16 17 17 17 16 15 15 15 15 15 15 15 15 15 16 16 16 17 17 14 15 16 16 16 16 16 16 16 15 14 14
12 12 13 13 13 12 13 13 13 14 15 16 16 17 18 18 17 16 16 16 16 16 16 15 15 15 16 15 15 15 14 15 17 17 17 16 16 16 16 15 16 16 16
13 14 14 15 15 16 16 15 15 15 14 16 17 17 17 17 16 15 15 14 15 16 15 14 13 13 14 14 15 16 16 16 17 17 17 17 17 17 17 16 16 16 17
14 15 15 15 16 16 16 17 15 15 15 15 15 15 16 16 16 16 16 16 16 16 14 14 15 15 16 17 17 17 17 17 17 18 18 18 18 18 18 17 16 16 15
15 15 15 16 17 17 17 18 19 17 16 16 16 16 16 16 16 15 15 15 16 15 15 16 17 17 18 18 18 18 18 17 18 18 18 18 18 18 17 16 15 15 14
16 16 16 17 16 16 16 17 16 17 18 17 17 17 16 16 16 16 17 16 16 17 17 18 18 18 18 18 18 18 19 19 19 19 19 18 18 17 17 16 15 15 14
17 18 17 17 16 16 16 16 16 16 17 18 18 17 17 17 18 18 17 17 18 18 18 18 18 19 19 19 19 19 19 19 19 19 18 18 17 17 17 16 15 16 15
17 17 17 17 16 16 16 16 17 17 18 18 18 18 17 17 18 18 18 19 19 19 20 20 20 20 20 20 20 19 19 19 19 18 18 17 17 16 16 16 16 15 14
18 17 17 16 16 16 17 17 17 17 18 19 20 20 20 18 19 19 20 20 20 20 21 20 20 20 20 19 20 19 19 19 18 18 17 17 17 17 16 15 14 14 13
18 18 18 18 17 17 17 17 17 18 18 19 20 21 21 19 20 20 21 21 21 21 20 21 20 20 20 20 19 19 19 18 18 17 17 17 16 15 14 14 13 13 12
17 17 18 18 18 18 18 18 19 19 20 20 20 21 21 21 21 21 21 22 21 21 21 21 21 21 19 19 18 18 18 18 17 16 17 16 15 14 13 13 12 12 11
18 18 19 20 20 20 20 21 22 22 21 21 21 21 22 22 21 22 22 22 22 21 21 21 20 20 20 20 18 17 17 16 16 15 15 15 14 13 13 12 12 11 11
20 21 21 21 22 22 22 22 22 22 22 22 22 22 22 22 22 21 21 22 22 21 21 20 20 19 19 20 20 19 18 17 16 16 15 14 14 14 13 13 12 12 12
21 22 22 22 22 22 22 22 23 23 23 23 22 22 22 22 21 21 21 21 22 22 21 20 19 19 20 19 17 17 17 18 17 17 16 15 15 14 13 13 12 12 12

GFSGL_con_lsi_087.txt.gz
Lid_Strength_Index
1 1 1 1 1 1 1 1 0 0 0 0 0 0 0 0 -0 0 0 0 1 1 0 1 1 0 1 1 1 2 3 4 5 4 3 4 5 5 6 5 4 4 3
1 1 1 1 1 1 1 0 0 0 -0 0 0 0 0 0 0 0 1 0 1 1 1 1 1 1 1 1 2 3 4 3 4 4 4 5 6 6 7 6 6 5 5
1 1 1 1 1 1 1 1 0 0 0 0 0 0 0 0 0 0 0 1 1 1 1 1 1 1 2 2 4 4 4 5 5 7 9 9 9 8 8 7 7 6 5
1 1 2 1 1 1 1 1 1 1 1 1 0 0 0 0 0 0 0 0 1 1 1 1 1 1 2 3 5 5 7 8 9 9 10 10 10 8 8 10 9 7 7
1 2 2 1 1 1 1 1 1 1 1 0 1 0 0 0 0 0 0 1 1 1 1 2 4 5 7 6 6 7 8 9 10 11 12 12 12 11 11 10 10 9 8
2 2 1 1 1 1 1 1 1 1 1 0 1 1 1 1 5 7 4 1 1 3 9 11 12 12 12 12 13 12 10 11 12 12 13 12 12 10 10 10 11 11 12
2 2 1 1 2 1 1 1 1 1 1 1 1 1 1 1 10 10 10 6 8 10 12 13 14 14 14 14 14 14 14 14 14 12 13 13 12 11 11 11 11 11 11
2 2 2 2 2 1 1 1 1 1 1 1 2 2 5 9 11 11 12 12 13 14 14 14 15 15 15 15 15 16 15 15 15 14 14 13 13 12 11 11 11 12 11
2 2 2 2 2 2 2 2 1 2 5 6 8 10 12 13 13 13 13 14 15 15 15 14 15 15 15 14 15 16 16 16 15 15 15 15 15 15 15 14 14 14 14
2 2 1 1 2 2 2 3 5 7 10 12 14 13 14 14 14 14 14 15 16 16 16 15 15 16 15 14 15 15 15 15 14 14 14 14 15 14 15 15 14 15 14
2 1 1 1 2 4 7 9 11 13 14 14 16 15 15 15 15 15 14 15 15 17 17 17 16 15 15 15 14 15 16 14 15 15 14 14 13 13 12 13 13 14 15
6 7 8 9 9 10 11 13 13 13 15 17 17 18 17 16 15 15 14 15 16 17 17 16 15 16 16 15 16 17 17 15 14 15 15 14 14 14 14 14 14 14 14
10 11 11 12 12 12 13 13 15 16 16 17 17 18 18 17 16 15 15 15 15 16 15 15 16 16 17 17 17 18 17 15 15 15 15 15 15 15 15 15 14 14 14
13 13 13 14 14 14 14 15 15 16 16 17 18 18 18 17 17 16 16 16 16 16 16 15 16 16 17 16 16 16 14 14 15 16 16 16 16 15 16 15 16 16 16
14 15 16 16 16 17 17 16 16 16 16 17 18 17 18 18 17 15 15 15 15 15 15 15 15 15 14 14 14 14 15 16 16 16 17 17 17 17 17 16 17 17 17
16 16 16 17 17 17 18 18 16 16 16 16 17 17 17 17 17 17 17 17 16 16 15 15 16 15 16 16 17 17 17 17 17 18 18 18 18 18 18 18 17 17 17
16 17 16 17 17 18 18 18 20 18 16 16 17 17 16 16 16 17 17 17 16 15 16 16 16 17 17 17 17 18 18 18 18 18 18 19 19 19 19 19 18 18 17
16 16 17 17 17 18 18 18 18 18 19 19 18 18 18 18 17 17 17 16 17 16 17 17 18 18 18 18 18 19 19 19 19 19 19 19 19 19 19 19 18 17 17
17 17 16 16 16 16 16 17 18 18 19 19 19 18 18 17 17 17 17 17 18 19 18 18 18 19 19 19 19 19 19 19 20 19 19 19 19 19 19 18 17 16 16
17 16 16 16 16 16 16 17 17 18 19 20 20 19 17 17 18 18 18 18 19 19 19 19 19 19 19 19 19 19 19 19 19 20 19 19 18 17 17 17 16 16 15
17 16 16 16 16 16 16 17 17 18 19 20 21 19 18 18 18 18 19 20 20 20 20 20 20 19 20 19 19 20 20 20 19 19 18 18 17 17 16 15 14 13 13
16 17 17 17 17 17 17 17 17 17 18 18 19 19 19 19 19 20 20 21 20 20 20 20 20 20 20 20 20 20 20 19 18 18 17 17 17 16 15 14 13 12 12
16 16 17 17 17 18 17 17 18 18 19 19 19 20 20 20 21 20 21 21 20 21 20 20 21 21 20 20 19 19 19 18 17 16 17 17 16 15 14 13 13 12 12
17 18 19 19 18 19 19 20 20 20 20 20 20 20 21 20 20 21 21 21 21 21 21 21 21 21 20 20 18 18 17 17 17 17 16 16 16 15 14 14 13 13 12
18 19 19 19 20 20 20 20 21 20 20 21 21 21 20 20 20 21 21 21 22 21 21 21 19 19 19 20 19 18 17 17 17 17 17 16 16 16 15 14 13 12 12
19 19 20 20 20 20 20 21 21 21 21 21 20 20 20 21 20 21 21 21 22 22 20 19 19 19 19 18 17 16 17 18 18 18 17 17 17 16 15 14 14 12 12

GFSGL_con_lsi_093.txt.gz
Lid_Strength_Index
2 2 1 2 2 2 3 3 2 2 2 2 2 2 2 1 0 1 1 1 2 1 2 2 2 2 2 2 2 2 2 2 4 3 3 4 4 4 4 3 3 4 3
2 2 2 1 2 2 3 2 2 2 2 2 2 1 1 1 1 1 1 1 2 2 2 3 2 2 3 2 2 2 2 2 3 4 5 4 5 6 4 5 4 4 5
2 2 2 2 2 2 2 2 2 2 3 3 2 2 2 2 1 1 1 1 1 2 2 2 2 2 2 2 3 2 3 3 3 3 3 8 8 8 8 8 8 7 6
2 2 2 2 2 1 2 2 2 2 2 3 3 3 3 2 2 1 1 1 1 1 1 2 2 2 2 3 3 3 4 4 4 4 8 10 10 9 9 10 9 9 8
2 2 2 2 1 1 1 1 2 2 2 2 2 2 2 2 2 1 1 2 2 2 2 4 8 9 10 9 5 5 5 6 9 9 11 12 12 12 12 11 13 12 11
3 3 2 2 2 2 2 2 1 1 2 2 2 2 2 2 5 7 3 1 2 3 7 11 12 12 13 13 13 13 11 10 12 13 13 13 13 13 13 13 13 14 14
4 3 2 2 2 2 2 2 2 2 1 2 2 2 2 2 7 7 8 3 5 7 10 12 13 13 13 13 14 14 14 14 15 12 14 14 14 14 13 14 15 14 14
3 4 3 2 3 2 2 2 2 2 2 2 2 1 4 10 12 12 12 11 12 12 13 13 14 14 14 14 14 16 15 15 14 13 14 14 14 14 13 14 15 16 15
4 3 3 3 2 2 3 2 2 2 2 4 8 10 11 13 13 13 12 13 14 15 14 15 15 15 14 13 16 17 17 17 14 13 14 14 15 15 16 17 17 17 18
3 3 3 3 3 3 3 4 9 9 12 13 14 14 14 14 14 14 14 15 16 16 16 16 15 15 15 15 16 16 17 17 16 15 15 15 15 15 15 16 17 18 19
10 4 4 4 3 5 8 10 12 14 15 16 16 16 15 15 14 14 14 15 16 17 17 17 16 16 16 16 16 16 17 16 16 16 16 17 17 17 17 17 17 18 19
11 11 11 10 10 11 12 13 13 15 16 17 18 18 17 16 15 15 15 15 16 17 18 18 17 17 17 16 17 16 16 17 17 17 18 19 19 19 18 18 17 17 17
13 14 14 13 12 12 14 15 16 16 17 18 18 18 18 17 17 16 16 17 17 18 17 17 17 17 16 17 17 17 17 18 18 19 20 20 20 18 18 18 17 18 18
16 16 16 16 16 16 15 15 16 17 17 18 18 19 19 18 17 17 17 17 17 17 17 17 18 18 18 17 17 17 17 18 19 20 20 20 19 19 20 20 21 21 21
16 17 18 17 18 18 18 18 18 17 16 18 18 18 19 18 17 16 17 18 17 18 18 18 18 18 18 19 19 19 19 19 20 20 21 21 21 21 21 20 20 21 22
17 17 17 18 18 18 19 19 17 17 17 17 17 17 17 16 16 16 16 16 16 17 18 19 20 20 20 20 20 21 20 20 21 21 21 21 22 22 22 21 21 22 23
17 17 18 18 19 19 19 19 20 18 17 16 16 16 16 17 17 16 17 17 16 17 19 20 21 21 21 21 21 22 22 21 21 22 22 23 23 23 23 23 22 23 23
16 17 18 18 19 19 20 21 20 21 22 21 18 18 17 17 17 17 18 19 20 20 20 21 22 22 22 22 22 22 22 23 23 23 24 25 26 23 23 23 23 28 24
16 16 17 18 18 18 19 19 20 20 21 21 20 20 19 18 18 19 19 21 21 22 22 23 23 22 22 22 23 24 25 25 26 27 26 27 31 26 27 24 24 25 24
16 16 16 17 18 19 19 20 21 21 21 21 21 21 21 21 23 23 23 23 23 22 22 22 22 23 23 23 26 27 27 27 28 28 32 33 33 29 29 27 26 24 21
16 16 17 18 18 19 20 21 21 22 22 22 22 21 21 22 23 23 23 23 23 24 24 24 24 25 25 26 25 28 29 35 28 28 29 28 34 28 24 24 24 21 20
17 17 17 18 18 19 20 20 21 21 22 22 22 22 22 23 23 24 24 25 26 25 25 26 26 26 26 28 29 34 32 30 30 30 30 28 26 26 25 23 23 22 20
18 19 19 20 20 20 20 20 21 22 22 23 23 23 23 24 25 25 27 28 26 28 29 30 31 29 30 32 30 28 29 29 29 31 31 29 26 25 27 24 21 21 20
19 20 20 21 21 21 22 22 22 23 24 25 26 26 25 25 26 28 29 30 30 33 35 33 28 28 29 32 31 29 26 29 27 27 30 30 28 23 22 22 22 21 20
20 21 21 22 22 23 24 24 25 26 26 27 26 26 25 27 27 30 31 33 32 33 31 28 30 29 30 30 27 24 24 25 28 28 29 28 27 25 23 21 20 19 19
21 21 22 22 23 24 26 27 28 27 27 28 28 27 29 30 30 27 31 32 31 31 30 30 29 28 27 26 22 22 26 27 27 24 25 23 23 22 21 21 21 21 20

GFSGL_con_lsi_096.txt.gz
Lid_Strength_Index
2 2 2 3 3 3 4 4 4 3 4 3 4 4 4 3 2 2 3 2 2 2 2 2 2 2 2 2 3 2 3 3 4 3 4 4 4 5 4 3 3 3 4
2 2 2 2 2 3 3 3 3 3 2 3 3 3 3 2 2 2 2 1 2 2 1 1 2 2 3 2 2 2 3 2 3 4 4 5 6 5 6 5 4 4 4
2 2 2 2 2 3 3 3 3 2 3 2 2 3 2 2 2 2 1 1 1 1 1 2 2 2 2 2 2 2 2 2 3 3 3 7 8 8 8 7 7 7 6
3 2 2 2 2 2 2 3 3 3 3 3 3 3 2 2 3 2 2 1 1 1 1 1 1 2 2 2 2 2 2 3 3 3 4 10 10 10 9 9 10 9 9
4 2 2 2 1 1 1 2 2 3 3 3 3 3 3 3 2 2 2 3 2 2 2 2 3 5 9 8 3 2 4 4 3 7 11 12 12 12 12 12 13 12 10
5 4 3 2 2 2 2 1 2 2 2 3 3 3 4 3 6 7 4 2 2 2 3 9 11 11 12 12 12 12 11 7 10 11 13 14 14 14 14 14 13 13 13
4 4 4 3 2 2 2 2 2 2 2 3 3 3 3 3 7 8 8 2 2 2 5 10 12 12 12 13 13 13 14 14 15 12 14 15 15 15 14 15 14 14 14
4 4 4 4 4 3 2 2 2 2 2 2 3 3 2 3 8 9 10 6 9 10 10 10 12 13 13 14 14 15 15 15 15 14 15 15 15 15 15 15 16 16 16
4 3 3 4 4 4 3 2 2 2 2 2 2 2 3 10 12 11 10 12 14 15 14 14 13 14 14 13 16 16 17 17 15 15 15 15 15 14 15 17 17 18 18
8 8 5 2 3 4 3 3 3 3 4 8 11 12 12 13 13 12 12 14 16 16 16 16 15 15 16 15 16 17 17 16 16 17 17 17 17 17 17 18 18 19 19
9 10 8 7 5 4 3 6 10 11 12 13 13 14 15 15 14 14 13 14 16 16 17 17 16 16 15 15 16 17 17 16 17 18 18 19 18 18 18 18 18 19 20
11 12 13 13 10 10 11 12 13 14 16 17 17 17 16 16 16 15 15 16 16 18 18 17 17 16 16 16 16 16 16 17 18 19 20 20 20 20 19 19 19 19 19
14 15 15 15 15 14 13 14 15 15 16 17 18 19 18 17 17 16 16 17 17 18 18 16 16 16 17 18 17 17 18 19 20 21 21 21 21 20 20 20 19 19 19
15 15 16 17 17 17 17 16 16 17 17 18 18 19 19 18 18 17 17 17 16 17 18 18 18 18 19 19 20 20 20 20 21 21 22 21 20 20 21 21 22 22 22
16 16 16 17 17 18 18 17 18 17 17 18 18 18 19 19 18 17 17 18 18 18 18 18 19 20 20 21 21 21 20 20 21 21 21 22 22 22 22 22 22 22 24
16 17 17 17 17 17 18 18 16 16 16 17 16 17 17 16 15 16 16 16 17 18 20 21 22 22 22 22 22 22 21 21 21 22 23 23 24 24 23 22 22 24 24
17 17 18 17 18 18 18 18 19 17 16 16 16 17 16 16 16 17 17 18 19 20 22 23 23 22 22 22 22 23 23 23 22 24 24 24 23 23 23 23 24 24 24
17 17 18 19 19 19 19 19 19 20 21 20 17 18 17 18 18 18 19 20 22 21 21 22 23 23 23 23 23 24 24 24 24 24 25 25 26 25 25 25 25 29 25
16 17 18 18 18 19 19 20 19 20 21 22 22 21 20 19 19 19 19 22 23 23 23 23 23 23 24 24 24 25 28 28 28 29 28 28 33 28 29 26 26 26 26
17 17 17 18 18 18 19 19 19 20 21 21 22 23 22 23 24 24 24 24 24 24 24 24 24 24 24 25 26 28 27 27 29 28 35 35 37 31 30 29 29 28 24
17 17 17 18 19 19 19 20 20 21 22 23 23 23 23 24 25 25 25 25 25 25 25 25 26 26 27 29 27 29 30 34 30 30 30 30 37 31 28 28 28 25 23
17 17 17 18 19 20 20 20 21 22 22 23 24 24 24 25 25 26 26 27 27 26 26 27 26 26 27 28 30 33 33 35 34 33 31 31 30 30 30 29 28 28 24
18 19 19 19 20 20 21 22 22 23 23 24 24 25 25 27 27 27 28 29 29 30 30 30 30 28 29 32 30 29 30 30 31 34 34 34 30 30 32 29 27 27 25
19 19 20 21 21 22 22 23 24 25 25 26 26 27 28 29 31 31 32 34 32 33 33 31 29 28 28 33 34 32 28 31 30 30 33 33 30 26 29 27 26 26 24
20 20 21 22 22 23 23 24 25 25 26 27 27 26 28 29 30 35 36 35 33 33 32 32 33 32 32 32 30 28 28 28 31 29 31 30 30 30 29 26 25 23 23
21 21 22 23 24 24 25 25 26 27 27 27 28 30 30 30 31 36 36 35 34 34 33 33 32 31 31 28 26 25 28 27 28 27 30 28 29 28 28 26 25 23 22

GFSGL_con_lsi_099.txt.gz
Lid_Strength_Index
2 3 4 4 4 4 4 4 4 4 4 4 4 4 4 4 4 4 4 4 3 4 3 3 3 2 3 3 3 2 3 4 4 3 3 3 4 4 3 4 4 4 4
2 2 3 3 4 4 4 4 4 4 4 3 4 4 3 4 4 4 4 4 4 4 3 3 3 2 2 2 3 3 3 3 3 4 4 5 5 6 6 6 5 4 5
3 2 3 3 3 4 4 4 3 3 4 3 3 3 3 3 3 3 3 3 3 3 2 3 3 2 2 2 3 3 3 3 3 3 3 7 8 7 8 8 7 7 6
4 2 2 3 3 3 3 3 3 3 3 3 2 2 3 2 2 2 2 2 2 2 2 2 2 2 2 2 2 3 3 3 4 3 3 4 8 9 9 9 10 9 9
4 4 2 2 2 3 2 2 2 3 3 3 3 3 3 3 3 3 3 3 3 3 3 2 2 2 5 5 3 3 3 3 4 4 3 10 11 12 11 11 12 12 12
5 4 4 3 2 2 2 2 2 3 3 3 3 3 3 3 7 8 5 3 3 3 3 4 8 9 10 11 10 11 8 4 4 4 8 12 13 13 13 13 13 14 15
4 4 4 4 4 2 2 2 2 2 3 3 3 3 3 3 8 8 8 4 3 3 3 5 9 10 11 12 13 13 13 13 14 10 13 14 15 14 14 15 15 15 16
4 4 3 3 4 4 2 2 2 2 3 3 3 4 4 4 8 8 9 5 4 6 5 6 7 11 12 12 14 15 15 15 15 15 15 16 16 16 16 16 17 16 17
5 4 3 3 3 3 4 3 2 2 3 3 3 3 4 4 9 9 9 8 11 13 13 12 11 12 12 12 15 16 16 16 15 15 15 16 15 16 15 15 17 18 19
9 9 8 6 3 3 3 3 3 3 3 3 4 8 7 4 12 11 9 11 14 15 15 15 14 14 15 15 16 16 17 17 17 18 18 18 17 17 17 18 18 20 20
10 11 11 11 9 8 3 3 3 4 10 12 14 15 14 13 13 12 12 12 15 16 16 16 15 15 14 15 15 16 17 17 18 19 19 19 19 19 19 20 20 20 21
13 13 13 13 12 12 12 11 12 12 14 16 16 17 16 16 15 14 14 15 15 16 17 17 16 15 16 16 16 16 17 18 19 20 20 21 22 22 21 21 21 21 20
14 14 14 14 14 15 14 15 16 15 16 16 16 17 17 18 17 16 17 16 16 17 17 17 17 17 17 18 18 18 19 20 21 21 22 23 22 22 22 22 21 20 20
15 15 16 16 16 15 15 15 16 17 18 18 18 18 18 18 18 17 17 17 17 17 18 19 19 20 20 21 20 20 21 21 22 22 23 23 22 23 22 22 22 22 23
16 16 16 16 16 16 16 16 17 16 15 17 17 18 18 19 17 16 17 18 18 19 19 19 20 21 22 22 22 22 22 22 22 23 23 23 23 22 23 23 23 24 25
16 16 16 16 16 16 16 17 15 15 15 15 15 17 17 16 16 17 17 17 17 18 20 21 22 22 23 23 23 23 22 22 22 22 23 23 24 24 25 24 23 24 25
19 18 17 17 17 17 17 17 19 18 16 16 15 15 16 16 16 17 17 19 19 20 23 23 23 23 23 23 23 23 23 23 23 24 24 25 24 23 24 24 25 25 25
19 19 18 18 18 19 19 20 20 21 22 21 18 17 17 16 17 17 18 20 22 22 22 23 23 23 23 23 24 24 24 24 24 25 26 27 27 25 26 25 25 29 27
17 18 18 18 18 19 19 20 20 21 21 21 22 22 20 18 19 19 20 22 23 24 24 24 25 24 25 25 26 27 27 28 28 29 28 28 32 28 29 27 28 29 28
18 18 19 19 19 19 19 19 20 20 21 22 22 23 22 23 25 25 25 24 24 24 24 25 25 25 26 26 28 27 27 28 29 30 36 36 37 32 30 31 32 31 26
18 18 19 19 20 20 20 20 21 21 22 23 23 23 23 25 26 26 26 27 26 26 26 26 27 27 27 28 28 30 30 35 31 31 31 30 38 33 29 29 30 28 26
18 18 19 19 20 20 20 20 21 22 23 24 25 25 25 26 26 27 28 28 29 28 27 28 28 28 28 28 30 35 35 36 35 33 33 32 31 32 31 31 31 32 28
19 19 19 20 20 20 21 21 22 23 24 25 25 25 26 27 28 29 30 30 29 30 30 30 30 30 30 32 32 31 31 31 32 34 35 35 31 31 34 32 30 30 30
19 20 21 21 21 22 23 23 24 24 24 25 26 27 28 28 30 31 33 33 31 32 33 32 31 31 31 35 35 32 29 32 32 32 35 35 32 28 31 29 28 29 28
21 22 23 23 23 24 24 24 24 25 25 25 26 27 28 29 30 34 33 33 31 34 33 35 35 32 33 33 31 29 32 31 33 31 33 32 32 31 29 28 29 27 27
22 22 23 23 23 24 25 26 26 26 27 27 28 29 29 29 30 34 32 32 32 33 31 32 32 33 32 30 28 28 29 29 31 30 33 29 31 30 29 29 28 28 25

GFSGL_con_lsi_102.txt.gz
Lid_Strength_Index
5 5 4 4 4 4 4 4 4 3 3 3 3 4 4 4 4 4 4 4 4 4 4 4 4 4 4 3 3 3 3 3 4 3 3 3 3 3 3 3 3 3 3
5 4 4 4 4 5 4 4 4 4 3 3 3 3 3 3 4 4 4 4 4 4 4 4 4 3 3 3 3 3 3 3 3 4 3 4 4 4 4 4 5 4 4
5 4 3 4 4 5 5 5 4 4 4 3 2 3 3 3 3 4 4 4 4 4 4 4 3 3 3 3 3 3 3 3 3 3 3 5 6 6 6 6 6 7 7
5 4 3 3 4 4 4 5 4 4 4 4 3 2 3 3 3 3 3 3 3 3 3 3 3 3 2 3 3 3 3 3 3 3 3 3 5 7 7 8 9 9 9
4 4 4 3 3 4 4 4 4 4 4 3 3 3 3 3 3 3 3 2 3 3 3 3 3 3 5 4 3 3 3 3 3 3 4 3 7 10 10 10 10 12 13
4 4 4 4 4 3 3 4 4 3 3 3 3 3 4 3 7 8 5 3 3 3 3 3 3 6 6 10 11 12 11 4 3 4 4 7 10 12 12 12 13 13 14
3 3 3 4 4 4 4 3 3 3 3 3 3 3 3 3 8 7 7 3 3 4 4 4 7 8 10 12 13 13 14 14 15 9 8 13 14 13 13 14 15 15 17
3 3 3 3 3 3 4 4 4 3 3 3 3 3 3 4 8 9 9 5 4 4 3 4 5 8 10 12 14 15 15 15 15 15 15 16 16 15 15 15 16 18 17
7 6 6 4 3 3 3 3 3 4 4 3 3 4 4 4 9 9 9 6 7 9 9 8 6 9 11 11 14 15 16 15 14 14 14 15 15 15 15 16 17 17 18
11 11 10 9 7 5 3 3 3 3 4 4 5 5 7 5 9 10 9 5 9 14 14 14 13 12 13 14 15 16 18 18 18 18 18 18 18 18 18 19 18 19 19
13 13 13 13 12 10 9 5 4 4 7 12 15 15 15 15 14 13 12 7 11 15 15 16 15 15 15 15 15 17 18 18 19 19 20 20 21 21 20 20 20 20 21
14 14 14 14 13 13 13 13 13 13 15 15 16 16 16 16 15 15 15 16 15 16 17 16 16 15 15 16 17 17 18 19 20 21 22 23 23 22 21 21 21 21 21
15 15 15 14 14 14 14 14 14 14 16 17 18 18 18 17 16 15 15 15 16 17 17 17 17 17 18 18 18 19 19 21 22 23 23 23 23 22 22 22 21 21 21
16 16 15 15 15 15 15 14 15 16 17 17 18 18 18 18 17 17 17 18 18 20 20 20 21 21 21 21 21 21 21 21 23 23 23 23 23 23 24 23 23 22 22
16 15 15 15 15 16 16 16 16 16 16 17 17 17 18 18 18 17 18 19 19 19 20 21 21 22 23 23 23 22 23 23 23 23 24 24 24 23 24 23 23 24 25
16 17 16 16 16 16 17 17 15 15 15 15 15 16 16 15 15 16 16 16 18 19 20 22 23 23 24 24 24 24 24 24 24 24 24 24 24 24 24 24 25 25 25
19 18 18 18 18 18 17 18 19 17 15 15 15 15 16 16 16 17 17 18 18 19 22 22 23 23 23 23 23 24 24 24 23 24 24 25 24 25 25 25 25 25 24
20 19 19 19 19 20 20 20 21 22 23 22 17 17 16 16 17 17 18 20 22 22 22 23 23 23 23 23 23 24 24 24 25 26 27 27 26 25 26 26 25 26 25
18 18 19 19 19 19 19 19 20 21 22 22 21 21 19 17 18 18 19 22 23 23 24 24 24 24 24 25 25 26 27 27 27 28 28 28 29 27 27 27 27 28 27
18 18 19 19 20 20 20 21 22 23 23 24 24 23 22 23 24 25 24 24 24 24 24 25 25 25 25 26 26 27 27 28 28 28 32 31 31 28 29 29 29 28 27
18 19 19 19 20 20 21 21 22 23 24 25 25 25 25 25 26 26 26 27 26 26 26 26 26 26 26 27 26 28 29 30 29 29 29 30 33 30 29 28 28 27 26
19 19 19 20 20 21 21 22 23 23 24 25 25 25 26 26 26 27 27 28 27 27 26 26 27 27 27 27 28 31 32 33 31 30 30 30 30 29 29 29 29 29 28
19 20 20 21 21 22 23 23 24 25 25 25 25 26 27 27 28 28 29 29 28 28 27 27 27 27 28 31 30 29 29 29 30 31 31 31 29 29 31 29 29 29 28
20 21 21 22 23 23 24 25 25 25 26 27 27 27 28 29 30 29 29 29 30 30 29 29 28 28 28 32 32 29 28 31 29 30 32 31 29 28 29 28 27 28 27
22 23 24 24 25 25 25 25 26 26 26 27 27 28 28 28 29 31 31 29 30 30 30 31 30 29 30 29 29 28 31 32 32 31 31 31 30 31 29 28 28 26 26
23 24 24 25 25 26 27 27 27 27 28 28 28 29 29 29 30 31 30 30 30 30 29 30 29 30 29 28 28 29 31 31 32 32 32 28 29 28 28 27 27 26 25

GFSGL_con_lsi_105.txt.gz
Lid_Strength_Index
3 3 5 4 1 1 2 2 2 1 1 2 2 3 3 3 4 4 5 4 4 5 5 4 4 3 3 2 3 4 4 3 3 2 1 -0 0 -0 -0 -1 -0 -0 0
3 4 5 4 1 1 2 2 1 2 1 1 2 3 3 3 4 5 5 5 5 5 5 5 4 4 3 3 4 3 3 1 2 3 1 2 2 0 -0 0 1 2 2
4 5 6 3 1 2 2 2 2 1 2 1 2 3 3 3 3 3 4 5 5 4 4 5 4 4 4 3 3 3 3 3 2 2 2 2 1 2 2 2 3 5 7
4 5 6 3 2 2 2 2 2 2 2 2 2 1 2 2 2 3 3 4 4 4 4 3 3 4 4 3 3 3 3 3 3 3 2 2 2 1 3 3 6 7 9
4 5 5 3 2 2 2 2 2 2 2 1 1 1 1 2 2 2 3 3 2 3 3 3 2 3 5 4 2 2 3 3 3 4 4 3 4 7 5 5 7 12 13
4 4 4 4 2 2 2 2 2 2 2 2 2 2 1 1 6 7 4 3 3 3 3 3 3 6 6 8 10 10 6 3 3 3 4 4 4 5 9 9 12 13 14
3 3 4 4 4 3 2 2 2 2 2 2 2 2 2 1 8 7 7 0 1 2 2 3 3 4 7 10 13 13 14 14 15 8 5 8 11 10 11 13 13 14 16
3 3 3 4 4 4 4 3 3 2 2 2 2 2 2 3 9 8 9 1 1 1 0 1 1 2 6 9 11 14 14 14 14 14 14 14 14 14 13 14 16 17 18
10 9 8 7 5 3 4 4 3 3 3 4 3 3 3 3 9 9 9 4 3 3 2 2 2 1 9 10 12 14 15 15 14 14 14 15 15 15 13 13 15 16 18
13 12 12 11 10 10 9 4 3 3 3 4 8 12 13 9 13 11 9 6 7 9 13 13 13 8 13 13 13 15 17 17 18 19 19 18 18 18 18 17 16 17 19
14 14 14 13 13 12 11 11 10 5 12 14 16 16 15 14 14 12 12 8 12 15 16 16 15 15 14 15 15 16 18 19 20 20 21 21 21 20 20 19 19 18 20
14 14 15 14 14 13 13 13 13 13 15 16 16 17 16 16 15 14 13 14 14 15 16 16 16 16 16 17 18 18 19 20 21 21 22 22 22 22 21 20 20 20 20
15 15 15 15 15 14 14 14 14 14 15 17 16 17 17 17 16 16 15 15 16 16 17 16 17 17 18 18 19 19 20 21 22 23 24 23 23 22 21 21 20 21 21
15 16 16 16 16 15 15 15 15 15 16 16 16 17 17 18 18 18 18 18 18 18 19 19 20 20 21 21 21 21 21 21 22 23 23 23 22 23 23 22 22 22 22
15 15 15 15 16 16 16 15 16 15 15 16 16 17 18 19 18 18 17 18 17 17 18 19 19 19 20 21 22 21 21 21 22 22 23 23 23 23 23 22 21 21 21
16 16 16 16 16 16 16 17 15 15 15 15 15 16 17 16 16 16 17 17 17 17 17 18 19 19 20 21 21 21 22 22 22 22 22 23 23 22 22 22 21 21 21
17 17 17 17 17 18 17 18 19 17 15 15 15 15 15 15 15 16 16 17 17 17 18 19 19 20 20 20 21 21 22 22 22 22 22 23 23 22 22 22 22 21 21
18 18 17 18 18 18 18 18 18 19 19 18 16 15 15 15 16 16 17 17 18 18 18 18 19 19 19 20 20 21 22 23 23 23 23 23 22 23 23 23 22 22 21
17 17 17 17 17 17 17 18 18 18 18 18 18 19 18 17 17 18 17 18 19 19 19 20 19 20 20 20 21 22 22 22 23 23 23 23 23 22 23 22 22 24 22
17 17 16 16 17 17 17 18 18 19 19 20 20 20 19 19 20 21 20 20 20 20 20 20 20 20 20 21 21 22 22 22 23 23 23 23 22 22 23 23 23 22 21
17 17 18 17 17 18 18 19 20 20 21 21 22 22 22 21 21 21 21 21 21 21 21 20 21 21 21 21 21 21 22 22 23 23 22 23 23 23 22 22 22 22 22
17 17 17 18 18 19 19 19 20 21 21 22 22 23 23 21 22 22 22 22 22 21 21 21 22 22 21 22 22 22 23 23 23 23 23 23 22 22 22 22 22 22 22
18 18 18 19 19 20 20 21 21 21 22 22 22 23 22 23 23 23 23 22 22 23 22 22 23 23 23 23 22 21 22 23 23 23 23 22 22 22 22 22 22 22 22
18 19 19 20 20 20 21 22 22 23 23 23 23 24 24 24 23 24 24 23 23 23 23 23 23 23 24 23 22 22 22 23 22 23 24 23 23 23 22 22 22 23 21
19 20 20 20 21 21 21 22 22 23 23 24 24 24 24 24 24 24 24 24 24 24 25 24 24 24 24 25 24 24 25 26 24 25 23 24 24 25 23 22 22 21 20
20 21 21 21 21 21 22 23 23 23 24 24 24 24 24 25 25 25 25 25 25 25 25 24 24 25 25 23 24 25 26 26 25 27 24 22 22 21 21 21 21 20 19

GFSGL_con_lsi_108.txt.gz
Lid_Strength_Index
2 3 2 2 1 1 1 1 1 0 0 0 0 1 2 3 3 3 4 4 4 4 3 4 4 4 3 3 2 2 2 2 4 3 1 -0 1 -0 -1 -2 -1 -1 1
2 2 2 2 1 2 1 1 0 1 0 0 0 1 2 3 3 4 5 4 4 4 4 4 5 4 4 4 2 3 2 2 4 5 3 1 1 1 -1 -0 -0 1 1
2 2 3 3 2 2 1 1 1 1 0 0 0 1 2 3 3 3 4 4 4 4 4 4 5 5 5 4 3 3 2 3 3 4 4 2 0 0 2 2 1 4 7
2 3 4 4 3 1 1 1 1 1 1 1 1 0 1 1 2 2 3 4 5 4 4 4 4 4 4 4 4 3 3 3 3 4 4 3 2 2 2 3 6 7 9
3 4 4 4 2 1 1 1 1 1 1 0 1 1 0 1 1 2 3 3 4 4 3 4 4 4 6 5 4 4 3 3 3 4 4 3 3 4 5 3 5 11 13
4 4 4 4 2 1 1 1 1 1 1 1 1 1 1 1 7 7 4 3 3 3 3 3 3 6 6 8 8 9 6 3 4 4 4 5 4 5 6 7 11 13 14
4 4 4 3 2 2 1 1 1 2 1 1 1 1 1 1 8 7 7 1 2 2 2 3 3 4 5 5 11 12 13 14 14 5 4 4 6 7 9 11 12 13 16
5 5 4 4 3 2 2 2 1 1 1 1 1 1 1 1 8 8 9 1 2 2 2 2 3 3 4 7 10 12 14 14 13 13 13 14 14 13 11 11 13 17 17
11 11 10 8 6 4 4 3 2 2 1 1 1 1 2 2 10 9 8 3 1 1 1 1 1 2 7 10 11 15 16 16 15 14 15 15 15 15 13 14 16 16 19
13 13 12 11 10 10 10 8 4 2 3 4 10 12 13 9 13 11 10 5 6 9 12 12 14 8 12 13 12 15 18 19 18 19 19 18 18 18 17 17 16 18 20
15 14 14 14 13 13 12 12 10 9 13 15 16 15 14 14 13 13 12 7 11 15 15 15 15 15 15 15 15 17 20 20 20 20 21 21 21 20 20 20 19 18 20
15 15 15 15 14 13 13 14 13 14 15 16 16 16 16 15 15 14 13 13 14 15 16 16 16 16 16 17 18 18 18 20 20 21 21 22 22 21 20 20 20 20 19
15 16 16 15 14 14 14 14 14 14 15 16 17 17 18 18 18 17 16 16 16 17 17 17 16 17 18 18 19 19 19 20 21 21 22 22 21 20 20 21 20 20 20
15 16 16 16 16 15 15 15 15 15 16 16 17 18 18 18 19 18 19 18 18 19 19 19 20 20 19 18 19 19 18 18 19 20 21 21 20 20 20 20 21 21 22
15 15 15 15 16 16 16 16 16 16 15 16 17 17 18 19 18 17 16 17 17 17 16 16 16 17 17 17 17 17 17 17 18 18 19 19 20 20 20 20 20 20 20
14 15 15 15 15 15 16 16 15 15 15 15 15 15 16 16 15 16 16 16 15 15 14 15 16 16 16 17 17 18 18 18 18 18 18 18 19 19 19 19 18 18 19
15 15 15 16 16 16 16 16 17 16 15 15 15 15 15 15 15 15 15 15 14 14 15 16 17 17 17 17 18 18 18 18 18 17 18 18 18 19 19 19 18 18 19
15 16 15 15 16 16 16 16 16 17 17 18 17 16 16 16 16 15 15 14 15 15 16 16 16 16 16 17 17 17 17 18 18 17 17 17 17 18 18 18 18 18 17
15 15 15 15 15 15 15 15 15 15 15 15 15 16 16 16 16 15 15 15 16 16 16 16 16 17 17 17 17 17 18 18 18 18 18 18 18 18 18 18 19 20 18
15 15 14 14 14 14 14 15 15 15 16 16 16 16 15 14 16 16 16 16 16 17 17 17 17 17 17 17 17 18 17 18 18 18 18 18 17 17 18 18 17 17 17
14 14 14 14 14 15 15 15 15 16 16 17 18 19 18 16 17 17 17 17 17 17 17 17 17 17 17 17 17 17 18 18 18 18 18 18 18 18 17 17 17 17 18
14 15 15 15 15 16 16 16 16 17 17 18 18 19 19 17 18 18 18 19 18 18 17 17 17 17 17 17 17 18 19 19 19 18 18 19 18 18 17 18 17 17 17
15 15 16 16 16 17 17 17 17 17 17 18 18 18 18 19 19 19 19 19 19 19 19 18 19 19 19 18 18 17 18 19 19 18 18 18 18 17 17 17 18 18 18
15 16 17 17 17 17 17 18 19 19 18 18 19 19 19 19 20 20 20 20 20 20 20 21 20 20 20 19 18 18 19 19 18 20 21 19 18 19 18 18 18 19 18
16 16 16 17 17 17 18 18 18 18 19 19 19 19 19 20 20 20 21 21 22 21 22 21 21 21 22 23 22 21 23 23 22 23 19 20 20 21 20 19 18 17 17
17 17 17 17 17 18 18 18 19 19 19 19 19 19 20 20 20 21 22 22 22 22 22 22 22 23 24 21 22 24 24 24 22 24 21 19 19 18 17 18 18 17 16

GFSGL_con_lsi_114.txt.gz
Lid_Strength_Index
5 3 2 2 2 1 2 2 2 1 1 1 1 1 2 1 1 2 2 2 3 3 3 3 3 3 3 3 3 4 4 4 6 5 4 3 3 2 2 2 2 5 8
7 3 2 2 2 2 2 2 2 2 1 1 1 1 2 2 2 2 3 3 3 3 3 3 3 3 3 3 4 4 4 4 5 6 5 4 3 3 3 3 3 6 9
7 4 2 2 2 2 2 2 2 2 2 1 1 1 2 2 2 2 3 3 3 3 3 3 3 3 4 3 4 5 5 4 4 5 6 5 4 4 4 4 8 10 10
8 4 3 2 2 2 2 2 3 2 2 1 1 1 1 2 2 3 3 3 4 3 3 3 3 3 4 4 4 4 5 5 5 5 5 5 5 4 4 5 8 10 11
10 6 3 2 2 2 3 3 2 2 1 1 1 1 1 1 2 3 3 3 3 4 4 4 4 4 7 6 5 5 5 5 6 6 6 5 6 6 6 5 7 12 13
10 7 2 2 2 2 3 3 3 3 2 2 2 1 2 1 7 7 4 3 3 4 4 4 5 8 8 9 9 8 6 5 5 6 6 7 6 6 6 6 11 13 13
9 4 3 3 3 3 3 3 3 3 2 2 2 2 2 2 8 7 7 2 3 3 3 4 4 5 7 6 11 13 14 13 13 5 5 6 6 7 7 7 10 12 13
13 10 5 3 3 2 3 3 3 2 2 2 2 2 2 5 9 8 8 2 3 3 3 3 3 4 4 6 11 14 15 15 14 13 13 14 14 13 12 13 14 17 17
15 14 12 9 3 3 3 3 2 3 3 4 5 7 7 11 11 10 7 3 3 4 4 8 5 4 8 9 11 14 16 16 14 14 15 15 15 15 14 14 16 16 19
16 15 14 13 10 8 7 5 6 5 9 12 13 13 13 12 12 11 8 3 8 12 13 13 13 9 11 12 12 14 17 18 18 18 19 19 18 18 17 17 15 17 19
16 15 15 15 14 13 12 11 11 13 14 15 16 16 15 14 13 11 10 7 12 15 15 15 15 14 13 14 13 15 17 19 19 20 20 20 20 20 19 19 18 17 19
17 17 17 16 16 15 14 14 14 15 15 16 17 17 17 16 15 14 13 13 14 16 17 16 16 15 15 16 17 17 18 19 19 20 20 21 21 21 20 20 19 19 18
17 18 17 17 17 16 16 16 16 16 17 18 18 19 20 19 18 16 16 16 17 18 17 17 16 16 17 18 18 18 19 19 19 21 21 21 21 20 19 20 19 19 19
16 17 18 18 18 17 18 18 18 18 18 19 19 20 19 19 19 18 19 18 18 18 19 18 19 18 19 18 18 18 18 18 19 19 19 19 18 18 20 19 19 19 20
16 17 17 18 19 19 18 18 18 18 18 18 18 18 19 19 18 17 17 17 17 17 17 17 18 18 18 18 18 17 17 17 18 19 19 19 19 19 20 19 19 20 21
16 16 16 17 18 19 19 19 17 16 16 16 16 17 16 15 15 15 15 15 15 15 16 17 18 18 18 18 18 18 18 18 18 18 19 18 19 19 19 18 18 19 20
16 16 16 16 16 17 18 19 20 18 16 16 15 15 15 15 14 14 14 14 14 15 17 17 17 18 18 18 18 19 19 18 17 18 18 19 19 18 19 18 19 18 19
15 15 15 16 15 16 17 18 18 19 20 19 16 16 15 14 14 14 14 15 17 16 17 18 18 19 19 19 19 18 18 18 18 18 19 20 21 19 20 19 19 22 20
14 14 14 15 15 15 16 16 17 17 17 17 17 16 16 15 16 16 16 18 18 19 18 18 18 18 18 18 19 19 19 19 20 20 20 20 21 20 21 21 22 22 22
13 13 14 14 14 15 16 17 18 18 19 19 18 17 16 16 18 17 17 17 18 18 18 18 18 18 19 19 21 22 21 21 20 21 22 22 22 22 22 21 21 21 20
13 14 14 14 15 15 15 16 17 18 19 19 18 17 17 18 18 19 18 18 18 18 18 18 19 19 19 19 19 20 20 21 21 21 22 22 22 23 21 21 22 21 20
14 15 15 15 15 15 16 16 17 18 18 19 18 18 18 19 19 20 20 20 20 19 19 19 20 19 19 19 20 22 22 22 22 23 23 23 22 23 22 23 23 23 21
14 14 15 15 15 16 16 16 17 17 18 18 19 19 19 20 20 21 21 21 21 21 20 20 21 21 20 20 20 20 21 23 24 22 22 23 22 23 24 22 23 24 23
14 15 16 16 16 17 18 18 18 18 18 19 19 20 21 21 21 22 22 21 21 22 23 23 24 24 22 23 22 24 24 24 23 24 25 25 21 23 23 23 23 23 24
14 15 15 16 16 17 17 18 18 18 19 19 20 20 20 21 21 22 22 22 22 23 23 23 24 24 25 25 26 26 28 27 28 28 25 24 25 26 25 25 25 24 24
16 16 16 16 16 17 17 18 18 19 19 19 20 20 20 21 21 22 21 22 24 23 23 25 24 23 24 25 26 27 28 29 29 29 29 25 24 24 23 24 23 23 22

GFSGL_con_lsi_117.txt.gz
Lid_Strength_Index
7 8 7 7 4 1 2 2 2 2 2 2 2 2 2 1 1 1 2 2 2 2 2 3 3 3 2 3 3 4 4 5 6 5 3 3 3 3 3 4 5 6 7
9 9 8 8 2 2 2 2 1 2 2 3 3 2 2 2 1 2 2 3 3 3 3 3 2 3 3 3 3 4 4 4 5 6 4 4 4 3 3 4 6 8 8
9 9 8 8 2 2 2 2 2 2 2 2 2 2 2 2 2 2 2 2 2 3 3 3 3 2 3 3 3 4 4 4 5 6 6 5 4 4 6 8 10 11 10
10 10 9 8 2 2 2 3 2 2 2 2 3 2 2 2 2 2 2 2 3 2 2 2 3 3 3 3 4 4 4 4 5 5 6 6 5 5 5 7 10 11 11
10 10 9 8 3 2 2 2 2 2 3 3 2 2 2 2 2 3 3 2 3 3 3 2 2 3 6 5 3 4 4 5 5 6 6 6 7 6 6 6 8 12 13
10 10 10 7 2 2 2 2 3 3 3 3 3 2 2 2 8 7 4 3 3 3 3 3 4 7 8 9 9 8 5 5 6 6 6 7 7 6 6 7 11 13 14
11 11 11 11 2 2 2 2 2 3 3 4 3 3 2 2 9 8 8 3 3 4 4 4 5 5 7 7 13 13 14 13 11 5 6 7 7 7 6 8 10 12 13
13 12 12 12 8 2 2 2 3 3 3 3 4 2 3 7 10 8 8 2 3 3 3 3 4 5 6 9 12 15 15 15 14 13 12 14 14 13 11 12 13 16 16
14 13 14 13 12 3 3 3 3 3 3 6 5 6 8 11 12 9 6 3 4 5 6 8 4 4 9 10 12 15 16 16 14 14 14 14 14 14 13 13 15 15 18
15 14 14 14 13 12 5 3 3 7 11 12 14 14 13 12 13 10 6 4 9 12 13 13 13 9 11 11 12 13 16 17 17 17 17 17 17 16 16 16 14 16 18
15 15 15 15 14 14 12 8 10 13 14 16 17 16 16 15 14 10 9 7 11 14 14 15 14 13 12 12 12 13 16 18 18 19 19 19 19 19 19 19 18 16 18
16 17 17 17 16 15 15 14 14 15 16 17 18 18 17 16 15 13 12 12 13 14 16 16 15 15 15 16 17 17 17 18 19 20 20 21 21 21 20 19 19 18 18
16 18 18 18 17 16 16 16 16 16 16 17 18 19 19 19 17 15 15 15 16 17 16 16 16 17 17 17 17 17 18 18 20 21 21 21 21 20 19 19 19 19 18
16 17 18 19 18 18 17 17 17 17 18 18 19 20 19 19 18 18 18 17 17 18 18 18 18 18 18 18 18 18 19 19 19 20 20 20 19 19 19 19 21 21 20
15 15 17 18 19 18 18 18 18 17 17 19 19 19 19 19 18 17 17 18 17 17 18 18 18 19 19 19 19 19 19 19 19 19 19 19 19 19 19 19 19 20 21
15 16 16 17 18 19 19 19 16 16 16 15 16 17 16 16 15 15 15 15 16 16 18 19 19 19 20 20 20 20 19 19 19 18 19 19 19 20 19 19 19 19 20
16 15 15 17 18 18 19 19 20 18 16 16 15 16 16 16 16 16 16 16 16 17 19 20 20 20 20 20 20 19 20 19 19 19 20 20 19 19 19 19 19 19 20
15 15 16 16 16 17 18 19 19 19 20 19 17 17 16 16 16 16 17 18 20 19 20 20 20 20 20 20 20 20 20 20 20 20 21 21 21 20 21 21 21 24 22
14 15 15 15 16 17 18 19 19 19 18 19 19 19 18 17 17 18 18 20 20 21 20 21 21 21 21 21 21 20 21 22 22 22 22 21 24 22 23 22 22 23 21
14 14 15 15 16 17 18 18 19 19 20 20 20 20 19 20 21 21 20 20 21 20 20 20 20 20 20 21 22 23 22 22 22 22 24 25 26 23 24 23 24 23 21
15 15 15 15 16 17 18 18 19 19 19 20 20 20 20 20 21 21 20 21 20 20 20 20 20 20 20 21 21 22 23 23 23 24 24 23 25 24 23 23 23 23 21
15 15 15 16 16 17 17 17 18 19 19 20 20 20 20 21 21 22 22 22 22 21 21 22 22 22 22 23 23 23 24 26 26 26 25 24 23 24 25 25 24 24 23
15 16 17 17 17 17 17 18 19 19 20 21 21 21 22 22 23 23 24 25 24 25 25 25 24 24 24 26 26 26 26 27 28 28 26 26 25 25 28 26 27 27 27
16 17 17 18 18 19 19 19 19 20 20 21 22 22 23 23 24 25 25 24 24 25 26 26 26 26 27 28 28 27 27 29 28 28 29 28 27 26 27 26 25 28 27
18 18 18 19 19 20 20 20 21 21 22 23 23 23 23 24 24 25 26 25 26 27 27 27 26 28 29 30 30 29 30 31 31 31 29 28 30 29 28 27 29 27 28
18 18 18 18 19 20 21 22 22 24 24 24 24 25 25 25 26 28 27 27 27 27 28 27 26 28 29 29 28 30 31 31 31 31 32 28 28 29 28 29 28 28 26

GFSGL_con_lsi_120.txt.gz
Lid_Strength_Index
10 10 10 10 9 8 7 5 1 1 1 2 1 2 2 3 3 3 3 3 2 2 2 2 2 2 2 3 3 3 4 4 5 4 4 3 4 3 4 5 6 6 8
10 10 11 10 10 7 6 3 1 1 2 1 1 2 3 2 3 3 3 3 2 3 3 2 3 2 3 2 3 4 4 4 5 5 4 4 4 3 4 6 7 7 8
10 10 10 10 9 8 8 2 1 2 2 1 2 3 3 3 3 3 2 2 2 2 2 3 2 2 3 2 3 4 3 4 4 5 5 5 4 4 8 9 10 10 10
11 10 10 10 9 9 8 4 2 1 1 2 2 3 3 4 3 2 2 2 2 2 3 2 2 2 3 3 3 3 4 4 4 5 6 6 5 5 6 9 11 11 11
10 10 10 10 9 8 6 3 1 2 1 1 2 3 3 4 3 3 2 2 2 3 2 2 2 3 5 4 3 4 4 4 5 5 6 7 6 6 6 7 10 12 13
11 11 11 10 10 9 8 3 2 2 2 2 3 3 4 4 9 7 4 2 3 3 3 3 2 6 7 8 8 8 5 4 5 5 5 6 7 6 6 7 12 13 13
13 12 12 12 11 11 10 2 2 2 2 2 3 3 4 4 9 8 8 3 3 3 3 4 4 4 6 5 12 13 13 13 11 5 5 6 7 6 6 8 10 12 13
13 13 13 12 12 11 11 7 2 2 2 3 3 4 4 6 10 10 9 4 4 3 3 3 4 5 7 9 12 14 15 15 14 12 9 13 13 11 8 9 11 16 16
14 14 14 14 13 12 12 11 2 2 3 3 4 5 7 9 11 10 7 5 5 6 7 9 4 5 10 10 12 15 16 16 15 14 14 15 14 14 13 12 14 13 17
15 15 15 14 14 14 14 13 2 4 8 11 14 12 12 12 12 11 7 6 11 11 12 12 13 7 11 11 11 13 15 17 17 17 17 17 16 16 16 14 12 13 17
14 15 15 15 15 14 14 14 11 12 13 15 16 16 15 15 13 11 10 8 13 14 14 14 14 12 12 11 11 12 14 17 17 17 18 18 18 18 18 17 17 15 17
15 16 17 16 16 15 15 15 15 14 16 16 17 17 16 15 14 13 12 13 13 15 15 15 14 13 14 14 15 15 16 17 17 18 19 20 20 20 20 19 18 18 17
16 17 17 17 16 16 16 16 17 16 17 16 17 19 19 18 16 15 15 15 16 16 15 15 14 15 16 16 16 16 17 18 19 20 21 21 21 20 20 20 19 19 19
15 17 17 18 18 17 17 17 17 17 18 18 19 19 18 18 19 18 17 17 17 18 17 18 18 18 18 18 18 18 18 19 20 20 20 20 19 20 21 20 21 20 21
15 16 16 17 18 18 18 17 17 17 17 18 17 18 18 19 18 17 17 18 18 18 17 17 18 18 19 19 19 19 19 19 20 19 20 20 20 20 20 20 20 21 21
15 16 17 17 17 18 18 18 16 16 16 16 16 17 16 16 16 16 16 16 16 17 18 20 20 19 20 20 20 20 20 20 19 19 20 20 20 20 21 20 20 20 21
15 16 16 16 17 17 18 19 20 18 17 16 16 16 16 16 16 16 16 17 17 18 20 20 20 21 21 20 20 20 21 20 20 20 20 20 20 20 20 20 20 20 20
14 15 16 17 18 18 19 19 18 20 21 20 18 17 17 17 17 17 17 19 21 20 21 21 21 21 20 21 21 21 21 21 21 20 21 21 21 21 21 21 22 23 21
14 15 16 17 18 18 18 19 19 19 20 20 20 20 19 18 18 18 19 21 22 22 21 22 21 21 21 22 22 22 22 23 23 22 22 22 24 22 23 22 22 23 22
15 15 16 16 17 18 18 19 19 20 21 21 22 22 21 21 22 22 21 21 21 21 21 22 22 22 22 23 22 22 22 21 22 22 24 24 24 23 24 24 24 23 22
16 16 17 16 17 17 18 19 19 20 21 21 22 21 21 22 23 23 23 23 22 22 22 22 22 21 21 21 21 23 24 24 24 23 23 24 24 25 24 24 24 23 23
16 16 16 16 17 17 18 18 19 19 20 21 22 22 22 23 23 23 24 24 24 23 22 23 23 24 24 24 24 25 26 26 26 25 25 25 25 26 25 25 25 26 24
17 18 17 17 17 18 18 19 20 20 21 22 22 23 23 24 24 24 25 26 25 25 25 25 25 26 27 27 27 26 27 28 29 29 26 26 26 26 27 27 27 28 28
17 18 18 18 19 19 20 20 21 21 22 22 23 24 24 24 25 26 26 26 26 27 27 28 28 28 28 29 28 28 29 31 29 29 30 28 27 26 27 27 28 31 30
18 18 19 20 21 22 21 21 22 22 23 23 24 24 24 25 25 26 27 27 27 27 28 28 29 30 30 31 31 30 32 31 32 32 29 28 28 29 29 30 31 29 30
19 19 20 20 21 22 23 23 24 23 24 25 26 28 29 28 28 30 29 28 27 28 28 30 30 30 30 29 30 31 32 32 32 33 32 29 29 30 30 31 30 30 29

GFSGL_con_lsi_123.txt.gz
Lid_Strength_Index
12 11 11 11 10 10 9 8 7 6 4 1 2 2 1 1 2 2 2 3 3 3 3 3 3 2 2 2 2 3 3 3 5 5 4 3 3 3 5 5 5 6 8
12 12 12 11 11 10 10 9 7 6 3 1 1 2 1 2 2 3 3 3 3 4 4 4 2 2 2 2 2 3 3 3 4 5 5 4 4 4 5 6 6 7 8
12 12 12 11 11 11 11 10 8 7 2 1 1 2 2 2 2 3 3 3 3 4 4 3 2 2 2 2 2 3 3 3 4 5 5 5 5 6 9 9 10 10 10
13 13 12 11 12 12 11 10 8 6 2 1 1 1 2 1 2 2 3 3 3 4 3 2 2 2 2 3 3 3 3 3 4 5 5 5 5 6 7 10 11 11 12
13 13 12 12 12 11 11 10 8 6 2 1 2 1 1 2 2 3 4 3 4 3 3 2 2 3 5 4 2 3 3 4 4 5 5 6 6 7 7 8 11 13 13
13 13 13 12 11 12 11 10 8 7 3 2 2 2 2 2 8 9 6 4 3 3 3 3 2 6 6 8 7 7 5 4 5 5 5 5 5 5 7 8 12 13 13
13 13 13 13 12 11 11 10 9 9 3 2 2 2 2 2 10 10 9 3 3 3 3 3 4 4 5 4 10 10 12 11 10 4 6 5 6 5 6 9 10 12 12
14 14 13 14 13 13 12 11 10 9 5 2 2 2 2 4 10 10 10 3 3 3 3 3 4 4 4 7 10 13 14 14 13 11 6 10 9 6 5 7 10 15 15
14 15 15 14 14 13 12 12 11 11 7 2 2 2 3 6 11 11 8 4 4 6 5 5 4 5 11 10 12 14 15 16 14 14 14 14 14 14 12 10 14 13 16
15 15 15 15 15 14 14 13 12 11 6 9 12 9 9 9 11 11 7 6 10 11 13 13 14 7 12 12 11 13 15 17 17 16 17 16 16 16 16 14 11 12 17
15 16 16 15 15 15 14 13 14 14 13 14 14 14 14 13 12 11 10 8 11 13 14 15 15 12 12 11 11 11 14 16 16 16 17 17 18 18 17 16 15 13 14
14 16 16 16 15 15 15 15 15 15 15 16 15 15 15 15 13 12 12 12 13 13 15 15 15 13 12 13 14 14 15 15 16 17 18 19 19 19 19 18 17 17 16
16 16 16 16 15 16 16 16 16 16 16 17 17 16 18 17 16 15 14 15 15 15 15 15 15 15 14 15 15 15 16 16 17 19 20 21 21 19 19 19 18 18 19
16 17 17 17 17 16 16 16 16 17 17 17 18 18 18 18 18 18 17 17 16 17 18 18 18 18 18 17 17 17 17 18 18 20 20 20 20 20 20 20 20 20 20
15 16 17 16 17 17 17 17 17 17 17 18 18 18 18 18 17 17 17 18 17 17 18 18 18 18 19 19 19 19 18 18 19 19 20 20 20 20 20 20 20 20 21
15 16 17 17 17 17 18 18 17 17 17 17 16 18 18 17 16 16 16 17 17 17 19 20 20 20 20 20 20 20 19 19 19 20 20 20 20 20 21 20 20 21 22
16 16 17 17 18 18 18 18 20 19 18 18 17 17 17 17 17 17 18 18 18 18 21 21 21 20 21 20 20 20 21 20 19 19 20 20 20 20 21 21 22 22 23
15 17 18 18 18 19 19 19 19 20 22 22 19 19 18 18 18 18 18 19 21 21 21 22 22 21 21 21 21 21 21 21 21 21 21 21 21 21 22 22 22 23 22
16 17 17 18 18 18 19 19 20 21 21 22 22 21 21 19 19 19 19 21 22 22 22 22 22 22 22 22 23 23 23 23 23 23 23 23 23 22 23 23 22 22 21
17 17 17 17 18 18 18 20 21 21 22 23 23 23 22 22 24 24 23 23 23 23 23 23 23 22 23 23 23 23 23 23 24 24 25 25 24 22 22 22 22 22 22
18 17 18 17 18 18 19 19 20 21 22 23 24 23 23 24 25 25 25 25 24 24 24 24 25 24 24 24 24 24 25 24 24 23 23 24 24 23 23 23 23 23 23
18 18 18 18 18 19 19 20 21 21 22 22 23 23 23 24 24 25 25 26 26 25 25 26 27 27 26 26 24 24 25 25 24 23 24 23 23 24 23 24 24 25 24
18 19 19 19 19 20 20 20 21 22 23 23 23 24 24 25 25 26 26 26 26 26 26 26 26 27 27 27 27 26 26 27 27 26 25 25 24 25 26 26 26 26 28
18 19 19 20 21 21 22 23 22 23 23 24 24 25 25 26 26 26 26 26 27 27 28 28 28 28 28 29 29 28 28 29 27 27 26 25 25 25 26 27 28 32 32
19 19 21 22 22 23 23 23 24 24 24 25 26 26 25 26 26 27 27 27 27 28 29 29 28 29 30 30 30 30 30 31 30 30 28 27 28 29 29 29 32 30 31
19 19 20 21 22 23 24 24 25 25 25 26 27 27 27 26 27 28 27 27 28 29 29 29 29 30 30 29 29 31 32 32 32 33 32 28 29 30 30 31 31 31 30

GFSGL_con_lsi_126.txt.gz
Lid_Strength_Index
13 12 12 11 11 10 10 10 9 7 7 5 4 1 1 2 2 3 3 2 2 2 3 3 3 3 3 3 3 2 2 2 4 4 3 2 2 2 3 3 4 5 6
13 13 12 12 11 11 11 10 9 8 7 6 3 3 1 2 2 3 3 3 2 2 3 4 4 4 4 3 2 2 2 2 3 5 4 4 3 2 4 5 6 6 7
14 14 14 13 13 13 12 11 10 9 8 6 5 3 2 1 2 2 3 3 3 2 3 3 4 4 4 4 2 2 2 3 3 3 4 4 5 6 9 9 9 10 9
13 13 14 13 13 12 12 11 10 9 9 7 5 2 1 1 1 2 2 2 2 3 3 3 4 4 3 4 2 2 2 3 3 4 4 4 5 7 7 10 11 11 12
14 14 14 13 13 12 12 11 11 10 9 8 5 2 1 1 1 2 3 2 2 3 4 3 3 5 7 3 2 2 3 3 4 4 5 5 6 8 8 9 11 13 13
14 14 14 13 13 13 12 12 11 10 10 8 6 2 2 2 8 9 5 2 3 4 4 4 4 7 7 8 7 7 4 3 4 4 4 5 6 7 8 9 12 13 14
14 15 15 14 14 13 13 12 12 11 10 9 7 2 2 2 9 9 9 2 3 3 4 4 4 4 5 4 9 9 9 9 9 3 4 5 5 6 7 10 10 11 12
14 15 15 15 15 14 13 12 12 11 11 10 8 4 2 2 9 9 10 3 3 4 3 4 3 4 4 5 9 11 13 13 11 8 5 6 6 5 6 7 9 15 15
15 16 16 15 15 14 14 14 13 12 11 10 8 3 2 2 10 10 9 4 4 5 5 4 3 4 9 9 10 13 14 15 13 13 13 13 13 11 9 10 12 12 16
15 16 16 15 15 15 14 14 13 12 12 12 12 11 6 3 11 10 7 5 8 11 12 11 10 6 12 11 11 12 13 15 15 15 15 15 14 15 15 12 10 10 15
15 16 16 15 15 15 15 14 14 14 13 13 14 14 14 13 10 11 9 6 9 12 13 15 14 12 12 11 11 11 13 15 16 15 16 17 17 17 16 15 15 11 14
16 17 16 16 15 15 15 15 15 14 15 15 15 15 15 15 14 12 10 11 12 13 15 15 14 13 13 13 14 15 14 14 15 16 17 18 19 19 18 17 16 15 14
17 17 17 16 16 16 16 16 16 16 16 16 17 17 16 16 16 15 15 15 16 16 16 15 15 15 15 16 16 16 15 15 16 17 19 20 19 18 17 17 17 17 18
16 17 17 17 17 16 16 17 17 17 17 18 18 18 17 17 17 17 17 17 16 18 18 18 18 18 17 18 18 18 17 16 17 19 20 19 18 18 19 18 18 18 19
15 16 17 17 17 17 17 17 18 17 17 18 18 18 18 19 17 16 17 17 17 18 18 18 18 18 19 19 19 18 18 18 19 19 19 20 20 20 20 19 19 19 20
16 16 17 18 18 18 18 18 16 17 17 17 17 17 17 17 17 16 17 17 17 17 19 20 21 20 20 20 20 20 19 19 19 19 19 19 20 20 20 20 19 20 21
17 18 18 18 18 19 19 20 21 19 18 18 19 18 18 18 17 17 18 18 18 19 21 21 21 21 21 21 21 21 21 20 19 19 20 20 20 20 20 21 21 21 21
17 18 19 19 19 19 19 20 20 21 22 22 20 20 19 19 19 19 19 20 22 22 22 22 22 22 22 22 21 21 21 21 21 21 21 20 20 21 21 22 21 22 22
17 17 18 18 19 19 19 19 20 21 22 23 22 22 21 20 20 20 20 22 23 23 23 23 22 22 22 22 22 22 22 22 22 22 22 22 21 22 23 22 22 22 22
17 17 17 18 18 19 19 19 20 21 22 23 24 23 22 22 24 25 25 24 24 24 24 23 23 23 23 23 23 23 23 23 23 23 24 24 23 22 23 23 22 22 22
18 17 18 18 19 19 20 21 21 21 21 22 23 24 23 24 25 25 25 25 26 26 26 26 26 25 24 24 23 24 24 24 24 24 24 24 23 24 23 23 23 22 21
18 18 18 19 19 20 21 21 22 22 22 23 23 23 24 24 25 26 26 26 26 26 25 26 26 27 27 26 25 24 25 25 24 24 24 23 23 23 23 23 23 23 23
19 20 20 20 21 22 23 22 23 24 24 24 24 24 24 25 25 26 27 27 27 27 26 26 27 27 27 27 27 26 26 26 25 23 23 23 23 23 23 24 24 24 24
19 21 21 22 23 23 24 25 24 25 25 25 26 25 25 26 26 26 27 27 27 27 27 28 28 28 27 28 28 27 27 27 25 24 23 24 24 24 24 25 25 26 26
20 21 21 23 24 27 27 26 27 27 27 27 27 27 26 26 27 27 27 27 27 28 28 28 28 28 29 29 29 29 29 30 28 26 24 25 25 26 26 25 26 26 27
21 21 22 22 24 25 26 26 27 28 29 28 29 29 29 27 27 27 27 27 28 28 28 29 29 29 29 29 28 30 31 30 30 29 26 25 26 26 26 27 27 26 27

GFSGL_con_lsi_129.txt.gz
Lid_Strength_Index
11 12 11 11 10 10 10 10 9 8 7 6 5 4 3 1 1 1 1 2 2 2 1 1 1 1 1 2 2 2 2 2 4 2 1 0 1 2 2 1 2 2 4
12 12 12 11 11 11 10 10 9 8 7 7 6 5 3 2 1 1 2 2 3 3 2 2 2 2 2 3 3 3 3 2 3 4 2 1 1 1 2 3 4 5 5
13 12 12 12 13 12 11 10 10 9 8 7 6 5 4 2 1 1 1 1 2 3 2 2 2 2 2 3 3 3 3 1 2 3 3 2 4 4 7 8 8 9 9
14 13 13 13 13 12 11 11 11 10 10 8 7 6 4 3 1 1 1 1 2 2 2 2 2 2 2 3 3 3 3 2 2 3 3 3 4 5 5 9 11 10 11
14 14 14 13 13 13 12 12 11 10 10 8 7 6 5 3 2 1 1 1 2 2 2 2 1 3 6 5 3 3 3 3 3 3 4 4 6 7 7 8 10 12 13
14 14 14 13 13 13 12 11 11 11 11 10 8 7 6 4 5 7 4 2 2 2 3 3 2 7 7 9 9 8 3 2 3 3 3 4 5 5 7 8 12 13 13
14 15 15 14 14 13 13 12 12 12 11 11 10 8 7 5 7 8 9 1 2 2 2 2 3 4 6 5 10 10 9 8 8 2 3 3 4 4 6 10 10 10 12
15 15 15 15 14 14 13 13 12 12 12 11 10 9 8 6 8 9 10 2 2 1 2 2 3 4 4 4 5 8 9 10 9 7 2 1 2 4 6 7 8 14 15
15 16 15 15 15 14 14 14 13 12 12 12 10 10 9 8 8 9 9 4 2 2 2 3 3 2 8 9 7 11 13 15 13 12 12 11 9 8 8 10 12 12 15
16 15 15 15 15 15 15 14 13 13 13 12 12 12 12 13 13 13 9 3 4 5 6 5 9 6 11 12 8 10 12 14 14 14 14 14 13 13 14 8 9 10 15
15 15 15 15 15 15 15 14 14 14 14 14 14 13 14 14 14 13 12 4 5 9 9 10 11 12 12 12 10 10 11 14 15 14 15 15 15 15 15 14 14 10 12
15 15 15 15 14 15 15 15 14 14 15 16 15 15 14 15 14 15 13 12 9 9 13 14 15 13 13 14 14 14 14 14 14 15 15 17 17 17 17 17 16 15 15
15 15 15 15 14 14 15 16 15 15 15 16 16 17 16 15 15 15 15 15 15 14 15 15 16 15 15 16 15 15 15 14 14 16 17 19 18 17 16 17 17 17 17
15 15 15 15 15 14 14 14 16 16 16 16 16 17 17 17 17 16 16 16 15 16 17 17 17 17 17 17 17 16 17 16 16 18 19 18 17 17 17 16 16 17 18
14 14 15 14 15 15 15 15 15 15 16 16 16 16 18 19 18 16 16 17 17 17 17 17 18 18 19 19 19 18 18 18 19 19 19 19 18 18 18 18 18 18 19
14 15 15 15 15 15 16 16 15 16 16 16 16 17 16 17 17 17 18 18 17 18 20 20 20 20 20 20 20 20 19 19 19 19 19 19 19 19 19 19 18 19 20
16 15 15 16 16 16 17 17 18 16 17 17 17 17 17 18 18 18 18 19 19 20 22 22 22 22 21 21 21 21 21 20 19 19 20 20 20 20 19 20 19 20 20
15 16 15 16 16 16 17 17 18 18 19 19 18 18 18 18 19 19 19 20 22 22 23 23 23 23 23 22 22 21 21 20 20 20 20 20 19 20 20 20 19 19 20
15 15 15 15 16 17 16 17 17 18 19 20 20 19 20 19 19 21 21 23 24 24 23 23 22 22 22 22 21 22 22 21 21 20 20 19 19 20 20 20 20 20 19
15 16 17 16 17 17 17 18 18 18 19 20 21 22 21 20 22 23 24 24 25 24 24 24 23 22 21 21 21 21 21 20 20 21 20 20 19 19 20 20 20 21 21
16 16 17 17 18 18 18 19 19 19 19 20 20 21 22 22 23 23 24 24 24 25 25 25 25 24 23 22 21 21 21 21 21 21 20 20 20 21 20 20 20 20 20
16 17 17 18 18 19 19 19 19 20 20 21 20 21 22 21 22 23 25 25 24 24 23 23 24 25 25 25 23 22 22 22 21 21 21 21 21 21 21 21 21 20 20
16 17 18 18 18 20 20 20 20 20 21 21 21 22 22 22 22 23 24 24 25 25 25 24 24 24 24 24 23 23 23 22 21 20 20 20 21 21 20 21 21 21 21
16 17 18 18 20 19 20 21 21 22 22 21 21 22 22 23 23 24 24 24 24 24 25 25 26 26 25 24 24 23 23 22 21 20 20 20 20 20 20 21 21 21 22
16 17 17 18 19 19 20 20 21 21 21 22 22 22 22 23 23 23 24 24 25 25 25 25 25 25 25 25 26 26 26 25 23 21 20 20 21 21 20 20 20 21 21
17 17 17 18 18 19 19 20 21 21 21 21 21 22 22 22 22 23 23 24 24 25 25 25 25 26 25 25 25 26 26 25 24 23 19 19 20 20 20 21 21 21 21